[[[{"header":{"parameterUnit":"kt","parameterCategory":2,"dx":1,"dy":1,"la1":29.587661999999998,"la2":31.0,"lo1":-88.76705300000003,"lo2":-86.6583820000003,"nx":115,"ny":88,"refTime":"2022-10-20T12:00:00:Z","depth":0,"parameterNumber":1,"parameterNumberName":"U-component_of_WINDS"},"data":[4.9238,4.9035,4.9126,4.8681,4.8255,4.9274,5.0511,5.157,5.2787,5.4302,5.5243,5.5459,5.5455,5.5334,5.4853,5.431,5.3823,5.3566,5.3362,5.3336,5.3362,5.3448,5.3532,5.3649,5.3649,5.3448,5.3154,5.2936,5.2912,5.2757,5.3129,5.3927,5.531,5.6689,5.8032,5.9206,6.0126,6.0321,6.0088,5.9772,5.9612,5.9401,5.9531,6.0625,6.2173,6.3759,6.5263,6.6679,6.7388,6.7774,6.7838,6.7838,6.7935,6.8064,6.8515,6.948,7.0704,7.2153,7.3569,7.4857,7.5984,7.6177,7.6371,7.6371,7.6371,7.6371,7.6371,7.6371,7.6371,7.6371,7.6371,7.6371,7.6403,7.6982,7.7409,7.8611,8.0505,8.2685,8.4652,8.594,8.7154,8.7994,8.8466,8.8601,8.8803,8.9102,8.9265,8.9461,8.9655,8.9785,8.9785,8.9785,8.9785,8.9785,8.9785,8.9785,8.9785,8.9785,8.9785,8.9785,8.9785,8.9785,8.9785,8.9785,8.9785,8.9785,8.9785,8.9785,8.9785,8.9785,8.9785,8.9785,8.9785,8.9785,8.9785,4.9293,4.9147,4.9049,4.8534,4.7961,4.8252,4.8884,4.9921,5.1338,5.2787,5.3911,5.4116,5.4599,5.4999,5.501,5.4386,5.3881,5.3625,5.3566,5.3507,5.3507,5.3591,5.3731,5.3847,5.3673,5.3507,5.3242,5.312,5.2936,5.2779,5.2757,5.2932,5.4027,5.5346,5.6689,5.7991,5.9111,5.9456,5.966,5.9257,5.8733,5.8263,5.8474,5.9235,6.0391,6.2055,6.3695,6.523,6.6679,6.7227,6.7838,6.7838,6.7838,6.7871,6.8193,6.8611,6.9802,7.109,7.2378,7.3827,7.5115,7.592,7.6242,7.6371,7.6371,7.6371,7.6371,7.6371,7.6371,7.6371,7.6371,7.6371,7.6371,7.6668,7.6797,7.7328,7.9802,8.2148,8.3794,8.5205,8.6548,8.7959,8.8263,8.8296,8.85,8.8903,8.9201,8.9363,8.9558,8.9689,8.9785,8.9785,8.9785,8.9785,8.9785,8.9785,8.9785,8.9785,8.9785,8.9785,8.9785,8.9785,8.9785,8.9785,8.9785,8.9785,8.9785,8.9785,8.9785,8.9785,8.9785,8.9785,8.9785,8.9785,8.9785,4.9381,4.9185,4.9061,4.8545,4.79,4.7832,4.8452,4.9385,5.0089,5.0762,5.1434,5.3101,5.389,5.3834,5.4817,5.4623,5.3881,5.3591,5.3591,5.3649,5.3649,5.3823,5.4051,5.422,5.3995,5.3731,5.3532,5.3302,5.3031,5.2874,5.275,5.2891,5.3795,5.4819,5.5343,5.7091,5.8219,5.8481,5.8968,5.8452,5.7373,5.7547,5.7806,5.8472,5.9827,6.1603,6.3207,6.4852,6.6267,6.7388,6.7806,6.7838,6.7838,6.7838,6.7838,6.8257,6.9062,7.0253,7.138,7.2861,7.46,7.5244,7.5662,7.6338,7.6371,7.6371,7.6371,7.6371,7.6371,7.6371,7.6371,7.6371,7.6371,7.6371,7.6571,7.6668,7.8313,8.0395,8.1935,8.3673,8.5613,8.702,8.8028,8.8095,8.8398,8.8803,8.9003,8.9265,8.9495,8.9689,8.9785,8.9785,8.9785,8.9785,8.9785,8.9785,8.9785,8.9785,8.9785,8.9785,8.9785,8.9785,8.9785,8.9785,8.9785,8.9785,8.9785,8.9785,8.9785,8.9785,8.9785,8.9785,8.9785,8.9785,8.9785,4.906,4.9089,4.8997,4.8531,4.7905,4.7838,4.8238,4.8884,4.8843,4.9055,4.9772,5.1689,5.2812,5.3127,5.4163,5.4489,5.3993,5.4029,5.38,5.3857,5.4051,5.4164,5.4164,5.4476,5.4331,5.4017,5.3789,5.3566,5.3154,5.2936,5.2812,5.2787,5.3099,5.3892,5.4516,5.5884,5.6982,5.7284,5.7836,5.772,5.6875,5.7053,5.7317,5.7978,5.8732,6.0611,6.2392,6.4097,6.572,6.7194,6.7516,6.7806,6.7838,6.7838,6.7838,6.7999,6.874,6.9513,7.0607,7.2153,7.373,7.4503,7.5469,7.6049,7.6338,7.6371,7.6371,7.6371,7.6371,7.6371,7.6371,7.6371,7.6371,7.6371,7.6474,7.6474,7.6539,7.8125,7.9753,8.1877,8.4311,8.5848,8.7289,8.7894,8.8264,8.8601,8.8903,8.9102,8.9397,8.9689,8.9785,8.9785,8.9785,8.9785,8.9785,8.9785,8.9785,8.9785,8.9785,8.9785,8.9785,8.9785,8.9785,8.9785,8.9785,8.9785,8.9785,8.9785,8.9785,8.9785,8.9785,8.9785,8.9785,8.9785,8.9751,4.796,4.8928,4.8879,4.8508,4.8027,4.7879,4.7762,4.7527,4.749,4.7984,4.92,4.97,5.1188,5.272,5.3433,5.3843,5.4308,5.4365,5.4198,5.4176,5.44,5.4476,5.453,5.4639,5.4386,5.4017,5.3731,5.3532,5.3181,5.3031,5.2874,5.2683,5.2538,5.2771,5.3717,5.4975,5.5683,5.6149,5.6801,5.7348,5.6817,5.6607,5.6845,5.7317,5.8119,5.9148,6.1007,6.2663,6.4393,6.581,6.6872,6.771,6.7806,6.7838,6.7838,6.8064,6.816,6.8804,6.9867,7.1251,7.2668,7.4085,7.5501,7.5888,7.6113,7.6145,7.6306,7.6371,7.6371,7.6371,7.6371,7.6371,7.6371,7.6371,7.6371,7.6371,7.6371,7.7037,7.8428,7.9855,8.2279,8.4947,8.6251,8.7324,8.766,8.8433,8.8869,8.9068,8.9363,8.9592,8.9689,8.9785,8.9785,8.9785,8.9785,8.9785,8.9785,8.9785,8.9785,8.9785,8.9785,8.9785,8.9785,8.9785,8.9785,8.9785,8.9785,8.9785,8.9785,8.9785,8.9785,8.9785,8.9785,8.9751,8.9655,4.7327,4.7783,4.854,4.8728,4.8394,4.7991,4.7654,4.7418,4.7169,4.7306,4.8058,4.8912,5.0308,5.1816,5.2825,5.3659,5.4554,5.457,5.453,5.4455,5.4565,5.4619,5.4619,5.4619,5.4331,5.3995,5.3649,5.3448,5.3154,5.3065,5.3031,5.2779,5.2207,5.2377,5.289,5.3938,5.4515,5.5138,5.6096,5.6717,5.6817,5.6638,5.6728,5.6995,5.7404,5.8422,5.9788,6.1047,6.3063,6.4979,6.5881,6.6872,6.7806,6.7838,6.7838,6.7838,6.7838,6.8257,6.8869,7.0157,7.1509,7.2861,7.4213,7.4922,7.5308,7.5952,7.6242,7.6371,7.6371,7.6371,7.6371,7.6371,7.6371,7.6371,7.6371,7.6371,7.6371,7.6371,7.7205,7.8335,8.0423,8.3247,8.5248,8.6218,8.719,8.8063,8.8702,8.8969,8.9201,8.9495,8.9592,8.9751,8.9785,8.9785,8.9785,8.9785,8.9785,8.9785,8.9785,8.9785,8.9785,8.9785,8.9785,8.9785,8.9785,8.9785,8.9785,8.9785,8.9785,8.9785,8.9785,8.9785,8.9751,8.9655,8.9558,4.613,4.6915,4.7872,4.8492,4.8654,4.8109,4.7587,4.7205,4.7132,4.6984,4.6981,4.8198,4.9248,5.0496,5.2048,5.3245,5.4068,5.461,5.4677,5.4693,5.4693,5.4781,5.4673,5.453,5.422,5.3938,5.3591,5.3362,5.3126,5.3065,5.3065,5.275,5.1949,5.162,5.2187,5.3345,5.357,5.4216,5.6135,5.6624,5.6607,5.6427,5.6368,5.6548,5.6875,5.7362,5.8502,5.9714,6.1551,6.3758,6.4851,6.624,6.746,6.7746,6.7838,6.7838,6.7838,6.7871,6.8064,6.9191,7.0446,7.1573,7.2861,7.3569,7.4568,7.5437,7.6338,7.6371,7.6371,7.6371,7.6371,7.6371,7.6371,7.6371,7.6371,7.6371,7.6371,7.6442,7.6681,7.7712,7.8414,8.1288,8.4644,8.5715,8.6653,8.7828,8.85,8.8803,8.9003,8.9265,8.9461,8.9558,8.9655,8.9785,8.9785,8.9785,8.9785,8.9785,8.9785,8.9785,8.9785,8.9785,8.9785,8.9785,8.9785,8.9785,8.9785,8.9785,8.9785,8.9785,8.9689,8.9655,8.9655,8.9363,8.9167,4.4025,4.6456,4.6565,4.7488,4.8519,4.8109,4.7415,4.676,4.6946,4.691,4.6683,4.7053,4.8154,4.942,5.0784,5.2143,5.3302,5.4858,5.4991,5.4958,5.4853,5.4906,5.4746,5.4386,5.4108,5.3904,5.3591,5.3242,5.3126,5.3065,5.275,5.2207,5.162,5.1081,5.1399,5.2408,5.3287,5.3833,5.5467,5.6293,5.6306,5.6216,5.6186,5.6186,5.6427,5.6761,5.7279,5.844,6.014,6.1914,6.3853,6.5528,6.6796,6.7463,6.7746,6.7838,6.7838,6.7838,6.8032,6.8901,6.9867,7.0124,7.1509,7.2861,7.4052,7.534,7.6113,7.6371,7.6371,7.6371,7.6371,7.6371,7.6371,7.6371,7.6371,7.6371,7.6371,7.6442,7.6649,7.7021,7.7823,7.9636,8.2978,8.5013,8.595,8.7123,8.8096,8.8467,8.8769,8.9068,8.9265,8.9363,8.9655,8.9785,8.9785,8.9785,8.9785,8.9785,8.9785,8.9785,8.9785,8.9785,8.9785,8.9785,8.9785,8.9785,8.9785,8.9785,8.9785,8.9689,8.9558,8.9558,8.9655,8.9363,8.8969,4.34,4.5306,4.6102,4.7402,4.8671,4.8138,4.7719,4.7415,4.7169,4.6946,4.6834,4.6981,4.7801,4.9212,5.0649,5.2032,5.3365,5.4732,5.5149,5.5114,5.4958,5.4853,5.4604,5.422,5.3904,5.3649,5.3422,5.3215,5.3065,5.3065,5.2687,5.2014,5.1218,5.0527,5.0486,5.1417,5.2611,5.3348,5.453,5.5866,5.6094,5.6034,5.6034,5.6034,5.6034,5.6095,5.6277,5.7039,5.8201,5.9868,6.1885,6.4008,6.5621,6.6793,6.7838,6.7838,6.7838,6.7838,6.7838,6.8579,6.8676,6.8869,7.0929,7.2217,7.3054,7.5018,7.5888,7.6338,7.6371,7.6371,7.6371,7.6371,7.6371,7.6371,7.6371,7.6371,7.6371,7.6371,7.6546,7.6617,7.7354,7.9074,8.132,8.3047,8.4947,8.6352,8.7626,8.8198,8.8669,8.8769,8.8869,8.9265,8.9461,8.9655,8.9655,8.9785,8.9785,8.9785,8.9785,8.9785,8.9785,8.9785,8.9785,8.9785,8.9785,8.9785,8.9785,8.9785,8.9689,8.9592,8.9461,8.9461,8.9689,8.9363,8.8969,4.2619,4.4565,4.5355,4.662,4.7943,4.7845,4.778,4.7617,4.7133,4.6834,4.6796,4.687,4.7546,4.8826,5.0266,5.1767,5.2975,5.4171,5.5252,5.5166,5.4923,5.48,5.4496,5.4108,5.3708,5.3625,5.3336,5.3126,5.3065,5.275,5.2431,5.1949,5.115,5.0133,4.996,5.066,5.1953,5.2553,5.3788,5.5138,5.576,5.585,5.5787,5.5695,5.5695,5.5665,5.5572,5.5819,5.6886,5.8258,6.0551,6.2701,6.4429,6.6482,6.7589,6.7838,6.7838,6.7838,6.7838,6.7838,6.7838,6.8547,6.9931,7.1444,7.2282,7.4439,7.563,7.6177,7.6338,7.6371,7.6371,7.6371,7.6371,7.6371,7.6371,7.6371,7.6371,7.6371,7.6474,7.6546,7.6822,7.8414,7.9867,8.152,8.338,8.4947,8.6116,8.6786,8.8264,8.8466,8.8669,8.9068,8.9265,8.9461,8.9558,8.9558,8.9558,8.9785,8.9785,8.9785,8.9785,8.9785,8.9785,8.9785,8.9785,8.9785,8.9785,8.9785,8.9689,8.9495,8.9397,8.9397,8.9495,8.9265,8.8969,4.1699,4.4336,4.4216,4.505,4.6546,4.7414,4.7675,4.7411,4.6914,4.6605,4.6566,4.6605,4.6899,4.7727,4.9799,5.1095,5.2077,5.4116,5.5279,5.5096,5.4906,5.4765,5.4441,5.3995,5.3591,5.3649,5.3268,5.2908,5.297,5.2401,5.2078,5.162,5.0806,4.999,4.9498,5.0489,5.1542,5.2492,5.3666,5.4693,5.5364,5.5572,5.5479,5.5385,5.5291,5.5291,5.5197,5.5355,5.5805,5.7198,5.9428,6.1479,6.342,6.5566,6.7182,6.7746,6.7838,6.7838,6.7838,6.7838,6.7838,6.8128,6.9352,7.0897,7.2121,7.3505,7.4954,7.6274,7.6371,7.6371,7.6371,7.6371,7.6371,7.6371,7.6371,7.6371,7.6371,7.6371,7.6371,7.6442,7.6854,7.7391,7.8676,7.9896,8.1817,8.3445,8.4442,8.5979,8.7689,8.8263,8.8466,8.8669,8.8969,8.9167,8.9461,8.9461,8.9461,8.9689,8.9785,8.9751,8.9751,8.9785,8.9785,8.9785,8.9785,8.9785,8.9785,8.9785,8.9689,8.9495,8.9397,8.9397,8.9299,8.9201,8.8969,4.0972,4.2768,4.3751,4.4955,4.6268,4.7297,4.7581,4.7346,4.6763,4.6566,4.6605,4.6451,4.6605,4.7293,4.8872,4.9983,5.1617,5.3141,5.4213,5.4714,5.48,5.455,5.4164,5.3765,5.3448,5.3295,5.2869,5.2431,5.2368,5.1818,5.142,5.0875,5.0173,4.9772,4.9424,4.9773,5.0439,5.1615,5.2688,5.3543,5.5238,5.5385,5.5291,5.5197,5.5009,5.5009,5.5133,5.4878,5.5146,5.6334,5.8362,6.0377,6.235,6.4459,6.6707,6.7372,6.7653,6.7838,6.7838,6.7838,6.7838,6.7967,6.9126,7.0479,7.2024,7.3473,7.4664,7.5984,7.6306,7.6371,7.6371,7.6371,7.6371,7.6371,7.6371,7.6371,7.6371,7.6371,7.6371,7.6371,7.6442,7.6816,7.7708,7.8209,8.0019,8.1597,8.3355,8.5523,8.7103,8.785,8.8057,8.8365,8.8669,8.8969,8.9299,8.9363,8.9363,8.9558,8.9655,8.9655,8.9751,8.9785,8.9785,8.9785,8.9785,8.9689,8.9785,8.9751,8.9689,8.9495,8.9592,8.9689,8.9495,8.9299,8.9068,4.0643,4.2003,4.2817,4.3907,4.52,4.6261,4.6904,4.7098,4.6763,4.6605,4.6481,4.6451,4.6644,4.7297,4.827,4.9665,5.1211,5.259,5.3699,5.4401,5.4639,5.4276,5.3938,5.3591,5.3328,5.2931,5.2461,5.2078,5.1752,5.1285,5.0769,5.0205,4.9699,4.9436,4.9212,4.928,5.0219,5.1296,5.2035,5.3068,5.4692,5.5227,5.5227,5.5227,5.5009,5.5009,5.4944,5.4532,5.4436,5.5347,5.7711,5.9104,6.0414,6.3671,6.571,6.6674,6.6961,6.734,6.7653,6.7838,6.7838,6.8064,6.8643,6.9706,7.1026,7.2571,7.402,7.5244,7.592,7.6338,7.6371,7.6371,7.6371,7.6371,7.6371,7.6371,7.6371,7.6371,7.6371,7.6371,7.6371,7.6371,7.6546,7.6719,7.8378,8.0137,8.2754,8.5017,8.6409,8.7291,8.7641,8.7953,8.8466,8.8769,8.9201,8.9167,8.9265,8.9461,8.962,8.9655,8.9785,8.9785,8.9785,8.9785,8.9785,8.9785,8.9751,8.9751,8.9655,8.9592,8.9592,8.9689,8.9592,8.9397,8.9201,4.0503,4.1801,4.1646,4.2313,4.3526,4.4716,4.5902,4.6878,4.6837,4.6601,4.6401,4.6561,4.6796,4.7154,4.8022,4.9297,5.0941,5.2155,5.3307,5.4032,5.4365,5.4142,5.3708,5.3354,5.3053,5.2558,5.1949,5.1554,5.1218,5.0769,5.0237,4.9793,4.951,4.9287,4.9137,4.8897,4.9612,5.0597,5.1501,5.2713,5.4542,5.5197,5.5227,5.5197,5.5103,5.5009,5.4789,5.4214,5.405,5.4205,5.6755,5.8491,5.9648,6.2676,6.4978,6.6059,6.6481,6.7151,6.7653,6.7838,6.7838,6.7838,6.8096,6.8772,7.0221,7.1412,7.2732,7.4278,7.5276,7.592,7.6274,7.6371,7.6371,7.6371,7.6371,7.6371,7.6371,7.6371,7.6371,7.6371,7.6371,7.6371,7.6546,7.6546,7.7877,7.9106,8.151,8.268,8.4267,8.6166,8.6665,8.7541,8.8059,8.8466,8.8903,8.9068,8.9034,8.9133,8.9329,8.9558,8.9785,8.9785,8.9785,8.9785,8.9785,8.9751,8.9751,8.9751,8.9655,8.9558,8.9461,8.9329,8.9231,8.9167,8.9167,3.9737,3.9991,4.0846,4.1963,4.3273,4.4475,4.5664,4.6766,4.6722,4.6605,4.6526,4.6683,4.6722,4.6707,4.6853,4.8255,5.0405,5.0811,5.2321,5.3771,5.4365,5.412,5.3591,5.3053,5.2745,5.2495,5.1554,5.0977,5.063,5.0237,4.9803,4.951,4.9287,4.9137,4.888,4.8668,4.8573,4.9595,5.0632,5.2654,5.4689,5.5009,5.5103,5.5009,5.4819,5.4658,5.4466,5.3855,5.363,5.4165,5.6379,5.7903,5.8906,6.1837,6.4429,6.5465,6.6255,6.6961,6.756,6.7838,6.7838,6.7838,6.7967,6.8386,6.9706,7.0221,7.1348,7.3763,7.4632,7.5372,7.6049,7.641,7.6442,7.6371,7.6371,7.6371,7.6371,7.6371,7.6371,7.6371,7.6371,7.6371,7.6371,7.6371,7.7014,7.8206,7.9268,8.0253,8.226,8.4536,8.5575,8.7065,8.7512,8.7883,8.816,8.8433,8.8702,8.8802,8.9,8.9329,8.9558,8.9751,8.9785,8.9785,8.9785,8.9751,8.9524,8.962,8.962,8.9427,8.9329,8.9099,8.9,8.9,8.8935,3.9514,3.9346,3.9881,4.0887,4.2225,4.3432,4.4626,4.5769,4.6476,4.6644,4.6605,4.6834,4.6796,4.6491,4.6166,4.7535,4.9632,5.0158,5.1579,5.3671,5.3938,5.3649,5.3201,5.265,5.2078,5.1653,5.0977,5.045,4.9949,4.9615,4.9467,4.9318,4.9137,4.8911,4.8728,4.8375,4.8172,4.8645,5.021,5.2594,5.4479,5.5009,5.4979,5.5103,5.4819,5.4532,5.4147,5.3659,5.3363,5.3768,5.5867,5.7486,5.8624,6.1045,6.393,6.4828,6.58,6.6611,6.7372,6.7746,6.7838,6.7838,6.7935,6.8225,6.8901,6.9641,7.0929,7.241,7.3473,7.4535,7.5276,7.5984,7.621,7.6371,7.6371,7.6371,7.6371,7.6371,7.6371,7.6371,7.6371,7.6371,7.6371,7.6435,7.6918,7.7916,7.8742,7.9391,8.0914,8.2472,8.3818,8.5708,8.6376,8.7191,8.7508,8.8023,8.8298,8.8501,8.8702,8.9034,8.9427,8.9655,8.9655,8.9785,8.9655,8.9461,8.9329,8.9427,8.9524,8.9427,8.9197,8.9099,8.9,8.8901,8.8635,3.9499,3.918,3.8937,3.9609,4.0922,4.2131,4.3337,4.4736,4.623,4.676,4.6605,4.687,4.6796,4.6526,4.616,4.7493,4.9166,4.9893,5.1142,5.3276,5.3473,5.3174,5.2712,5.2045,5.1454,5.0977,5.0591,4.9949,4.9467,4.9318,4.9168,4.9062,4.888,4.8728,4.8529,4.8142,4.8107,4.8393,5.0246,5.2504,5.4263,5.467,5.4789,5.4914,5.4819,5.4407,5.3923,5.3462,5.3065,5.3195,5.51,5.6516,5.7392,5.9686,6.2039,6.3673,6.4705,6.544,6.6738,6.756,6.7838,6.7838,6.7838,6.7838,6.8257,6.8997,6.9674,6.9996,7.2024,7.3602,7.4503,7.5405,7.6016,7.6242,7.6371,7.6371,7.6371,7.6371,7.6371,7.6371,7.6371,7.6371,7.6371,7.6499,7.6725,7.7456,7.8045,7.8609,7.9331,7.989,8.1001,8.3158,8.4267,8.6104,8.686,8.7645,8.799,8.8195,8.8501,8.8836,8.9034,8.9231,8.9461,8.9363,8.9427,8.9231,8.9034,8.9034,8.9329,8.9133,8.8601,8.8601,8.8836,8.8534,8.8126,3.9271,3.8936,3.8569,3.9232,4.0609,4.1847,4.3202,4.4521,4.6196,4.6757,4.6411,4.6491,4.6491,4.6289,4.6254,4.7015,4.9062,4.9411,5.0786,5.2669,5.3053,5.2807,5.2174,5.1454,5.0843,5.045,4.9949,4.9362,4.9168,4.9137,4.9062,4.888,4.8728,4.8529,4.825,4.7907,4.8565,4.9194,5.0702,5.1759,5.297,5.3722,5.4311,5.4532,5.434,5.3923,5.3531,5.3136,5.2865,5.3092,5.4166,5.5768,5.7123,5.8914,6.082,6.254,6.3778,6.4969,6.6255,6.7246,6.7746,6.7838,6.7838,6.7838,6.7999,6.8257,6.8804,6.977,7.0897,7.1766,7.3569,7.4503,7.5211,7.5888,7.6242,7.6371,7.6371,7.6371,7.6371,7.6371,7.6371,7.6371,7.6371,7.6467,7.6363,7.6996,7.6741,7.7336,7.7628,7.7914,7.8787,8.0827,8.2757,8.4656,8.6145,8.6904,8.7607,8.7816,8.8126,8.8534,8.8735,8.8836,8.8735,8.8735,8.8735,8.8735,8.8534,8.8534,8.8735,8.8635,8.8023,8.7816,8.7816,8.7745,8.7536,3.918,3.8873,3.852,3.8793,3.9684,4.1559,4.2741,4.3489,4.5801,4.6644,4.633,4.6371,4.6371,4.6118,4.581,4.694,4.8534,4.9179,5.0504,5.2116,5.2431,5.2014,5.1554,5.0565,5.0173,4.9772,4.9287,4.8911,4.8911,4.8911,4.8835,4.8683,4.8529,4.8298,4.7985,4.7779,4.8313,4.9381,5.0676,5.167,5.2519,5.4006,5.4539,5.4532,5.4214,5.3728,5.3334,5.3036,5.2764,5.2689,5.3966,5.5272,5.641,5.766,5.9076,6.1527,6.2856,6.412,6.5502,6.6738,6.7527,6.7746,6.7838,6.7838,6.7838,6.7871,6.816,6.8901,6.9384,7.064,7.2153,7.3505,7.4471,7.5308,7.5952,7.6274,7.6371,7.6371,7.6371,7.6371,7.6371,7.6371,7.6371,7.6338,7.6097,7.5855,7.5675,7.58,7.6123,7.6518,7.7131,7.8903,8.0312,8.2599,8.481,8.6012,8.7111,8.743,8.7745,8.816,8.8331,8.8534,8.8433,8.8126,8.8023,8.7953,8.7953,8.8023,8.8023,8.8023,8.7745,8.743,8.7251,8.7037,8.7037,3.9123,3.879,3.8539,3.8376,3.8707,4.1307,4.2244,4.2389,4.533,4.6406,4.5991,4.616,4.6076,4.5819,4.5589,4.6349,4.7542,4.8551,4.9906,5.1682,5.1752,5.1218,5.0806,4.9958,4.933,4.9031,4.8652,4.8422,4.8452,4.8483,4.8529,4.8452,4.822,4.8064,4.7828,4.776,4.8181,4.9837,5.077,5.1908,5.2877,5.4125,5.4819,5.4407,5.402,5.363,5.3235,5.2936,5.2635,5.2344,5.3634,5.4862,5.5925,5.6215,5.7994,6.0441,6.2129,6.3358,6.4634,6.6028,6.7056,6.7434,6.7434,6.7466,6.7653,6.7685,6.7717,6.8196,6.8933,6.9738,6.9996,7.2282,7.373,7.4632,7.5437,7.6338,7.6371,7.6371,7.6371,7.6371,7.6371,7.6371,7.6338,7.6202,7.5992,7.5749,7.5431,7.5394,7.5429,7.5602,7.6055,7.7104,7.8312,8.0804,8.3032,8.4515,8.6054,8.6178,8.7203,8.7586,8.7957,8.8093,8.792,8.7641,8.7463,8.7291,8.7502,8.7607,8.7641,8.7463,8.7463,8.7357,8.7037,8.6854,8.6854,3.8992,3.8533,3.8417,3.8164,3.8431,4.1017,4.2106,4.2246,4.4952,4.5998,4.5633,4.5499,4.5419,4.513,4.4858,4.4702,4.5508,4.6766,4.9027,5.0925,5.1045,5.0667,5.0173,4.9521,4.8956,4.8111,4.7955,4.7955,4.7955,4.7955,4.8142,4.8375,4.7798,4.7639,4.7719,4.757,4.8459,5.0441,5.1099,5.1967,5.3794,5.423,5.434,5.402,5.3659,5.3264,5.2936,5.2664,5.2462,5.249,5.2689,5.3893,5.5261,5.6111,5.7435,5.9828,6.1321,6.2522,6.3643,6.5031,6.6189,6.6449,6.6384,6.6577,6.6961,6.7056,6.7246,6.7688,6.8128,6.874,6.9899,7.1509,7.2861,7.4117,7.5469,7.6345,7.6371,7.6371,7.6371,7.6371,7.6371,7.6371,7.6338,7.6202,7.5887,7.5537,7.5248,7.4987,7.4909,7.4972,7.5285,7.6099,7.7168,7.9258,8.042,8.1727,8.3991,8.4949,8.6638,8.7112,8.7616,8.7112,8.6401,8.6442,8.6599,8.6764,8.6698,8.7045,8.7144,8.6962,8.6854,8.6962,8.6962,8.6746,8.6746,3.8799,3.8464,3.8169,3.7939,3.8186,4.0786,4.1859,4.2161,4.4669,4.5697,4.5362,4.5223,4.5049,4.4892,4.465,4.4368,4.4699,4.6426,4.8554,5.0121,5.0347,5.0102,4.9594,4.9,4.8499,4.7925,4.7639,4.748,4.748,4.756,4.7639,4.7828,4.7669,4.743,4.748,4.751,4.8818,5.0653,5.1103,5.2145,5.3994,5.4436,5.4214,5.3923,5.3433,5.3065,5.2764,5.2591,5.2389,5.2287,5.2315,5.3137,5.461,5.5035,5.6253,5.8263,5.9842,6.1144,6.2767,6.4078,6.5062,6.5795,6.5795,6.5992,6.609,6.6384,6.677,6.7151,6.7498,6.7939,6.8804,7.0157,7.1541,7.299,7.4374,7.5566,7.6177,7.6371,7.6371,7.6371,7.6371,7.6371,7.6234,7.6097,7.5781,7.5462,7.5172,7.4955,7.4737,7.4846,7.4955,7.5253,7.615,7.7017,7.8045,7.9516,8.1798,8.3276,8.4856,8.576,8.6097,8.5457,8.4712,8.4778,8.4803,8.5124,8.5913,8.6472,8.6746,8.6746,8.6746,8.6637,8.6637,8.6746,8.6637,3.8469,3.8332,3.7931,3.7828,3.8366,4.0622,4.174,4.1944,4.4499,4.5328,4.5036,4.4892,4.4747,4.46,4.4301,4.4298,4.4541,4.6216,4.8103,4.9774,4.9624,4.9552,4.9,4.8236,4.7798,4.756,4.7239,4.7078,4.7078,4.7078,4.7159,4.7269,4.7159,4.7159,4.7239,4.7359,4.8503,5.0596,5.1073,5.2234,5.3935,5.4436,5.4244,5.3826,5.3433,5.2965,5.2591,5.2389,5.2287,5.2185,5.2139,5.2722,5.3902,5.4107,5.5243,5.7272,5.8567,5.9883,6.1754,6.2946,6.3899,6.4655,6.4685,6.4992,6.5062,6.5434,6.5862,6.6481,6.6834,6.7183,6.7722,6.8969,7.0254,7.1538,7.318,7.4787,7.588,7.6338,7.6371,7.6371,7.6371,7.6338,7.6202,7.5887,7.5675,7.5355,7.514,7.4846,7.4846,7.4846,7.4846,7.4878,7.5616,7.6023,7.6749,7.7456,7.9225,8.0633,8.25,8.3736,8.3564,8.3163,8.2999,8.2967,8.3072,8.39,8.4828,8.5453,8.6143,8.6472,8.6637,8.6637,8.6637,8.6637,8.6637,3.8039,3.7771,3.7483,3.8091,3.9283,4.0574,4.1839,4.3089,4.4342,4.4762,4.4551,4.4199,4.4097,4.3837,4.3625,4.3769,4.451,4.591,4.7095,4.8084,4.8956,4.9106,4.8391,4.748,4.6997,4.6834,4.6782,4.67,4.667,4.667,4.6864,4.6916,4.6476,4.6559,4.6916,4.6893,4.8371,5.0596,5.0985,5.2052,5.3964,5.434,5.405,5.3531,5.3264,5.2893,5.2591,5.2287,5.2185,5.2083,5.2083,5.2647,5.3578,5.3832,5.5045,5.6878,5.789,5.9047,6.0789,6.1829,6.2574,6.2976,6.3083,6.319,6.3899,6.4181,6.4624,6.5664,6.5795,6.6189,6.6832,6.8266,6.9222,7.018,7.2465,7.4357,7.5366,7.5992,7.6371,7.6371,7.6371,7.6234,7.596,7.5644,7.5323,7.5172,7.4923,7.4737,7.4737,7.4737,7.4737,7.4768,7.4909,7.505,7.5394,7.5705,7.706,7.826,8.0108,8.1111,8.0938,8.0614,8.0819,8.1153,8.1399,8.2027,8.3196,8.4262,8.5223,8.565,8.5838,8.6275,8.6637,8.6495,8.6495,3.7512,3.7349,3.6991,3.7672,3.903,4.0293,4.1531,4.2858,4.4034,4.4551,4.4351,4.4027,4.3818,4.3679,4.316,4.3493,4.456,4.5661,4.6602,4.7575,4.881,4.8925,4.8081,4.7159,4.6618,4.6618,4.634,4.6257,4.6228,4.6145,4.6311,4.6364,4.6228,4.6199,4.6476,4.6232,4.7517,5.0011,5.0302,5.1505,5.4104,5.405,5.3659,5.3531,5.2965,5.2793,5.249,5.2287,5.2083,5.2083,5.2083,5.228,5.2788,5.2845,5.3635,5.5271,5.6366,5.7716,5.9277,6.0871,6.1637,6.1998,6.2436,6.2653,6.2868,6.316,6.3449,6.4419,6.4757,6.5264,6.5987,6.679,6.8059,6.9454,7.112,7.2041,7.2341,7.4822,7.621,7.6338,7.6202,7.596,7.5855,7.5462,7.5172,7.5063,7.4737,7.4627,7.4627,7.4627,7.4627,7.4659,7.4659,7.4768,7.4972,7.5004,7.5855,7.6232,7.7623,7.8257,7.786,7.7252,7.7639,7.8321,7.9203,8.0063,8.0902,8.1904,8.3327,8.4483,8.4876,8.5303,8.6057,8.6242,8.6242,3.7019,3.6829,3.6558,3.7415,3.9054,4.0024,4.1347,4.2893,4.3963,4.4199,4.3993,4.3625,4.3378,4.3389,4.3184,4.3718,4.4956,4.6008,4.6967,4.7934,4.8807,4.859,4.7846,4.6916,4.6423,4.634,4.6061,4.5864,4.5864,4.5809,4.5809,4.5864,4.578,4.5725,4.5725,4.5527,4.6884,4.9025,4.9217,5.0796,5.3262,5.3433,5.3334,5.3305,5.2793,5.249,5.2389,5.2185,5.2083,5.2083,5.2083,5.2083,5.2139,5.2168,5.276,5.4058,5.513,5.6536,5.8201,5.9824,6.0967,6.1362,6.1696,6.2027,6.1976,6.2386,6.2761,6.316,6.3659,6.4285,6.4859,6.5023,6.607,6.8284,6.8742,6.9396,7.0668,7.3417,7.5749,7.5749,7.5749,7.5675,7.5569,7.528,7.5063,7.4955,7.4737,7.4627,7.4627,7.4627,7.4548,7.4548,7.4407,7.4407,7.4407,7.4296,7.4501,7.4879,7.5572,7.6503,7.5887,7.5665,7.594,7.5823,7.72,7.8292,7.8967,7.9642,8.1504,8.3122,8.3678,8.4354,8.5106,8.6021,8.5988,3.6417,3.62,3.6155,3.7689,4.0027,4.0117,4.1502,4.3679,4.3889,4.3625,4.3356,4.2938,4.2738,4.2859,4.3475,4.4386,4.5813,4.684,4.7952,4.8726,4.8529,4.8003,4.737,4.6559,4.6061,4.5977,4.5864,4.5864,4.578,4.5556,4.5471,4.5641,4.51,4.4841,4.5129,4.5043,4.5914,4.7916,4.9003,5.0295,5.202,5.295,5.3206,5.2563,5.249,5.2287,5.2185,5.2055,5.1952,5.2083,5.2083,5.2083,5.2083,5.2083,5.2563,5.3663,5.5017,5.6256,5.7556,5.9087,6.0114,6.06,6.0941,6.1054,6.1308,6.1643,6.2086,6.2465,6.2682,6.3083,6.3554,6.3479,6.3569,6.4504,6.528,6.6887,6.9388,7.2178,7.3544,7.4046,7.4937,7.5292,7.4842,7.5,7.4846,7.4737,7.4627,7.4627,7.4627,7.4548,7.4548,7.4327,7.4185,7.4185,7.4296,7.4185,7.4216,7.4658,7.5319,7.5414,7.5036,7.554,7.5982,7.5412,7.5616,7.6449,7.708,7.7508,7.8698,8.0787,8.2312,8.331,8.4221,8.5374,8.5765,3.5859,3.5694,3.5648,3.7338,3.9816,3.9736,4.1206,4.3532,4.3659,4.3323,4.2994,4.2681,4.2511,4.2661,4.3428,4.4448,4.5737,4.6947,4.8081,4.8801,4.8267,4.7719,4.7239,4.6588,4.6257,4.5948,4.5864,4.5696,4.5471,4.53,4.5129,4.4928,4.4434,4.4286,4.4374,4.3809,4.4706,4.694,4.7549,4.8942,5.0972,5.1663,5.1868,5.1896,5.1691,5.1822,5.2055,5.154,5.154,5.1952,5.2083,5.2083,5.2083,5.2083,5.2252,5.2901,5.3917,5.5158,5.6482,5.8063,5.9342,6.0,6.06,6.0828,6.0856,6.1054,6.1195,6.1391,6.1725,6.2306,6.2682,6.279,6.2544,6.2188,6.2164,6.3328,6.608,6.882,7.0313,7.0997,7.2043,7.2605,7.3199,7.3685,7.4768,7.4627,7.4627,7.4627,7.4627,7.4517,7.4438,7.4327,7.3962,7.3962,7.4074,7.4185,7.4185,7.4467,7.4891,7.4672,7.4404,7.503,7.5249,7.4626,7.4375,7.5162,7.5556,7.5808,7.6583,7.8344,8.0322,8.1764,8.3372,8.447,8.5054,3.5265,3.5275,3.57,3.7302,3.9404,3.9861,4.1172,4.3203,4.3302,4.3049,4.2625,4.2454,4.257,4.2943,4.3816,4.4915,4.6126,4.7188,4.7939,4.8299,4.7798,4.7239,4.6997,4.6588,4.6228,4.5864,4.5809,4.5471,4.4956,4.4811,4.4609,4.423,4.3815,4.3574,4.3574,4.2995,4.3639,4.5953,4.6305,4.77,5.0032,5.0384,5.0622,5.0909,5.0777,5.0777,5.1173,5.086,5.0965,5.1512,5.1747,5.185,5.2037,5.2393,5.245,5.228,5.3212,5.434,5.5351,5.7097,5.8574,5.9286,6.0057,6.0458,6.0515,6.0629,6.06,6.0629,6.1083,6.1532,6.1725,6.2027,6.1777,6.0912,6.0486,6.149,6.3799,6.5391,6.6815,6.7997,6.998,7.1195,7.2005,7.3434,7.4517,7.4517,7.4548,7.4438,7.4296,7.4185,7.4105,7.3993,7.3737,7.3511,7.3624,7.3737,7.3737,7.4118,7.4211,7.3974,7.3912,7.4161,7.4099,7.385,7.3737,7.3943,7.4105,7.4735,7.5774,7.7308,7.8717,8.0414,8.2187,8.3185,8.3827,3.488,3.5079,3.6348,3.7689,3.9223,4.0277,4.1577,4.2654,4.2761,4.2568,4.2197,4.2053,4.2635,4.3689,4.4597,4.5994,4.7188,4.7851,4.8067,4.7846,4.7108,4.67,4.6618,4.6145,4.5894,4.5696,4.5471,4.487,4.4142,4.3815,4.3726,4.3609,4.3095,4.2849,4.2731,4.2747,4.3162,4.4417,4.5578,4.6931,4.848,4.9262,4.9718,4.988,4.9396,4.9262,4.9396,4.988,5.0227,5.0439,5.0887,5.1249,5.1736,5.2785,5.322,5.2487,5.3183,5.3698,5.4092,5.6089,5.747,5.8292,5.9201,5.9913,6.0257,6.0429,6.0401,6.0429,6.0743,6.0912,6.0912,6.0656,6.0543,6.0685,6.0572,6.0917,6.1952,6.2295,6.3512,6.6474,6.8674,7.0961,7.2377,7.3252,7.3997,7.4091,7.4185,7.4074,7.385,7.3737,7.3624,7.3398,7.3284,7.3284,7.3315,7.3315,7.3511,7.3624,7.3511,7.3511,7.3542,7.3398,7.3398,7.3398,7.3284,7.3284,7.348,7.3604,7.4784,7.6042,7.7251,7.8714,8.0369,8.1746,8.2396,3.4158,3.434,3.5496,3.6968,3.8545,3.9624,4.0963,4.2274,4.2255,4.208,4.1811,4.1783,4.2423,4.3625,4.4782,4.6386,4.8243,4.8053,4.7876,4.7719,4.7027,4.6506,4.6145,4.5977,4.5612,4.5014,4.4956,4.4522,4.3547,4.3394,4.3095,4.2795,4.2455,4.227,4.2204,4.1898,4.2163,4.3182,4.4349,4.5342,4.6208,4.7254,4.8112,4.8469,4.722,4.6605,4.7255,4.7865,4.8663,4.9638,5.0093,5.0928,5.2071,5.2676,5.2812,5.2742,5.2483,5.2616,5.3542,5.4515,5.5835,5.7528,5.8093,5.8715,5.9711,5.994,5.994,5.994,6.0257,6.0486,6.0343,5.997,5.9767,5.9883,5.9883,6.0082,6.0568,6.0625,6.1315,6.2616,6.4622,6.6288,6.7796,7.0285,7.1915,7.3129,7.3562,7.385,7.3737,7.3511,7.3398,7.3315,7.317,7.3086,7.32,7.32,7.317,7.317,7.32,7.32,7.3086,7.3086,7.3086,7.3055,7.3055,7.3086,7.2971,7.2971,7.3795,7.5077,7.624,7.7382,7.8779,8.0144,8.0735,3.3369,3.3528,3.5351,3.6724,3.8051,3.9599,4.0899,4.193,4.1875,4.1755,4.1603,4.1543,4.246,4.4186,4.4832,4.628,4.813,4.7876,4.737,4.7048,4.6506,4.6007,4.5612,4.5442,4.4985,4.4581,4.4522,4.3993,4.2913,4.2758,4.2482,4.2084,4.1925,4.1804,4.1737,4.1428,4.1647,4.2593,4.345,4.4238,4.5033,4.5898,4.6478,4.682,4.5442,4.4952,4.5715,4.6428,4.7169,4.8254,4.8772,5.0065,5.2157,5.2243,5.2354,5.2923,5.2468,5.2267,5.2658,5.3318,5.4407,5.5897,5.6542,5.7415,5.8488,5.8913,5.9198,5.945,5.9912,6.0027,5.9883,5.9651,5.9563,5.9563,5.9535,5.9563,5.968,5.9796,5.968,5.9966,6.1287,6.3343,6.5534,6.7583,6.9639,7.097,7.1767,7.2386,7.2694,7.3055,7.317,7.3055,7.294,7.2971,7.32,7.2971,7.2856,7.2856,7.2856,7.2971,7.2971,7.2971,7.2971,7.2971,7.2971,7.2971,7.2971,7.2917,7.347,7.4626,7.4971,7.6259,7.7739,7.8262,7.894,3.2535,3.3008,3.5562,3.6874,3.766,3.9987,4.1237,4.145,4.136,4.1421,4.145,4.1269,4.2645,4.5081,4.4832,4.5681,4.7307,4.721,4.6723,4.5977,4.5471,4.5214,4.5243,4.4755,4.4493,4.4318,4.411,4.3394,4.2482,4.2084,4.1804,4.1643,4.1643,4.1617,4.1549,4.136,4.1621,4.2313,4.3064,4.3654,4.4493,4.5079,4.5142,4.4649,4.42,4.4319,4.4859,4.5393,4.592,4.6149,4.6856,4.8766,5.1881,5.1753,5.1829,5.2819,5.2926,5.2371,5.1485,5.2468,5.3407,5.3687,5.4885,5.6202,5.7218,5.7669,5.8149,5.9221,5.9309,5.9337,5.9193,5.9422,5.9563,5.9563,5.9563,5.9563,5.9563,5.9563,5.9563,5.9705,6.0468,6.1907,6.436,6.5998,6.7143,6.8215,6.9246,7.0192,7.1076,7.2116,7.2587,7.2733,7.2856,7.2856,7.2971,7.2856,7.2856,7.2856,7.2856,7.2971,7.2856,7.2856,7.2971,7.2971,7.2856,7.2856,7.2856,7.3101,7.3531,7.39,7.4361,7.5036,7.6419,7.6634,7.7279,3.1656,3.1723,3.2762,3.453,3.6701,3.8971,4.0098,4.0326,4.0515,4.0548,4.0487,4.0677,4.2256,4.4439,4.4293,4.5315,4.7,4.6559,4.5977,4.55,4.4956,4.4609,4.4374,4.4434,4.4142,4.3637,4.3574,4.3186,4.2363,4.1898,4.1737,4.1617,4.1617,4.1617,4.1523,4.117,4.0943,4.1188,4.2423,4.2874,4.2853,4.3819,4.42,4.3605,4.3485,4.3485,4.3581,4.4295,4.4835,4.5228,4.588,4.734,4.9649,5.0947,5.1702,5.205,5.2123,5.1644,5.0654,5.1163,5.1983,5.3002,5.3472,5.4471,5.5758,5.6711,5.7498,5.7922,5.7864,5.7864,5.7948,5.8767,5.939,5.9563,5.9563,5.9563,5.9563,5.9563,5.9563,5.9563,5.9814,6.0331,6.117,6.2763,6.4537,6.5798,6.7087,6.8288,6.9431,7.0435,7.1377,7.2263,7.2679,7.2794,7.2856,7.2733,7.2856,7.2856,7.2763,7.2733,7.2856,7.2825,7.2825,7.2825,7.2856,7.2856,7.2856,7.2856,7.3132,7.3316,7.3439,7.3838,7.5128,7.5313,7.5958,3.0845,3.0929,3.1341,3.3141,3.5903,3.8199,3.9371,3.9608,3.9867,3.9902,4.0063,4.0514,4.1942,4.4089,4.4364,4.5188,4.6335,4.6061,4.5471,4.4724,4.4462,4.4198,4.396,4.3815,4.3547,4.3032,4.3005,4.2758,4.2297,4.1925,4.1737,4.1643,4.1334,4.1334,4.1549,4.0858,4.0571,4.0648,4.204,4.2403,4.189,4.3214,4.3748,4.3004,4.2884,4.2907,4.2763,4.3148,4.3581,4.4129,4.4531,4.57,4.7949,4.9174,5.0238,5.1153,5.0864,5.0267,4.9665,5.012,5.0846,5.1746,5.1936,5.2676,5.4197,5.495,5.5507,5.5563,5.587,5.612,5.6458,5.7695,5.8541,5.8741,5.9136,5.9563,5.9563,5.9563,5.9563,5.9563,5.9563,5.9563,5.9677,6.0654,6.1919,6.3336,6.4597,6.5707,6.7153,6.889,7.0071,7.0824,7.0727,7.0811,7.1384,7.1621,7.1851,7.1996,7.2026,7.2026,7.1965,7.2026,7.2272,7.2825,7.2825,7.2856,7.2825,7.2856,7.2856,7.2917,7.2917,7.304,7.3869,7.4023,7.4268,3.0057,3.0398,3.0681,3.2487,3.5264,3.7766,3.8965,3.9109,3.9304,3.9438,3.9625,4.0427,4.1746,4.3424,4.4667,4.5129,4.5357,4.5556,4.5043,4.3932,4.3871,4.3871,4.3781,4.3123,4.2731,4.2731,4.2574,4.2297,4.2018,4.2018,4.1925,4.1523,4.1075,4.1075,4.136,4.0571,4.0281,4.0744,4.1732,4.1849,4.1161,4.272,4.3179,4.2198,4.2198,4.2123,4.179,4.1927,4.2244,4.2725,4.2774,4.3986,4.6363,4.6943,4.8037,5.0127,4.9452,4.8822,4.8674,4.9287,4.9799,4.9907,5.0415,5.1199,5.227,5.2651,5.2651,5.2655,5.3536,5.4421,5.5088,5.6234,5.7104,5.7612,5.8572,5.9334,5.939,5.9563,5.9563,5.9563,5.9563,5.9563,5.9563,5.9648,6.0101,6.1238,6.2151,6.3198,6.4681,6.6797,6.8559,6.8383,6.7993,6.7843,6.8825,6.9616,6.9875,7.0358,7.0358,7.0501,7.0532,7.0706,7.1043,7.1934,7.2487,7.2579,7.2702,7.2856,7.2856,7.2856,7.2856,7.2886,7.2856,7.2978,7.304,2.9151,2.9332,2.9827,3.1664,3.4482,3.7236,3.8315,3.8216,3.8454,3.8344,3.8307,3.9828,4.1307,4.2693,4.3767,4.4677,4.5129,4.4637,4.4021,4.3304,4.3123,4.3032,4.2913,4.2666,4.2455,4.2455,4.2363,4.227,4.1991,4.2018,4.1804,4.1549,4.1101,4.091,4.1006,4.0378,3.999,3.9896,4.0034,3.9662,3.9149,4.0175,4.0352,3.9641,3.9802,3.9963,3.9963,3.9963,3.9963,4.0193,4.0284,4.107,4.2519,4.422,4.5995,4.7313,4.8006,4.8344,4.858,4.8549,4.8961,4.9557,4.9773,5.0069,5.0501,5.0475,5.0367,5.0394,5.1533,5.2517,5.3041,5.4422,5.5842,5.7132,5.7753,5.8375,5.9221,5.9563,5.9563,5.9563,5.9563,5.9563,5.9563,5.9563,5.956,5.9959,6.0398,6.1376,6.2731,6.4013,6.471,6.4712,6.556,6.6351,6.6763,6.6968,6.7344,6.814,6.8222,6.8506,6.9011,6.9262,6.9784,7.089,7.1258,7.1627,7.2579,7.2794,7.2794,7.2856,7.2856,7.2856,7.2856,7.2856,7.2856,2.7906,2.8763,2.9238,3.1087,3.378,3.5454,3.6728,3.765,3.7492,3.7174,3.7152,3.9325,4.085,4.1782,4.3463,4.4358,4.4637,4.4198,4.3692,4.3123,4.2849,4.2758,4.2731,4.2111,4.1804,4.1831,4.1711,4.1549,4.1428,4.1737,4.1737,4.1549,4.1075,4.0718,4.05,3.9672,3.9378,3.9453,3.9583,3.9433,3.8902,3.9699,3.9769,3.9025,3.9116,3.9139,3.9026,3.8844,3.8594,3.8342,3.8865,3.9365,3.9796,4.1297,4.2815,4.3971,4.4342,4.4916,4.5923,4.6245,4.7066,4.8553,4.8878,4.8748,4.8271,4.8724,4.9205,4.9341,4.9931,5.0663,5.1154,5.2656,5.4034,5.5145,5.6094,5.7134,5.8318,5.8572,5.8826,5.9334,5.9563,5.9563,5.9563,5.9563,5.9563,5.9535,5.9651,6.0111,6.091,6.1258,6.1258,6.1081,6.2153,6.3227,6.4042,6.4363,6.4798,6.5342,6.5938,6.6526,6.6887,6.7572,6.8293,6.9538,6.9876,7.0429,7.1627,7.1903,7.2241,7.2548,7.2856,7.2856,7.2856,7.2856,7.2856,2.6716,2.848,2.8697,3.0466,3.3103,3.3311,3.4924,3.7247,3.6596,3.6194,3.6249,3.8714,4.0065,4.0777,4.3054,4.4002,4.3843,4.3754,4.3485,4.3032,4.2758,4.2547,4.2455,4.1549,4.1075,4.1075,4.0788,4.0788,4.0884,4.1144,4.1428,4.1428,4.098,4.0398,3.964,3.876,3.8389,3.8835,3.9139,3.9154,3.8559,3.9323,3.9438,3.8614,3.8412,3.8345,3.8255,3.7916,3.7468,3.681,3.7555,3.7867,3.7542,3.8216,3.9124,4.0317,4.0293,4.0752,4.2088,4.3298,4.4763,4.662,4.7611,4.7354,4.5888,4.7254,4.8368,4.8477,4.8745,4.9125,4.9719,5.099,5.2245,5.3036,5.4225,5.5617,5.6908,5.7274,5.7922,5.8851,5.9306,5.9419,5.933,5.9302,5.9302,5.933,5.933,5.933,5.9325,5.8859,5.8531,5.8412,5.8859,5.9724,6.1016,6.1744,6.2213,6.2647,6.3416,6.3978,6.42,6.489,6.5978,6.7642,6.7886,6.8576,7.0021,7.0297,7.0704,7.192,7.2134,7.2433,7.2679,7.2348,7.2141,2.6195,2.7771,2.8056,2.9648,3.213,3.2335,3.3956,3.6661,0.0,0.0,0.0,3.7071,3.8481,3.996,4.1336,4.2433,4.3277,4.3005,4.2822,4.2455,4.2018,4.1737,4.1455,4.0641,4.0256,4.0281,4.0256,4.0378,4.0814,4.0474,4.0571,4.091,4.0474,3.9534,3.8225,3.753,3.6949,3.6409,3.5508,3.5071,3.4925,3.4929,3.4798,3.4559,3.5016,3.5471,3.5794,3.5794,3.5326,3.4469,3.4559,3.4684,3.4607,3.5073,3.6067,3.756,3.8403,3.9018,3.9298,4.1128,4.2475,4.2808,4.5419,4.6075,4.3722,4.576,4.6753,4.6021,4.7642,4.8606,4.8522,4.9419,5.0692,5.2327,5.2902,5.3674,5.5117,5.6146,5.6929,5.7291,5.8189,5.8949,5.8713,5.8831,5.8977,5.8741,5.8769,5.865,5.865,5.8357,5.7878,5.7784,5.7784,5.8053,5.8486,5.8781,5.9201,6.0253,6.0399,6.0544,6.117,6.1366,6.2115,6.4198,6.4518,6.545,6.7409,6.7853,6.8336,7.0125,7.0223,7.0465,7.1756,7.1011,6.9819,2.5685,0.0,2.7135,2.8879,0.0,3.1577,3.291,3.4915,3.4445,3.4182,3.4365,3.5731,3.7138,3.8473,3.9993,4.1352,4.2363,4.2482,4.2389,4.1991,4.1549,4.117,4.0858,3.999,3.9697,3.9697,3.9697,3.9893,4.0378,3.9893,4.0184,4.1144,4.0184,3.9144,3.83,3.7616,3.6488,3.493,3.4697,3.4514,3.4363,3.3912,3.3588,3.348,3.348,0.0,0.0,0.0,0.0,0.0,0.0,0.0,0.0,0.0,0.0,3.4353,3.4647,3.5012,3.5654,3.7198,3.8614,3.9362,4.1752,4.2426,4.0746,4.3338,4.5027,4.4787,4.5729,4.6388,4.6307,4.6573,4.7553,4.9289,4.9665,5.0719,5.282,5.3893,5.4751,5.5727,5.6953,5.7821,5.7615,5.8205,5.8595,5.8531,5.8531,5.8412,5.8265,5.7636,5.7272,5.7055,5.7055,5.7028,5.715,5.7245,5.7488,5.8062,5.8511,5.8927,5.9366,5.9771,6.0371,6.1461,6.1778,6.2556,6.4843,6.5313,6.5956,6.7897,6.8373,6.8614,6.9096,6.8507,6.7826,2.5144,2.6309,2.6389,2.808,3.0702,3.0559,3.15,3.3025,3.2589,3.2424,3.2688,3.4205,3.5644,3.6832,3.838,3.9827,4.1207,4.1672,4.1686,4.1455,4.1144,4.0763,4.0159,3.9403,3.9032,3.9008,3.9032,3.9206,3.977,3.9329,3.9697,4.0954,3.9697,3.8779,3.8047,0.0,0.0,0.0,3.4416,3.4569,3.4363,3.3653,3.3179,3.3004,3.2478,0.0,3.2609,3.254,3.2149,3.1242,3.231,0.0,0.0,0.0,0.0,0.0,0.0,0.0,0.0,0.0,0.0,0.0,3.6686,3.7254,3.7602,4.0049,4.212,4.3062,4.3525,4.3731,4.3629,4.3681,4.4353,4.5995,4.6414,4.7526,5.0338,5.1179,5.2107,5.3978,5.5248,5.602,5.6219,5.7187,5.7933,5.7906,5.8154,5.786,5.6979,5.6312,5.6065,5.6146,5.6307,5.644,5.644,5.644,5.6564,5.6564,5.7312,5.7768,5.7888,5.8664,5.9193,5.9453,5.9453,6.0198,6.2242,6.2675,6.3341,6.5698,6.6194,6.5876,6.5179,6.521,6.5648,2.4299,2.5757,2.6104,2.7409,2.9218,2.8596,2.9673,3.172,3.1816,3.1479,3.1041,3.2094,3.3576,3.5457,3.5695,3.7213,3.9566,3.9867,4.0324,4.0884,4.0667,4.0159,3.9403,3.8634,3.8208,3.8232,3.8055,3.8256,3.9032,3.8534,3.8509,3.8884,3.8709,3.7411,3.5306,3.5887,3.5431,3.3728,3.3016,3.2673,3.265,3.1747,3.1283,3.1171,3.1171,3.1525,3.232,3.2341,3.189,3.1116,3.1262,3.0603,2.8845,2.8796,2.8376,0.0,2.7406,0.0,0.0,0.0,0.0,0.0,0.0,0.0,0.0,3.5147,3.6457,3.8868,4.0468,4.1421,4.1324,4.1901,4.2758,4.3825,4.403,4.5004,4.7182,4.8509,4.9819,5.1526,5.2571,5.3582,5.4325,5.5132,5.5868,5.6186,5.6751,5.6282,5.4121,5.4032,5.4525,5.4213,5.5033,5.5554,5.5855,5.5935,5.6086,5.636,5.6376,5.629,5.628,5.6183,5.6457,5.7136,5.7379,5.785,5.9179,5.9409,6.0185,6.2763,6.2936,6.2123,6.0586,6.1305,6.2316,2.3991,2.4497,2.496,2.5408,2.5916,2.6573,2.7956,2.9798,3.0247,3.0392,3.0392,3.0213,3.0774,3.1969,3.3285,3.4972,3.667,3.7371,3.829,3.9148,3.8454,3.8219,3.8333,3.7929,3.7702,3.7828,3.775,3.803,3.8634,3.7726,3.744,3.7948,3.7741,3.607,3.3306,3.4293,3.4194,3.2728,3.2828,3.2672,3.23,3.0968,3.0294,3.0106,2.9842,2.9728,2.9936,3.0538,3.0496,3.0088,3.0124,2.9595,2.8079,2.7026,2.6055,0.0,0.0,0.0,0.0,0.0,0.0,0.0,0.0,0.0,0.0,0.0,3.3606,3.4877,3.6503,3.778,3.8459,3.8154,3.8502,4.0011,4.0391,4.1209,4.304,4.4772,4.6534,4.8019,4.9961,5.1256,5.1669,5.3356,5.4383,5.406,5.4518,5.4202,5.2704,5.2601,5.2759,5.2665,5.3085,5.3548,5.379,5.379,5.3911,5.4032,5.3911,5.379,5.3817,5.4293,5.4742,5.511,5.5739,5.651,5.7582,5.7702,5.82,5.9747,5.9292,5.8456,5.8539,5.9369,6.0,2.3215,2.291,2.2851,2.2689,2.2713,2.4389,2.5993,2.7433,2.8082,2.8653,2.9014,2.8159,2.7887,2.8277,3.0072,3.1771,3.3218,3.4237,3.5479,3.6678,3.6077,3.6173,3.691,3.6697,3.662,3.6733,3.6846,3.7124,3.726,3.6485,3.6307,3.6606,3.5688,3.3767,3.1274,3.2727,3.3176,3.2309,3.2875,3.2801,3.1969,3.0275,2.9273,2.9196,2.8605,2.8259,2.8374,2.91,2.935,2.9032,2.92,2.8495,2.705,2.5265,0.0,0.0,0.0,0.0,0.0,0.0,0.0,0.0,0.0,2.3326,2.591,0.0,3.0647,0.0,3.246,3.4138,3.582,3.4871,0.0,0.0,3.6378,3.7107,3.8712,4.0703,4.2592,4.4356,4.6802,4.853,4.8661,5.1072,5.2312,5.0872,5.0879,5.0906,5.0311,5.0386,5.0596,5.0505,5.0972,5.1428,5.16,5.1522,5.1455,5.164,5.193,5.2022,5.214,5.2878,5.3458,5.3511,5.4223,5.4918,5.5598,5.5773,5.6108,5.6678,5.5695,5.496,5.666,5.7089,5.738,2.1399,2.1043,1.9278,1.9251,2.0366,2.1865,2.3258,2.4629,2.5471,2.5941,2.6155,2.5464,2.5248,2.5428,2.5335,0.0,2.9056,3.0176,3.1671,3.3591,3.4214,3.4552,3.4648,3.4546,3.4303,3.3935,3.4569,3.4523,3.4031,3.4506,3.4529,3.4034,3.1553,2.9849,2.9024,3.1415,3.288,3.3123,3.3098,3.2567,3.1323,2.9008,2.7975,2.8241,2.7681,2.793,2.8985,2.91,2.9089,2.8764,2.846,2.7178,2.4935,0.0,0.0,0.0,0.0,0.0,0.0,0.0,0.0,0.0,0.0,0.0,0.0,0.0,0.0,0.0,2.8859,0.0,3.3508,3.322,0.0,0.0,0.0,3.3097,3.4839,3.6266,3.8191,4.1113,0.0,0.0,4.554,4.8092,4.8564,4.5105,4.5029,4.5238,4.5003,4.6356,4.7187,4.7162,4.9012,5.0339,4.9956,4.9646,4.9474,4.993,5.1231,5.1759,5.1876,5.2087,5.2192,5.2192,5.2351,5.2456,5.2522,5.2469,5.2522,5.256,5.2507,5.2337,5.2731,5.3459,5.422,1.8074,1.5461,1.5282,1.5474,1.609,1.8212,1.9785,2.0948,2.2112,2.2905,2.332,2.1796,2.1325,2.1624,2.0246,0.0,0.0,0.0,2.794,3.1024,3.0997,3.1896,3.3394,3.3106,3.2671,3.2168,3.2582,3.2448,3.1777,3.182,3.0371,2.7311,0.0,0.0,2.6077,2.8713,3.0347,3.0891,3.1806,3.1788,3.0763,2.9236,2.8205,2.7814,2.7466,2.7466,2.793,2.817,2.7959,2.7005,2.6177,2.4775,0.0,0.0,0.0,0.0,0.0,0.0,0.0,0.0,0.0,0.0,0.0,1.7361,1.9451,0.0,0.0,0.0,2.532,2.8137,3.1246,3.0749,0.0,0.0,0.0,0.0,0.0,0.0,0.0,3.7332,4.0023,4.207,4.3007,4.4349,4.4633,4.3494,4.4169,4.4509,4.3781,0.0,4.4267,4.4022,4.4858,4.5547,4.5547,4.5634,4.5722,4.5946,4.6749,4.7459,4.7838,4.8417,4.9212,4.9872,5.0584,5.1269,5.2008,4.9766,4.7996,4.8817,4.8975,4.9101,4.9898,5.0785,5.1685,1.3705,0.0,0.0,0.0,0.0,1.4419,1.5954,1.6934,1.8314,1.9203,1.9644,1.792,0.0,0.0,0.0,0.0,0.0,0.0,2.3938,2.7102,2.735,2.8661,3.0937,3.065,3.0296,2.9746,3.0033,2.9771,2.8849,2.7349,2.4725,2.1254,0.0,0.0,0.0,0.0,2.8063,2.9423,3.0558,3.0666,2.9955,2.8894,2.7859,2.6999,2.6678,2.6658,2.6888,2.7063,2.6479,2.5199,2.3904,0.0,0.0,0.0,0.0,0.0,0.0,0.0,0.0,0.0,0.0,0.0,0.0,0.0,0.0,0.0,0.0,0.0,0.0,0.0,2.7987,2.8531,2.8326,0.0,0.0,0.0,0.0,0.0,0.0,0.0,0.0,0.0,3.9208,4.0072,4.0877,0.0,0.0,4.2809,4.1983,4.1758,4.1637,4.1291,4.1668,0.0,4.1637,4.167,4.1889,4.1983,4.2244,4.2783,4.3647,4.4658,4.568,4.6838,4.7788,4.8236,4.8187,4.5464,4.3852,4.4671,4.4988,4.5385,4.6573,4.7474,4.8216,0.0,0.0,0.0,0.0,0.0,0.0,0.0,0.0,1.3911,1.4557,0.0,1.3949,0.0,0.0,0.0,0.0,0.0,1.7155,0.0,0.0,2.3427,2.5043,2.6448,2.6791,2.6788,2.6382,2.6556,2.5998,2.4815,2.0246,0.0,0.0,0.0,0.0,0.0,0.0,2.6388,2.9568,2.9679,2.943,2.9026,2.7681,2.6414,2.5453,2.5286,2.5456,2.6044,2.5715,2.4872,2.3465,2.1793,0.0,0.0,0.0,0.0,0.0,0.0,0.0,0.0,0.0,0.0,0.0,0.0,0.0,0.0,0.0,0.0,0.0,0.0,0.0,0.0,2.6714,0.0,0.0,0.0,0.0,0.0,0.0,0.0,0.0,0.0,0.0,3.3512,3.5582,3.7358,3.8037,0.0,0.0,0.0,0.0,3.9375,3.9375,4.0259,4.0655,3.9707,3.9032,3.8758,3.9104,0.0,0.0,4.0506,4.1161,4.1936,4.3115,4.347,4.2636,3.9818,3.9044,3.9204,4.0298,4.0484,4.1055,4.227,4.2525,4.3273,0.0,0.0,0.0,0.0,0.0,0.0,0.0,0.0,0.0,1.0612,0.0,0.9994,0.0,0.0,0.0,0.0,0.0,0.0,0.0,0.0,2.0025,2.1612,2.344,2.3574,2.2939,0.0,2.1969,2.0905,0.0,0.0,0.0,0.0,0.0,0.0,0.0,0.0,2.4443,2.7163,2.8426,2.8835,2.8399,2.7198,2.6044,2.5011,2.5009,2.486,2.4667,2.4006,2.2698,0.0,0.0,0.0,0.0,0.0,0.0,0.0,0.0,0.0,0.0,0.0,0.0,0.0,0.0,0.0,0.0,0.0,0.0,0.0,0.0,0.0,0.0,0.0,2.5134,0.0,0.0,0.0,0.0,0.0,0.0,0.0,0.0,0.0,3.0559,3.2367,3.4448,3.6381,3.7277,3.7826,3.7684,0.0,0.0,0.0,0.0,0.0,0.0,0.0,3.6526,3.6894,3.6827,3.687,3.6783,3.6862,3.7359,3.8689,0.0,0.0,3.4724,3.411,3.4292,3.4617,3.4697,3.5044,3.6297,3.7152,3.8141,0.0,0.0,0.0,0.0,0.0,0.0,0.0,0.0,0.0,0.6858,0.7336,0.0,0.0,0.0,0.0,0.0,0.0,0.0,0.0,0.0,0.0,0.0,1.9825,1.9933,0.0,0.0,0.0,0.0,0.0,0.0,0.0,0.0,0.0,0.0,0.0,0.0,2.2679,2.5678,2.7433,2.8246,2.8188,2.6849,2.569,2.4891,2.4182,2.3738,2.3307,0.0,0.0,0.0,0.0,0.0,0.0,0.0,0.0,0.0,0.0,0.0,0.0,0.0,0.0,0.0,0.0,0.0,0.0,0.0,0.0,0.0,0.0,0.0,0.0,0.0,2.2504,0.0,0.0,0.0,0.0,0.0,0.0,0.0,0.0,0.0,0.0,0.0,3.1446,3.3853,3.5264,3.62,3.6633,3.6697,3.6644,0.0,0.0,0.0,0.0,0.0,0.0,0.0,0.0,0.0,0.0,0.0,0.0,0.0,0.0,3.2074,2.9944,2.9218,2.9191,3.0063,0.0,0.0,0.0,0.0,0.0,0.0,0.0,0.0,0.0,0.0,0.0,0.0,0.0,0.0,0.0,0.0,0.0,0.0,0.4291,0.0,0.0,0.0,0.0,0.0,0.0,0.0,0.0,0.0,0.0,0.0,0.0,0.0,0.0,0.0,0.0,0.0,0.0,0.0,0.0,0.0,0.0,2.1206,2.555,2.6847,2.773,2.8072,2.6732,2.5572,2.486,2.3035,2.2045,2.1966,0.0,0.0,0.0,0.0,0.0,0.0,0.0,0.0,0.0,0.0,0.0,0.0,0.0,0.0,0.0,0.0,0.0,0.0,0.0,0.0,0.0,0.0,0.0,0.0,0.0,0.0,2.2755,2.2134,2.1744,0.0,0.0,0.0,0.0,0.0,0.0,0.0,0.0,0.0,0.0,3.2342,3.4054,3.5248,3.6073,3.6494,3.654,3.6494,3.5964,3.4563,3.3377,3.2094,0.0,0.0,0.0,0.0,0.0,0.0,0.0,0.0,0.0,0.0,0.0,0.0,0.0,0.0,0.0,0.0,0.0,0.0,0.0,0.0,0.0,0.0,0.0,0.0,0.0,0.0,0.0,0.0,0.0,0.0,0.0,0.0,0.0,0.0,0.0,0.0,0.0,0.0,0.0,0.0,0.0,0.0,0.0,0.0,0.0,0.0,0.0,0.0,0.0,0.0,0.0,0.0,0.0,0.0,2.1037,2.4311,2.6652,2.7944,2.8205,2.6715,2.5437,2.4487,2.3253,2.1946,0.0,0.0,0.0,0.0,0.0,0.0,0.0,0.0,0.0,0.0,0.0,0.0,0.0,0.0,0.0,0.0,0.0,0.0,0.0,0.0,0.0,0.0,0.0,0.0,0.0,0.0,0.0,0.0,2.1058,2.1988,2.2448,0.0,0.0,0.0,0.0,0.0,0.0,0.0,0.0,0.0,0.0,3.3541,3.4615,3.5169,3.5629,3.5927,3.5426,3.4903,3.4872,3.3507,3.2058,3.1234,0.0,0.0,0.0,0.0,0.0,0.0,0.0,0.0,0.0,0.0,0.0,0.0,0.0,0.0,0.0,0.0,0.0,0.0,0.0,0.0,0.0,0.0,0.0,0.0,0.0,0.0,0.0,0.0,0.0,0.0,0.0,0.0,0.0,0.0,0.0,0.0,0.0,0.0,0.0,0.0,0.0,0.0,0.0,0.0,0.0,0.0,0.0,0.0,0.0,0.0,0.0,0.0,0.0,2.0354,2.3594,2.6107,2.7625,2.8152,2.6732,2.5308,2.4012,2.2632,2.0981,0.0,0.0,0.0,0.0,0.0,0.0,0.0,0.0,0.0,0.0,0.0,0.0,0.0,0.0,0.0,0.0,0.0,0.0,0.0,0.0,0.0,0.0,0.0,0.0,0.0,0.0,0.0,0.0,1.9599,2.0954,2.1679,0.0,0.0,0.0,0.0,0.0,0.0,0.0,0.0,0.0,0.0,3.1274,3.277,3.3712,0.0,0.0,3.4255,3.411,3.4567,3.2851,3.1443,3.0735,2.9078,0.0,0.0,0.0,0.0,0.0,0.0,0.0,0.0,0.0,0.0,0.0,0.0,0.0,0.0,0.0,0.0,0.0,0.0,0.0,0.0,0.0,0.0,0.0,0.0,0.0,0.0,0.0,0.0,0.0,0.0,0.0,0.0,0.0,0.0,0.0,0.0,0.0,0.0,0.0,0.0,0.0,0.0,0.0,0.0,0.0,0.0,0.0,0.0,0.0,0.0,0.0,0.0,0.0,2.3308,2.5375,2.6873,2.8062,2.6814,2.5348,2.3494,2.154,1.9481,0.0,0.0,0.0,0.0,0.0,0.0,0.0,0.0,0.0,0.0,0.0,0.0,0.0,0.0,0.0,0.0,0.0,0.0,0.0,0.0,0.0,0.0,0.0,0.0,0.0,0.0,0.0,0.0,0.0,0.0,0.0,0.0,0.0,0.0,0.0,0.0,0.0,0.0,0.0,0.0,0.0,2.8036,3.0184,3.1782,3.2829,0.0,3.3088,3.3267,3.3518,3.1756,3.0142,2.9102,0.0,0.0,0.0,0.0,0.0,0.0,0.0,0.0,0.0,0.0,0.0,0.0,0.0,0.0,0.0,0.0,0.0,0.0,0.0,0.0,0.0,0.0,0.0,0.0,0.0,0.0,0.0,0.0,0.0,0.0,0.0,0.0,0.0,0.0,0.0,0.0,0.0,0.0,0.0,0.0,0.0,0.0,0.0,0.0,0.0,0.0,0.0,0.0,0.0,0.0,0.0,0.0,0.0,0.0,2.2455,2.464,2.6199,2.707,2.6096,2.4913,2.3509,2.1618,0.0,0.0,0.0,0.0,0.0,0.0,0.0,0.0,0.0,0.0,0.0,0.0,0.0,0.0,0.0,0.0,0.0,0.0,0.0,0.0,0.0,0.0,0.0,0.0,0.0,0.0,0.0,1.3086,0.0,0.0,0.0,0.0,0.0,0.0,0.0,0.0,0.0,0.0,0.0,0.0,0.0,0.0,2.844,2.9474,3.0171,3.1029,0.0,0.0,3.1507,3.2671,3.1112,2.9079,0.0,0.0,0.0,0.0,0.0,0.0,0.0,0.0,0.0,0.0,0.0,0.0,0.0,0.0,0.0,0.0,0.0,0.0,0.0,0.0,0.0,0.0,0.0,0.0,0.0,0.0,0.0,0.0,0.0,0.0,0.0,0.0,0.0,0.0,0.0,0.0,0.0,0.0,0.0,0.0,0.0,0.0,0.0,0.0,0.0,0.0,0.0,0.0,0.0,0.0,0.0,0.0,0.0,0.0,1.8068,2.1723,2.3534,2.487,2.5718,2.4744,2.3364,2.1561,1.999,1.7755,0.0,0.0,0.0,0.0,0.0,0.0,0.0,0.0,0.0,0.0,0.0,0.0,0.0,0.0,0.0,0.0,0.0,0.0,0.0,0.0,0.0,0.0,0.0,0.0,0.0,0.0,0.0,0.0,0.0,0.0,0.0,0.0,0.0,0.0,0.0,0.0,0.0,0.0,0.0,0.0,0.0,0.0,2.7501,2.8183,0.0,0.0,0.0,2.9568,3.0666,0.0,0.0,0.0,0.0,0.0,0.0,0.0,0.0,0.0,0.0,0.0,0.0,0.0,0.0,0.0,0.0,0.0,0.0,0.0,0.0,0.0,0.0,0.0,0.0,0.0,0.0,0.0,0.0,0.0,0.0,0.0,0.0,0.0,0.0,0.0,0.0,0.0,0.0,0.0,0.0,0.0,0.0,0.0,0.0,0.0,0.0,0.0,0.0,0.0,0.0,0.0,0.0,0.0,0.0,0.0,0.0,0.0,2.0843,2.2261,2.3281,2.4001,2.3117,2.1262,1.8771,1.7674,1.5633,0.0,0.0,0.0,0.0,0.0,0.0,0.0,0.0,0.0,0.0,0.0,0.0,0.0,0.0,0.0,0.0,0.0,0.0,0.0,0.0,0.0,0.0,0.0,0.0,0.0,0.0,0.0,0.0,0.0,0.0,0.0,0.0,0.0,0.0,0.0,0.0,0.0,0.0,0.0,0.0,0.0,2.4497,2.4925,2.6108,2.691,0.0,0.0,2.7644,2.8162,2.7304,0.0,0.0,0.0,0.0,0.0,0.0,0.0,0.0,0.0,0.0,0.0,0.0,0.0,0.0,0.0,0.0,0.0,0.0,0.0,0.0,0.0,0.0,0.0,0.0,0.0,0.0,0.0,0.0,0.0,0.0,0.0,0.0,0.0,0.0,0.0,0.0,0.0,0.0,0.0,0.0,0.0,0.0,0.0,0.0,0.0,0.0,0.0,0.0,0.0,0.0,0.0,0.0,0.0,0.0,0.0,0.0,1.8241,2.0458,2.1716,2.1952,2.1237,1.9981,1.7954,1.6347,1.4396,0.0,0.0,0.0,0.0,0.0,0.0,0.0,0.0,0.0,0.0,0.0,0.0,0.0,0.0,0.0,0.0,0.0,0.0,0.0,0.0,0.0,0.0,0.0,0.0,0.0,0.0,0.0,0.0,0.0,0.0,0.0,0.0,0.0,0.0,0.0,0.0,0.0,0.0,0.0,0.0,0.0,2.3494,2.3264,2.3751,0.0,0.0,0.0,0.0,2.6273,2.6099,0.0,0.0,0.0,0.0,0.0,0.0,0.0,0.0,0.0,0.0,0.0,0.0,0.0,0.0,0.0,0.0,0.0,0.0,0.0,0.0,0.0,0.0,0.0,0.0,0.0,0.0,0.0,0.0,0.0,0.0,0.0,0.0,0.0,0.0,0.0,0.0,0.0,0.0,0.0,0.0,0.0,0.0,0.0,0.0,0.0,0.0,0.0,0.0,0.0,0.0,0.0,0.0,0.0,0.0,0.0,0.0,1.6479,1.8538,1.9646,1.9718,1.9127,1.7877,1.6252,1.4762,1.3165,0.0,0.0,0.0,0.0,0.0,0.0,0.0,0.0,0.0,0.0,0.0,0.0,0.0,0.0,0.0,0.0,0.0,0.0,0.0,0.0,0.0,0.0,0.0,0.0,0.0,0.0,0.0,0.0,0.0,0.0,0.0,0.0,0.0,0.0,0.0,0.0,0.0,0.0,0.0,0.0,2.0945,2.2092,2.1671,0.0,0.0,0.0,0.0,0.0,0.0,2.3419,2.2805,0.0,0.0,0.0,0.0,0.0,0.0,0.0,0.0,0.0,0.0,0.0,0.0,0.0,0.0,0.0,0.0,0.0,0.0,0.0,0.0,0.0,0.0,0.0,0.0,0.0,0.0,0.0,0.0,0.0,0.0,0.0,0.0,0.0,0.0,0.0,0.0,0.0,0.0,0.0,0.0,0.0,0.0,0.0,0.0,0.0,0.0,0.0,0.0,0.0,0.0,0.0,0.0,0.0,0.0,0.0,1.5011,1.6735,1.7699,1.7888,1.7045,1.5845,1.4316,1.3242,1.1901,1.0408,0.0,0.0,0.0,0.0,0.0,0.0,0.0,0.0,0.0,0.0,0.0,0.0,0.0,0.0,0.0,0.0,0.0,0.0,0.0,0.0,0.0,0.0,0.0,0.0,0.0,0.0,0.0,0.0,0.0,0.0,0.0,0.0,0.0,0.0,0.0,0.0,0.0,0.0,0.0,1.9025,2.0368,0.0,0.0,0.0,0.0,0.0,0.0,0.0,0.0,2.0415,0.0,0.0,0.0,0.0,0.0,0.0,0.0,0.0,0.0,0.0,0.0,0.0,0.0,0.0,0.0,0.0,0.0,0.0,0.0,0.0,0.0,0.0,0.0,0.0,0.0,0.0,0.0,0.0,0.0,0.0,0.0,0.0,0.0,0.0,0.0,0.0,0.0,0.0,0.0,0.0,0.0,0.0,0.0,0.0,0.0,0.0,0.0,0.0,0.0,0.0,0.0,0.0,0.0,0.0,0.0,0.0,1.5671,1.6794,1.6867,1.5877,1.4592,1.3106,1.2274,1.0937,0.8993,0.0,0.0,0.0,0.0,0.0,0.0,0.0,0.0,0.0,0.0,0.0,0.0,0.0,0.0,0.0,0.0,0.0,0.0,0.0,0.0,0.0,0.0,0.0,0.0,0.0,0.0,0.0,0.0,0.0,0.0,0.0,0.0,0.0,0.0,0.0,0.0,0.0,0.0,1.4725,1.7063,0.0,0.0,0.0,0.0,0.0,0.0,0.0,0.0,2.0316,0.0,0.0,0.0,0.0,0.0,0.0,0.0,0.0,0.0,0.0,0.0,0.0,0.0,0.0,0.0,0.0,0.0,0.0,0.0,0.0,0.0,0.0,0.0,0.0,0.0,0.0,0.0,0.0,0.0,0.0,0.0,0.0,0.0,0.0,0.0,0.0,0.0,0.0,0.0,0.0,0.0,0.0,0.0,0.0,0.0,0.0,0.0,0.0,0.0,0.0,0.0,0.0,0.0,0.0,0.0,0.0,0.0,0.0,1.5503,1.6276,1.5143,1.4005,1.2854,1.2029,1.0593,0.0,0.0,0.0,0.0,0.0,0.0,0.0,0.0,0.0,0.0,0.0,0.0,0.0,0.0,0.0,0.0,0.0,0.0,0.0,0.0,0.0,0.0,0.0,0.0,0.0,0.0,0.0,0.0,0.0,0.0,0.0,0.0,0.0,0.0,0.0,0.0,0.0,0.0,0.0,0.0,0.0,0.0,0.0,0.0,0.0,0.0,0.0,0.0,0.0,0.0,0.0,0.0,0.0,0.0,0.0,0.0,0.0,0.0,0.0,0.0,0.0,0.0,0.0,0.0,0.0,0.0,0.0,0.0,0.0,0.0,0.0,0.0,0.0,0.0,0.0,0.0,0.0,0.0,0.0,0.0,0.0,0.0,0.0,0.0,0.0,0.0,0.0,0.0,0.0,0.0,0.0,0.0,0.0,0.0,0.0,0.0,0.0,0.0,0.0,0.0,0.0,0.0,0.0,0.0,0.0,0.0,0.0,0.0,1.4429,1.576,1.4817,1.3776,1.2882,1.1739,1.0121,0.0,0.0,0.0,0.0,0.0,0.0,0.0,0.0,0.0,0.0,0.0,0.0,0.0,0.0,0.0,0.0,0.0,0.0,0.0,0.0,0.0,0.0,0.0,0.0,0.0,0.0,0.0,0.0,0.0,0.0,0.0,0.0,0.0,0.0,0.0,0.0,0.0,0.0,0.0,0.0,0.0,0.0,0.0,0.0,0.0,0.0,0.0,0.0,1.7106,0.0,0.0,0.0,0.0,0.0,0.0,0.0,0.0,0.0,0.0,0.0,0.0,0.0,0.0,0.0,0.0,0.0,0.0,0.0,0.0,0.0,0.0,0.0,0.0,0.0,0.0,0.0,0.0,0.0,0.0,0.0,0.0,0.0,0.0,0.0,0.0,0.0,0.0,0.0,0.0,0.0,0.0,0.0,0.0,0.0,0.0,0.0,0.0,0.0,0.0,0.0,0.0,0.0,0.0,0.0,0.0,0.0,0.0,0.0,1.3727,1.5311,1.4611,1.3776,1.283,1.0952,0.9067,0.0,0.0,0.0,0.0,0.0,0.0,0.0,0.0,0.0,0.0,0.0,0.0,0.0,0.0,0.0,0.0,0.0,0.0,0.0,0.0,0.0,0.0,0.0,0.0,0.0,0.0,0.0,0.0,0.0,0.0,0.0,0.0,0.0,0.0,0.0,0.0,0.0,0.0,0.0,0.0,0.0,0.0,0.0,0.0,0.0,0.0,0.0,0.0,0.0,0.0,0.0,0.0,0.0,0.0,0.0,0.0,0.0,0.0,0.0,0.0,0.0,0.0,0.0,0.0,0.0,0.0,0.0,0.0,0.0,0.0,0.0,0.0,0.0,0.0,0.0,0.0,0.0,0.0,0.0,0.0,0.0,0.0,0.0,0.0,0.0,0.0,0.0,0.0,0.0,0.0,0.0,0.0,0.0,0.0,0.0,0.0,0.0,0.0,0.0,0.0,0.0,0.0,0.0,0.0,0.0,0.0,0.0,0.0,1.2744,1.4529,1.3595,1.2778,1.2271,1.0359,0.8493,0.0,0.0,0.0,0.0,0.0,0.0,0.0,0.0,0.0,0.0,0.0,0.0,0.0,0.0,0.0,0.0,0.0,0.0,0.0,0.0,0.0,0.0,0.0,0.0,0.0,0.0,0.0,0.0,0.0,0.0,0.0,0.0,0.0,0.0,0.0,0.0,0.0,0.0,0.0,0.0,0.0,0.0,0.0,0.0,0.0,0.0,0.0,0.0,0.0,0.0,0.0,0.0,0.0,0.0,0.0,0.0,0.0,0.0,0.0,0.0,0.0,0.0,0.0,0.0,0.0,0.0,0.0,0.0,0.0,0.0,0.0,0.0,0.0,0.0,0.0,0.0,0.0,0.0,0.0,0.0,0.0,0.0,0.0,0.0,0.0,0.0,0.0,0.0,0.0,0.0,0.0,0.0,0.0,0.0,0.0,0.0,0.0,0.0,0.0,0.0,0.0,0.0,0.0,0.0,0.0,0.0,0.0,0.0,0.0,1.3376,1.2118,1.1269,1.1058,0.9371,0.7718,0.0,0.0,0.0,0.0,0.0,0.0,0.0,0.0,0.0,0.0,0.0,0.0,0.0,0.0,0.0,0.0,0.0,0.0,0.0,0.0,0.0,0.0,0.0,0.0,0.0,0.0,0.0,0.0,0.0,0.0,0.0,0.0,0.0,0.0,0.0,0.0,0.0,0.0,0.0,0.0,0.0,0.0,0.0,0.0,0.0,0.0,0.0,0.0,0.0,0.0,0.0,0.0,0.0,0.0,0.0,0.0,0.0,0.0,0.0,0.0,0.0,0.0,0.0,0.0,0.0,0.0,0.0,0.0,0.0,0.0,0.0,0.0,0.0,0.0,0.0,0.0,0.0,0.0,0.0,0.0,0.0,0.0,0.0,0.0,0.0,0.0,0.0,0.0,0.0,0.0,0.0,0.0,0.0,0.0,0.0,0.0,0.0,0.0,0.0,0.0,0.0,0.0,0.0,0.0,0.0,0.0,0.0,0.0,0.0,1.2285,1.0113,0.9023,0.9089,0.7589,0.6344,0.0,0.0,0.0,0.0,0.0,0.0,0.0,0.0,0.0,0.0,0.0,0.0,0.0,0.0,0.0,0.0,0.0,0.0,0.0,0.0,0.0,0.0,0.0,0.0,0.0,0.0,0.0,0.0,0.0,0.0,0.0,0.0,0.0,0.0,0.0,0.0,0.0,0.0,0.0,0.0,0.0,0.0,0.0,0.0,0.0,0.0,0.0,0.0,0.0,0.0,0.0,0.0,0.0,0.0,0.0,0.0,0.0,0.0,0.0,0.0,0.0,0.0,0.0,0.0,0.0,0.0,0.0,0.0,0.0,0.0,0.0,0.0,0.0,0.0,0.0,0.0,0.0,0.0,0.0,0.0,0.0,0.0,0.0,0.0,0.0,0.0,0.0,0.0,0.0,0.0,0.0,0.0,0.0,0.0,0.0,0.0,0.0,0.0,0.0,0.0,0.0,0.0,0.0,0.0,0.0,0.0,0.0,0.0,0.0,0.8905,0.8184,0.766,0.7465,0.6107,0.4955,0.4004,0.0,0.0,0.0,0.0,0.0,0.0,0.0,0.0,0.0,0.0,0.0,0.0,0.0,0.0,0.0,0.0,0.0,0.0,0.0,0.0,0.0,0.0,0.0,0.0,0.0,0.0,0.0,0.0,0.0,0.0,0.0,0.0,0.0,0.0,0.0,0.0,0.0,0.0,0.0,0.0,0.0,0.0,0.0,0.0,0.0,0.0,0.0,0.0,0.0,0.0,0.0,0.0,0.0,0.0,0.0,0.0,0.0,0.0,0.0,0.0,0.0,0.0,0.0,0.0,0.0,0.0,0.0,0.0,0.0,0.0,0.0,0.0,0.0,0.0,0.0,0.0,0.0,0.0,0.0,0.0,0.0,0.0,0.0,0.0,0.0,0.0,0.0,0.0,0.0,0.0,0.0,0.0,0.0,0.0,0.0,0.0,0.0,0.0,0.0,0.0,0.0,0.0,0.0,0.0,0.0,0.0,0.0,0.0,0.6271,0.6215,0.6033,0.5671,0.4546,0.3485,0.0,0.0,0.0,0.0,0.0,0.0,0.0,0.0,0.0,0.0,0.0,0.0,0.0,0.0,0.0,0.0,0.0,0.0,0.0,0.0,0.0,0.0,0.0,0.0,0.0,0.0,0.0,0.0,0.0,0.0,0.0,0.0,0.0,0.0,0.0,0.0,0.0,0.0,0.0,0.0,0.0,0.0,0.0,0.0,0.0,0.0,0.0,0.0,0.0,0.0,0.0,0.0,0.0,0.0,0.0,0.0,0.0,0.0,0.0,0.0,0.0,0.0,0.0,0.0,0.0,0.0,0.0,0.0,0.0,0.0,0.0,0.0,0.0,0.0,0.0,0.0,0.0,0.0,0.0,0.0,0.0,0.0,0.0,0.0,0.0,0.0,0.0,0.0,0.0,0.0,0.0,0.0,0.0,0.0,0.0,0.0,0.0,0.0,0.0,0.0,0.0,0.0,0.0,0.0,0.0,0.0,0.0,0.0,0.3668,0.461,0.4199,0.3898,0.3676,0.2841,0.2004,0.0,0.0,0.0,0.0,0.0,0.0,0.0,0.0,0.0,0.0,0.0,0.0,0.0,0.0,0.0,0.0,0.0,0.0,0.0,0.0,0.0,0.0,0.0,0.0,0.0,0.0,0.0,0.0,0.0,0.0,0.0,0.0,0.0,0.0,0.0,0.0,0.0,0.0,0.0,0.0,0.0,0.0,0.0,0.0,0.0,0.0,0.0,0.0,0.0,0.0,0.0,0.0,0.0,0.0,0.0,0.0,0.0,0.0,0.0,0.0,0.0,0.0,0.0,0.0,0.0,0.0,0.0,0.0,0.0,0.0,0.0,0.0,0.0,0.0,0.0,0.0,0.0,0.0,0.0,0.0,0.0,0.0,0.0,0.0,0.0,0.0,0.0,0.0,0.0,0.0,0.0,0.0,0.0,0.0,0.0,0.0,0.0,0.0,0.0,0.0,0.0,0.0,0.0,0.0,0.0,0.0,0.0,0.0,0.0,0.3087,0.0,0.265,0.0,0.1653,0.0998,0.0,0.0,0.0,0.0,0.0,0.0,0.0,0.0,0.0,0.0,0.0,0.0,0.0,0.0,0.0,0.0,0.0,0.0,0.0,0.0,0.0,0.0,0.0,0.0,0.0,0.0,0.0,0.0,0.0,0.0,0.0,0.0,0.0,0.0,0.0,0.0,0.0,0.0,0.0,0.0,0.0,0.0,0.0,0.0,0.0,0.0,0.0,0.0,0.0,0.0,0.0,0.0,0.0,0.0,0.0,0.0,0.0,0.0,0.0,0.0,0.0,0.0,0.0,0.0,0.0,0.0,0.0,0.0,0.0,0.0,0.0,0.0,0.0,0.0,0.0,0.0,0.0,0.0,0.0,0.0,0.0,0.0,0.0,0.0,0.0,0.0,0.0,0.0,0.0,0.0,0.0,0.0,0.0,0.0,0.0,0.0,0.0,0.0,0.0,0.0,0.0,0.0,0.0,0.0,0.0,0.0,0.0,0.0,0.0,0.2126,0.2178,0.1914,0.1306,0.0697,0.0219,0.0,0.0,0.0,0.0,0.0,0.0,0.0,0.0,0.0,0.0,0.0,0.0,0.0,0.0,0.0,0.0,0.0,0.0,0.0,0.0,0.0,0.0,0.0,0.0,0.0,0.0,0.0,0.0,0.0,0.0,0.0,0.0,0.0,0.0,0.0,0.0,0.0,0.0,0.0,0.0,0.0,0.0,0.0,0.0,0.0,0.0,0.0,0.0,0.0,0.0,0.0,0.0,0.0,0.0,0.0,0.0,0.0,0.0,0.0,0.0,0.0,0.0,0.0,0.0,0.0,0.0,0.0,0.0,0.0,0.0,0.0,0.0,0.0,0.0,0.0,0.0,0.0,0.0,0.0,0.0,0.0,0.0,0.0,0.0,0.0,0.0,0.0,0.0,0.0,0.0,0.0,0.0,0.0,0.0,0.0,0.0,0.0,0.0,0.0,0.0,0.0,0.0,0.0,0.0,0.0,0.0,0.0,0.0,0.0,0.0,0.183,0.152,0.0787,0.0131,-0.035,0.0,0.0,0.0,0.0,0.0,0.0,0.0,0.0,0.0,0.0,0.0,0.0,0.0,0.0,0.0,0.0,0.0,0.0,0.0,0.0,0.0,0.0,0.0,0.0,0.0,0.0,0.0,0.0,0.0,0.0,0.0,0.0,0.0,0.0,0.0,0.0,0.0,0.0,0.0,0.0,0.0,0.0,0.0,0.0,0.0,0.0,0.0,0.0,0.0,0.0,0.0,0.0,0.0,0.0,0.0,0.0,0.0,0.0,0.0,0.0,0.0,0.0,0.0,0.0,0.0,0.0,0.0,0.0,0.0,0.0,0.0,0.0,0.0,0.0,0.0,0.0,0.0,0.0,0.0,0.0,0.0,0.0,0.0,0.0,0.0,0.0,0.0,0.0,0.0,0.0,0.0,0.0,0.0,0.0,0.0,0.0,0.0,0.0,0.0,0.0,0.0,0.0,0.0,0.0,0.0,0.0,0.0,0.0,0.0,0.0,0.1043,0.0,0.048,-0.0219,-0.0788,-0.118,0.0,0.0,0.0,0.0,0.0,0.0,0.0,0.0,0.0,0.0,0.0,0.0,0.0,0.0,0.0,0.0,0.0,0.0,0.0,0.0,0.0,0.0,0.0,0.0,0.0,0.0,0.0,0.0,0.0,0.0,0.0,0.0,0.0,0.0,0.0,0.0,0.0,0.0,0.0,0.0,0.0,0.0,0.0,0.0,0.0,0.0,0.0,0.0,0.0,0.0,0.0,0.0,0.0,0.0,0.0,0.0,0.0,0.0,0.0,0.0,0.0,0.0,0.0,0.0,0.0,0.0,0.0,0.0,0.0,0.0,0.0,0.0,0.0,0.0,0.0,0.0,0.0,0.0,0.0,0.0,0.0,0.0,0.0,0.0,0.0,0.0,0.0,0.0,0.0,0.0,0.0,0.0,0.0,0.0,0.0,0.0,0.0,0.0,0.0,0.0,0.0,0.0,0.0,0.0,0.0,0.0,0.0,0.0,0.0,0.0,0.0,-0.0087,-0.0525,-0.1004,0.0,0.0,0.0,0.0,0.0,0.0,0.0,0.0,0.0,0.0,0.0,0.0,0.0,0.0,0.0,0.0,0.0,0.0,0.0,0.0,0.0,0.0,0.0,0.0,0.0,0.0,0.0,0.0,0.0,0.0,0.0,0.0,0.0,0.0,0.0,0.0,0.0,0.0,0.0,0.0,0.0,0.0,0.0,0.0,0.0,0.0,0.0,0.0,0.0,0.0,0.0,0.0,0.0,0.0,0.0,0.0,0.0,0.0,0.0,0.0,0.0,0.0,0.0,0.0,0.0,0.0,0.0,0.0,0.0,0.0,0.0,0.0,0.0,0.0,0.0,0.0,0.0,0.0,0.0,0.0,0.0,0.0,0.0,0.0,0.0,0.0,0.0,0.0,0.0,0.0,0.0,0.0,0.0,0.0,0.0,0.0,0.0,0.0,0.0,0.0,0.0,0.0,0.0,0.0,0.0,0.0,0.0,0.0,0.0,0.0,0.0,-0.048,-0.0829,-0.0873,0.0,-0.191,0.0,0.0,0.0,0.0,0.0,0.0,0.0,0.0,0.0,0.0,0.0,0.0,0.0,0.0,0.0,0.0,0.0,0.0,0.0,0.0,0.0,0.0,0.0,0.0,0.0,0.0,0.0,0.0,0.0,0.0,0.0,0.0,0.0,0.0,0.0,0.0,0.0,0.0,0.0,0.0,0.0,0.0,0.0,0.0,0.0,0.0,0.0,0.0,0.0,0.0,0.0,0.0,0.0,0.0,0.0,0.0,0.0,0.0,0.0,0.0,0.0,0.0,0.0,0.0,0.0,0.0,0.0,0.0,0.0,0.0,0.0,0.0,0.0,0.0,0.0,0.0,0.0,0.0,0.0,0.0,0.0,0.0,0.0,0.0,0.0,0.0,0.0,0.0,0.0,0.0,0.0,0.0,0.0,0.0,0.0,0.0,0.0,0.0,0.0,0.0,0.0,0.0,0.0,0.0,0.0,0.0,0.0,0.0,0.0,0.0,0.0,0.0,-0.1564,-0.1914,-0.239,0.0,0.0,0.0,0.0,0.0,0.0,0.0,0.0,0.0,0.0,0.0,0.0,0.0,0.0,0.0,0.0,0.0,0.0,0.0,0.0,0.0,0.0,0.0,0.0,0.0,0.0,0.0,0.0,0.0,0.0,0.0,0.0,0.0,0.0,0.0,0.0,0.0,0.0,0.0,0.0,0.0,0.0,0.0,0.0,0.0,0.0,0.0,0.0,0.0,0.0,0.0,0.0,0.0,0.0,0.0,0.0,0.0,0.0,0.0,0.0,0.0,0.0,0.0,0.0,0.0,0.0,0.0,0.0,0.0,0.0,0.0,0.0,0.0,0.0,0.0,0.0,0.0,0.0,0.0,0.0,0.0,0.0,0.0,0.0,0.0,0.0,0.0,0.0,0.0,0.0,0.0,0.0,0.0,0.0,0.0,0.0,0.0,0.0,0.0,0.0,0.0,0.0,0.0,0.0,0.0,0.0,0.0,0.0,0.0,0.0,-0.1784,-0.1993,-0.2213,-0.252,-0.2952,0.0,0.0,0.0,0.0,0.0,0.0,0.0,0.0,0.0,0.0,0.0,0.0,0.0,0.0,0.0,0.0,0.0,0.0,0.0,0.0,0.0,0.0,0.0,0.0,0.0,0.0,0.0,0.0,0.0,0.0,0.0,0.0,0.0,0.0,0.0,0.0,0.0,0.0,0.0,0.0,0.0,0.0,0.0,0.0,0.0,0.0,0.0,0.0,0.0,0.0,0.0,0.0,0.0,0.0,0.0,0.0,0.0,0.0,0.0,0.0,0.0,0.0,0.0,0.0,0.0,0.0,0.0,0.0,0.0,0.0,0.0,0.0,0.0,0.0,0.0,0.0,0.0,0.0,0.0,0.0,0.0,0.0,0.0,0.0,0.0,0.0,0.0,0.0,0.0,0.0,0.0,0.0,0.0,0.0,0.0,0.0,0.0,0.0,0.0,0.0,0.0,0.0,0.0,0.0,0.0,0.0,0.0,0.0,0.0,0.0,0.0,0.0,0.0,0.0,-0.3554,0.0,0.0,0.0,0.0,0.0,0.0,0.0,0.0,0.0,0.0,0.0,0.0,0.0,0.0,0.0,0.0,0.0,0.0,0.0,0.0,0.0,0.0,0.0,0.0,0.0,0.0,0.0,0.0,0.0,0.0,0.0,0.0,0.0,0.0,0.0,0.0,0.0,0.0,0.0,0.0,0.0,0.0,0.0,0.0,0.0,0.0,0.0,0.0,0.0,0.0,0.0,0.0,0.0,0.0,0.0,0.0,0.0,0.0,0.0,0.0,0.0,0.0,0.0,0.0,0.0,0.0,0.0,0.0,0.0,0.0,0.0,0.0,0.0,0.0,0.0,0.0,0.0,0.0,0.0,0.0,0.0,0.0,0.0,0.0,0.0,0.0,0.0,0.0,0.0,0.0,0.0,0.0,0.0,0.0,0.0,0.0,0.0,0.0,0.0,0.0,0.0,0.0,0.0,0.0,0.0,0.0,0.0,0.0,0.0,0.0,0.0,0.0,0.0,0.0,0.0,0.0,0.0,0.0,0.0,0.0,0.0,0.0,0.0,0.0,0.0,0.0,0.0,0.0,0.0,0.0,0.0,0.0,0.0,0.0,0.0,0.0,0.0,0.0,0.0,0.0,0.0,0.0,0.0,0.0,0.0,0.0,0.0,0.0,0.0,0.0,0.0,0.0,0.0,0.0,0.0,0.0,0.0,0.0,0.0,0.0,0.0,0.0,0.0,0.0,0.0,0.0,0.0,0.0,0.0,0.0,0.0,0.0,0.0,0.0,0.0,0.0,0.0,0.0,0.0,0.0,0.0,0.0,0.0,0.0,0.0,0.0,0.0,0.0,0.0,0.0,0.0,0.0,0.0,0.0,0.0,0.0,0.0,0.0,0.0,0.0,0.0,0.0,0.0,0.0,0.0,0.0,0.0,0.0,0.0,0.0,0.0,0.0,0.0,0.0,0.0,0.0,0.0,0.0,0.0,0.0,0.0,0.0,0.0,0.0,0.0,0.0,0.0,0.0,0.0,0.0,0.0,0.0,0.0,0.0,0.0,0.0,0.0,0.0,0.0,0.0,0.0,0.0,0.0,0.0,0.0,0.0,0.0,0.0,0.0,0.0,0.0,0.0,0.0,0.0,0.0,0.0,0.0,0.0,0.0,0.0,0.0,0.0,0.0,0.0,0.0,0.0,0.0,0.0,0.0,0.0,0.0,0.0,0.0,0.0,0.0,0.0,0.0,0.0,0.0,0.0,0.0,0.0,0.0,0.0,0.0,0.0,0.0,0.0,0.0,0.0,0.0,0.0,0.0,0.0,0.0,0.0,0.0,0.0,0.0,0.0,0.0,0.0,0.0,0.0,0.0,0.0,0.0,0.0,0.0,0.0,0.0,0.0,0.0,0.0,0.0,0.0,0.0,0.0,0.0,0.0,0.0,0.0,0.0,0.0,0.0,0.0,0.0,0.0,0.0,0.0,0.0,0.0,0.0,0.0,0.0,0.0,0.0,0.0,0.0,0.0,0.0,0.0,0.0,0.0,0.0,0.0,0.0,0.0,0.0,0.0,0.0,0.0,0.0,0.0,0.0,0.0,0.0,0.0,0.0,0.0,0.0,0.0,0.0,0.0,0.0,0.0,0.0,0.0,0.0,0.0,0.0,0.0,0.0,0.0,0.0,0.0,0.0,0.0,0.0,0.0,0.0,0.0,0.0,0.0,0.0,0.0,0.0,0.0,0.0,0.0,0.0,0.0,0.0,0.0,0.0,0.0,0.0,0.0,0.0,0.0,0.0,0.0,0.0,0.0,0.0,0.0,0.0,0.0,0.0,0.0,0.0,0.0,0.0,0.0,0.0,0.0,0.0,0.0,0.0,0.0,0.0,0.0,0.0,0.0,0.0,0.0,0.0,0.0,0.0,0.0,0.0,0.0,0.0,0.0,0.0,0.0,0.0,0.0,0.0,0.0,0.0,0.0,0.0,0.0,0.0,0.0,0.0,0.0,0.0,0.0,0.0,0.0,0.0,0.0,0.0,0.0,0.0,0.0,0.0,0.0,0.0,0.0,0.0,0.0,0.0,0.0,0.0,0.0,0.0,0.0,0.0,0.0,0.0,0.0,0.0,0.0,0.0,0.0,0.0,0.0,0.0,0.0,0.0,0.0,0.0,0.0,0.0,0.0,0.0,0.0,0.0,0.0,0.0,0.0,0.0,0.0,0.0,0.0,0.0,0.0,0.0,0.0,0.0,0.0,0.0,0.0,0.0,0.0,0.0,0.0,0.0,0.0,0.0,0.0,0.0,0.0,0.0,0.0,0.0,0.0,0.0,0.0,0.0,0.0,0.0,0.0,0.0,0.0,0.0,0.0,0.0,0.0,0.0,0.0,0.0,0.0,0.0,0.0,0.0,0.0,0.0,0.0,0.0,0.0,0.0,0.0,0.0,0.0,0.0,0.0,0.0,0.0,0.0,0.0,0.0,0.0,0.0,0.0,0.0,0.0,0.0,0.0,0.0,0.0,0.0,0.0,0.0,0.0,0.0,0.0,0.0,0.0,0.0,0.0,0.0,0.0,0.0,0.0,0.0,0.0,0.0,0.0,0.0,0.0,0.0,0.0,0.0,0.0,0.0,0.0,0.0,0.0,0.0,0.0,0.0,0.0,0.0,0.0,0.0,0.0,0.0,0.0,0.0,0.0,0.0,0.0,0.0,0.0,0.0,0.0,0.0,0.0,0.0,0.0,0.0,0.0,0.0,0.0,0.0,0.0,0.0,0.0,0.0,0.0,0.0,0.0,0.0,0.0,0.0,0.0,0.0,0.0,0.0,0.0,0.0,0.0,0.0,0.0,0.0,0.0,0.0,0.0,0.0,0.0,0.0,0.0,0.0,0.0,0.0,0.0,0.0,0.0,0.0,0.0,0.0,0.0,0.0,0.0,0.0,0.0,0.0,0.0,0.0,0.0,0.0,0.0,0.0,0.0,0.0,0.0,0.0,0.0,0.0,0.0,0.0,0.0,0.0,0.0,0.0,0.0,0.0,0.0,0.0,0.0,0.0,0.0,0.0,0.0,0.0,0.0,0.0,0.0,0.0,0.0,0.0,0.0,0.0,0.0,0.0,0.0,0.0,0.0,0.0,0.0,0.0,0.0,0.0,0.0,0.0,0.0,0.0,0.0,0.0,0.0,0.0,0.0,0.0,0.0,0.0,0.0,0.0,0.0,0.0,0.0,0.0,0.0,0.0,0.0,0.0,0.0,0.0,0.0,0.0,0.0,0.0,0.0,0.0,0.0,0.0,0.0,0.0,0.0,0.0,0.0,0.0,0.0,0.0,0.0,0.0,0.0,0.0,0.0,0.0,0.0,0.0,0.0,0.0,0.0,0.0,0.0,0.0,0.0,0.0,0.0,0.0,0.0,0.0,0.0,0.0,0.0,0.0,0.0,0.0,0.0,0.0,0.0,0.0,0.0,0.0,0.0,0.0,0.0,0.0,0.0,0.0,0.0,0.0,0.0,0.0,0.0,0.0,0.0,0.0,0.0,0.0,0.0,0.0,0.0,0.0,0.0,0.0,0.0,0.0,0.0,0.0,0.0,0.0,0.0,0.0,0.0,0.0,0.0,0.0,0.0,0.0,0.0,0.0,0.0,0.0,0.0,0.0,0.0,0.0,0.0,0.0,0.0,0.0,0.0,0.0,0.0,0.0,0.0,0.0,0.0,0.0,0.0,0.0,0.0,0.0,0.0,0.0,0.0,0.0,0.0,0.0,0.0,0.0,0.0,0.0,0.0,0.0,0.0,0.0,0.0,0.0,0.0,0.0,0.0,0.0,0.0,0.0,0.0,0.0,0.0,0.0,0.0,0.0,0.0,0.0,0.0,0.0,0.0,0.0,0.0,0.0,0.0,0.0,0.0,0.0,0.0,0.0,0.0,0.0,0.0,0.0,0.0,0.0,0.0,0.0,0.0,0.0,0.0,0.0,0.0,0.0,0.0,0.0,0.0,0.0,0.0,0.0,0.0,0.0,0.0,0.0,0.0,0.0,0.0,0.0,0.0,0.0,0.0,0.0,0.0,0.0,0.0,0.0,0.0,0.0,0.0,0.0,0.0,0.0,0.0,0.0,0.0,0.0,0.0,0.0,0.0,0.0,0.0,0.0,0.0,0.0,0.0,0.0,0.0,0.0,0.0,0.0,0.0,0.0,0.0,0.0,0.0,0.0,0.0,0.0,0.0,0.0,0.0,0.0,0.0,0.0,0.0,0.0,0.0,0.0,0.0,0.0,0.0,0.0,0.0,0.0,0.0,0.0,0.0,0.0,0.0,0.0,0.0,0.0,0.0,0.0,0.0,0.0,0.0,0.0,0.0,0.0,0.0,0.0,0.0,0.0,0.0,0.0,0.0]}],[{"header":{"parameterUnit":"kt","parameterCategory":2,"dx":1,"dy":1,"la1":29.587661999999998,"la2":31.0,"lo1":-88.76705300000003,"lo2":-86.6583820000003,"nx":115,"ny":88,"refTime":"2022-10-20T12:00:00:Z","depth":0,"parameterNumber":2,"parameterNumberName":"V-component_of_WINDS"},"data":[0.8019,0.8757,0.9105,1.0904,1.3382,1.4245,1.5926,1.8262,1.9474,2.0303,2.093,2.1428,2.2265,2.3062,2.4279,2.547,2.6397,2.6999,2.7483,2.7617,2.7483,2.7233,2.6982,2.6749,2.6749,2.7233,2.7966,2.8295,2.858,2.8944,2.945,3.0356,3.1612,3.2565,3.3505,3.4355,3.4889,3.5532,3.5926,3.6449,3.671,3.7479,3.8475,3.8809,3.9418,4.0035,4.0781,4.1666,4.2108,4.235,4.239,4.239,4.245,4.2531,4.2813,4.3416,4.4181,4.5086,4.5971,4.6776,4.748,4.7601,4.7722,4.7722,4.7722,4.7722,4.7722,4.7722,4.7722,4.7722,4.7722,4.7722,4.7742,4.8104,4.8136,4.7703,4.7421,4.7979,4.8138,4.7392,4.683,4.6787,4.6544,4.6369,4.5982,4.54,4.4993,4.4603,4.4213,4.4034,4.4034,4.4034,4.4034,4.4034,4.4034,4.4034,4.4034,4.4034,4.4034,4.4034,4.4034,4.4034,4.4034,4.4034,4.4034,4.4034,4.4034,4.4034,4.4034,4.4034,4.4034,4.4034,4.4034,4.4034,4.4034,0.7918,0.8777,0.9312,1.1205,1.3866,1.395,1.553,1.7801,1.8685,1.9474,2.0156,2.0368,2.1645,2.2781,2.3919,2.5216,2.6279,2.6883,2.6999,2.7116,2.7116,2.6866,2.6497,2.6263,2.6615,2.7116,2.7716,2.7948,2.8295,2.8508,2.8944,2.9492,3.0411,3.1473,3.2565,3.365,3.4819,3.5725,3.656,3.7208,3.796,3.8747,3.8703,3.8652,3.9032,3.9533,3.9994,4.0761,4.1666,4.2008,4.239,4.239,4.239,4.241,4.2611,4.2873,4.3617,4.4422,4.5227,4.6132,4.6937,4.744,4.7641,4.7722,4.7722,4.7722,4.7722,4.7722,4.7722,4.7722,4.7722,4.7722,4.7722,4.7675,4.7755,4.7619,4.7713,4.8148,4.765,4.723,4.6992,4.7015,4.693,4.6948,4.6562,4.5788,4.5205,4.4799,4.4408,4.423,4.4034,4.4034,4.4034,4.4034,4.4034,4.4034,4.4034,4.4034,4.4034,4.4034,4.4034,4.4034,4.4034,4.4034,4.4034,4.4034,4.4034,4.4034,4.4034,4.4034,4.4034,4.4034,4.4034,4.4034,4.4034,0.7601,0.8783,0.9648,1.1655,1.4075,1.4169,1.551,1.7609,1.8231,1.8601,1.8975,1.9722,2.0957,2.2713,2.341,2.4606,2.6279,2.6866,2.6866,2.6749,2.6749,2.6397,2.5926,2.5572,2.6044,2.6497,2.6982,2.76,2.8197,2.841,2.8641,2.9017,3.0127,3.1015,3.1631,3.3461,3.4982,3.6013,3.7026,3.8323,3.9987,3.9736,3.9358,3.9254,3.9411,3.9815,4.0267,4.0721,4.1609,4.2108,4.237,4.239,4.239,4.239,4.239,4.2652,4.3155,4.3899,4.4603,4.5529,4.6615,4.7017,4.7279,4.7701,4.7722,4.7722,4.7722,4.7722,4.7722,4.7722,4.7722,4.7722,4.7722,4.7722,4.7615,4.7675,4.7755,4.783,4.7305,4.6859,4.6726,4.6758,4.6805,4.6841,4.6755,4.5982,4.5594,4.4993,4.462,4.423,4.4034,4.4034,4.4034,4.4034,4.4034,4.4034,4.4034,4.4034,4.4034,4.4034,4.4034,4.4034,4.4034,4.4034,4.4034,4.4034,4.4034,4.4034,4.4034,4.4034,4.4034,4.4034,4.4034,4.4034,4.4034,0.7442,0.9098,0.9969,1.1875,1.419,1.4284,1.5557,1.7431,1.7657,1.7854,1.7993,1.8941,2.0272,2.2142,2.2713,2.3976,2.5609,2.606,2.6531,2.6414,2.5926,2.569,2.569,2.5114,2.5335,2.591,2.638,2.6999,2.7966,2.8295,2.8526,2.881,2.9737,3.0802,3.1317,3.3413,3.5261,3.6494,3.7739,3.9484,4.0756,4.0508,4.0134,3.9847,3.9615,3.9738,4.0132,4.0638,4.1266,4.1988,4.2189,4.237,4.239,4.239,4.239,4.2491,4.2953,4.3436,4.412,4.5086,4.6072,4.6555,4.7158,4.752,4.7701,4.7722,4.7722,4.7722,4.7722,4.7722,4.7722,4.7722,4.7722,4.7722,4.7555,4.7555,4.7595,4.7407,4.6978,4.6796,4.6494,4.6612,4.6657,4.6734,4.6684,4.6369,4.5788,4.54,4.4816,4.423,4.4034,4.4034,4.4034,4.4034,4.4034,4.4034,4.4034,4.4034,4.4034,4.4034,4.4034,4.4034,4.4034,4.4034,4.4034,4.4034,4.4034,4.4034,4.4034,4.4034,4.4034,4.4034,4.4034,4.4034,4.4017,0.7596,0.9732,1.0167,1.1646,1.3772,1.441,1.5174,1.6133,1.6934,1.7465,1.7786,1.7967,1.9521,2.1434,2.1996,2.3272,2.475,2.5351,2.5706,2.5841,2.5367,2.5114,2.4995,2.4757,2.5216,2.591,2.6497,2.6982,2.7832,2.8197,2.841,2.8605,2.9573,3.0467,3.1484,3.3524,3.5474,3.6988,3.8675,4.0155,4.0903,4.1128,4.0734,4.0134,3.9572,3.9335,3.9618,3.9921,4.0237,4.1123,4.1787,4.231,4.237,4.239,4.239,4.2531,4.2591,4.2994,4.3658,4.4523,4.5408,4.6293,4.7178,4.742,4.7561,4.7581,4.7681,4.7722,4.7722,4.7722,4.7722,4.7722,4.7722,4.7722,4.7722,4.7722,4.7722,4.744,4.7125,4.6804,4.6551,4.6122,4.6344,4.6431,4.6365,4.6281,4.5771,4.5382,4.4799,4.4425,4.423,4.4034,4.4034,4.4034,4.4034,4.4034,4.4034,4.4034,4.4034,4.4034,4.4034,4.4034,4.4034,4.4034,4.4034,4.4034,4.4034,4.4034,4.4034,4.4034,4.4034,4.4034,4.4034,4.4017,4.4213,0.6967,0.8425,0.9545,1.0691,1.1954,1.3761,1.514,1.5981,1.6703,1.7218,1.7373,1.7802,1.906,2.0935,2.1477,2.2639,2.4575,2.4725,2.4995,2.5248,2.5011,2.4891,2.4891,2.4891,2.5335,2.6044,2.6749,2.7233,2.7966,2.8215,2.8197,2.8508,2.9387,3.0087,3.1466,3.3541,3.5742,3.7542,3.9097,4.0456,4.0903,4.115,4.1026,4.0654,4.0008,4.034,4.0899,3.9834,4.0563,4.1796,4.1367,4.1787,4.237,4.239,4.239,4.239,4.239,4.2652,4.3034,4.3839,4.4684,4.5529,4.6374,4.6816,4.7058,4.746,4.7641,4.7722,4.7722,4.7722,4.7722,4.7722,4.7722,4.7722,4.7722,4.7722,4.7722,4.7722,4.7311,4.6836,4.6432,4.5907,4.5805,4.6084,4.6116,4.6332,4.6176,4.5577,4.5205,4.462,4.4425,4.4017,4.4034,4.4034,4.4034,4.4034,4.4034,4.4034,4.4034,4.4034,4.4034,4.4034,4.4034,4.4034,4.4034,4.4034,4.4034,4.4034,4.4034,4.4034,4.4034,4.4034,4.4017,4.4213,4.4408,0.6483,0.7641,0.9197,0.9976,1.0675,1.3342,1.5347,1.6485,1.6806,1.7217,1.7332,1.7543,1.8536,2.0146,2.0765,2.2055,2.3229,2.4171,2.4487,2.4637,2.4637,2.4533,2.4772,2.4995,2.5572,2.6162,2.6866,2.7483,2.8099,2.8215,2.8215,2.8641,2.9842,3.0407,3.1824,3.3985,3.5794,3.7611,3.9306,4.039,4.1128,4.1374,4.152,4.1273,4.0756,4.0728,4.1154,4.0468,4.0933,4.2001,4.1714,4.1794,4.2564,4.2538,4.239,4.239,4.239,4.241,4.2531,4.3235,4.402,4.4724,4.5529,4.5971,4.6595,4.7138,4.7701,4.7722,4.7722,4.7722,4.7722,4.7722,4.7722,4.7722,4.7722,4.7722,4.7722,4.7535,4.7221,4.6694,4.5959,4.5524,4.5243,4.5575,4.6074,4.6453,4.6562,4.5982,4.5594,4.4993,4.4603,4.4408,4.4213,4.4034,4.4034,4.4034,4.4034,4.4034,4.4034,4.4034,4.4034,4.4034,4.4034,4.4034,4.4034,4.4034,4.4034,4.4034,4.4034,4.4034,4.423,4.4213,4.4213,4.4799,4.5188,0.6187,0.8296,0.9157,0.9769,1.0756,1.3342,1.575,1.7599,1.7319,1.7306,1.7803,1.7359,1.7884,1.8724,1.9621,2.0935,2.2215,2.2723,2.3484,2.4039,2.4279,2.4159,2.4518,2.5216,2.5808,2.6145,2.6866,2.7716,2.8099,2.8215,2.8641,2.9387,3.0407,3.1303,3.2587,3.4524,3.6282,3.7695,3.92,4.0525,4.1475,4.1598,4.1765,4.1765,4.1374,4.1239,4.1235,4.111,4.1526,4.1958,4.2063,4.2554,4.2759,4.2772,4.2538,4.239,4.239,4.239,4.2511,4.3054,4.3658,4.3819,4.4684,4.5529,4.6273,4.7078,4.7561,4.7722,4.7722,4.7722,4.7722,4.7722,4.7722,4.7722,4.7722,4.7722,4.7722,4.7535,4.7201,4.6738,4.5841,4.5285,4.5054,4.544,4.5941,4.6324,4.6595,4.6053,4.5964,4.5382,4.4993,4.4799,4.4213,4.4034,4.4034,4.4034,4.4034,4.4034,4.4034,4.4034,4.4034,4.4034,4.4034,4.4034,4.4034,4.4034,4.4034,4.4034,4.4034,4.423,4.4408,4.4408,4.4213,4.4799,4.5577,0.5714,0.6872,0.8545,0.9429,1.0234,1.3237,1.4931,1.575,1.6703,1.7319,1.7511,1.7332,1.7635,1.8522,1.9442,2.0496,2.1561,2.2531,2.3694,2.3679,2.4039,2.4279,2.4741,2.5572,2.6145,2.6749,2.7367,2.785,2.8215,2.8215,2.8756,2.9728,3.108,3.2189,3.3575,3.4845,3.6328,3.8053,3.9076,4.0403,4.1507,4.2033,4.2033,4.2033,4.2033,4.1888,4.1833,4.1632,4.1514,4.2115,4.2136,4.1966,4.2411,4.2552,4.239,4.239,4.239,4.239,4.239,4.2853,4.2913,4.3034,4.4322,4.5126,4.5649,4.6877,4.742,4.7701,4.7722,4.7722,4.7722,4.7722,4.7722,4.7722,4.7722,4.7722,4.7722,4.7722,4.7368,4.7181,4.6479,4.5654,4.5077,4.5561,4.5883,4.6156,4.6591,4.6403,4.6158,4.5964,4.5771,4.4993,4.4603,4.4213,4.4213,4.4034,4.4034,4.4034,4.4034,4.4034,4.4034,4.4034,4.4034,4.4034,4.4034,4.4034,4.4034,4.4034,4.423,4.4425,4.4603,4.4603,4.423,4.4799,4.5577,0.5233,0.6164,0.8201,0.9273,1.0191,1.3156,1.4608,1.5128,1.6575,1.7511,1.7613,1.7524,1.7777,1.8255,1.917,2.0131,2.1001,2.23,2.3453,2.3559,2.4024,2.4398,2.4979,2.5808,2.6631,2.6883,2.7617,2.8099,2.8215,2.8641,2.9063,2.9842,3.1191,3.2869,3.4017,3.5144,3.6209,3.8182,3.9259,4.0244,4.2018,4.2277,4.2422,4.2543,4.2543,4.252,4.2642,4.2254,4.2478,4.3306,4.2991,4.2692,4.305,4.2968,4.2645,4.239,4.239,4.239,4.239,4.239,4.239,4.2833,4.3698,4.4643,4.5167,4.6514,4.7259,4.7601,4.7701,4.7722,4.7722,4.7722,4.7722,4.7722,4.7722,4.7722,4.7722,4.7722,4.7555,4.7368,4.6846,4.5959,4.5417,4.5887,4.5981,4.6122,4.6514,4.6632,4.6684,4.6544,4.6158,4.5382,4.4993,4.4603,4.4408,4.4408,4.4408,4.4034,4.4034,4.4034,4.4034,4.4034,4.4034,4.4034,4.4034,4.4034,4.4034,4.4034,4.423,4.462,4.4816,4.4816,4.462,4.4993,4.5577,0.4935,0.6428,0.8095,0.937,1.0532,1.3149,1.469,1.5519,1.7075,1.8007,1.8108,1.8007,1.7769,1.7726,1.9116,1.987,2.0382,2.1727,2.2897,2.3529,2.4159,2.4383,2.5098,2.6044,2.6866,2.6749,2.7582,2.8428,2.8313,2.9196,2.9615,3.0407,3.1747,3.3087,3.4019,3.5189,3.6595,3.8137,3.917,4.0656,4.21,4.2642,4.2763,4.2884,4.3004,4.3004,4.3125,4.286,4.3209,4.389,4.3574,4.3651,4.3792,4.3603,4.3213,4.2538,4.239,4.239,4.239,4.239,4.239,4.2571,4.3336,4.4301,4.5066,4.5931,4.6836,4.7661,4.7722,4.7722,4.7722,4.7722,4.7722,4.7722,4.7722,4.7722,4.7722,4.7722,4.7722,4.7535,4.6866,4.6271,4.6113,4.6128,4.6055,4.6255,4.6807,4.6926,4.7117,4.693,4.6544,4.6158,4.5577,4.5188,4.4603,4.4603,4.4603,4.423,4.4034,4.4017,4.4017,4.4034,4.4034,4.4034,4.4034,4.4034,4.4034,4.4034,4.423,4.462,4.4816,4.4816,4.501,4.5205,4.5577,0.494,0.6392,0.8109,0.9453,1.0895,1.3562,1.5117,1.5957,1.7484,1.8108,1.8007,1.8297,1.8007,1.78,1.8882,1.9689,2.0203,2.1201,2.2594,2.3649,2.4398,2.486,2.569,2.6514,2.7233,2.7448,2.8259,2.9063,2.9178,3.0068,3.0744,3.1636,3.2739,3.3414,3.4127,3.469,3.6311,3.8368,3.9344,4.0165,4.2577,4.2884,4.3004,4.3125,4.3365,4.3365,4.3269,4.3652,4.3865,4.4013,4.4179,4.427,4.4064,4.3888,4.3527,4.3128,4.2686,4.239,4.239,4.239,4.239,4.2471,4.3195,4.404,4.5006,4.5911,4.6655,4.748,4.7681,4.7722,4.7722,4.7722,4.7722,4.7722,4.7722,4.7722,4.7722,4.7722,4.7722,4.7722,4.7535,4.7073,4.6923,4.653,4.69,4.7586,4.7883,4.8141,4.8034,4.7698,4.7315,4.6737,4.6158,4.5577,4.501,4.4799,4.4799,4.4408,4.4213,4.4213,4.4017,4.4034,4.4034,4.4034,4.4034,4.423,4.4034,4.4017,4.423,4.462,4.4425,4.423,4.462,4.501,4.5382,0.481,0.6371,0.7936,0.9633,1.127,1.3593,1.524,1.6447,1.7484,1.8007,1.8427,1.8297,1.7905,1.7683,1.865,1.9564,2.0302,2.1248,2.2932,2.4079,2.4757,2.5453,2.6162,2.6866,2.7466,2.8144,2.893,2.9615,3.0181,3.0968,3.1878,3.2759,3.3522,3.3976,3.4299,3.4666,3.6486,3.8479,3.939,4.0354,4.2538,4.3148,4.3148,4.3148,4.3365,4.3365,4.3509,4.3963,4.4082,4.4222,4.5088,4.5148,4.5114,4.5416,4.4951,4.413,4.3693,4.3107,4.2686,4.239,4.239,4.2531,4.2893,4.3557,4.4382,4.5348,4.6253,4.7017,4.744,4.7701,4.7722,4.7722,4.7722,4.7722,4.7722,4.7722,4.7722,4.7722,4.7722,4.7722,4.7722,4.7722,4.7368,4.7014,4.7795,4.8628,4.8989,4.9332,4.8888,4.8635,4.8081,4.7507,4.6544,4.5964,4.5205,4.5188,4.4993,4.4603,4.4196,4.4213,4.4034,4.4034,4.4034,4.4034,4.4034,4.4034,4.4017,4.4017,4.4213,4.4425,4.4425,4.423,4.4425,4.4816,4.5205,0.4704,0.6434,0.8001,0.9963,1.1969,1.3458,1.5247,1.7062,1.7395,1.8122,1.8629,1.8224,1.7613,1.763,1.8554,1.9668,2.097,2.2004,2.3456,2.4624,2.5351,2.5825,2.6631,2.7332,2.7913,2.8834,2.9842,3.0519,3.108,3.1878,3.278,3.3586,3.3868,3.4192,3.4406,3.4878,3.6544,3.7955,3.934,4.0815,4.2422,4.3125,4.3148,4.3125,4.3245,4.3365,4.3581,4.4295,4.4555,4.4485,4.6165,4.6734,4.6184,4.659,4.6134,4.4978,4.4421,4.3401,4.2686,4.239,4.239,4.239,4.2551,4.2974,4.3879,4.4623,4.5448,4.6414,4.7038,4.744,4.7661,4.7722,4.7722,4.7722,4.7722,4.7722,4.7722,4.7722,4.7722,4.7722,4.7722,4.7722,4.7368,4.7368,4.7957,4.8714,4.9219,4.9925,4.9637,4.9999,4.9283,4.8027,4.7069,4.6544,4.5788,4.5382,4.5365,4.5171,4.4782,4.4408,4.4034,4.4034,4.4034,4.4034,4.4034,4.4017,4.4017,4.4017,4.4213,4.4408,4.4603,4.4782,4.4976,4.5188,4.5188,0.532,0.7141,0.9055,1.0755,1.2306,1.4236,1.5947,1.7369,1.7701,1.8007,1.821,1.7803,1.7701,1.8163,1.893,2.0112,2.1656,2.1962,2.3432,2.4647,2.5351,2.5959,2.6866,2.7913,2.849,2.8949,3.0519,3.1545,3.21,3.278,3.3435,3.3868,3.4192,3.4406,3.4705,3.5197,3.5778,3.7203,3.8851,4.0953,4.2728,4.3365,4.3245,4.3365,4.3605,4.3868,4.4106,4.4791,4.5001,4.5249,4.6683,4.752,4.7066,4.7449,4.7026,4.5839,4.4689,4.3693,4.2833,4.239,4.239,4.239,4.2471,4.2732,4.3557,4.3879,4.4583,4.6092,4.6635,4.7098,4.752,4.7515,4.7535,4.7722,4.7722,4.7722,4.7722,4.7722,4.7722,4.7722,4.7722,4.7722,4.7722,4.7722,4.8124,4.8868,4.9532,5.0392,5.0904,5.1551,5.0408,4.8261,4.7763,4.7717,4.7122,4.6527,4.593,4.5736,4.5348,4.4782,4.4408,4.4017,4.4034,4.4034,4.4034,4.4017,4.4391,4.4196,4.4196,4.4587,4.4782,4.5154,4.5348,4.5348,4.5559,0.5817,0.7292,0.9024,1.0669,1.2108,1.4007,1.5693,1.6999,1.7492,1.7905,1.8007,1.7511,1.7613,1.8196,1.9005,2.0546,2.2098,2.2595,2.3778,2.5313,2.6162,2.6749,2.7547,2.8586,2.9615,3.0426,3.1545,3.2451,3.3217,3.3782,3.3998,3.4213,3.4406,3.4727,3.4918,3.547,3.5809,3.6823,3.8528,4.0907,4.2564,4.3365,4.3342,4.3245,4.3605,4.3963,4.4437,4.5025,4.5375,4.572,4.7295,4.8023,4.7898,4.8341,4.7956,4.667,4.5223,4.4089,4.3128,4.2538,4.239,4.239,4.245,4.2632,4.3054,4.3517,4.4322,4.5247,4.5911,4.6575,4.7038,4.748,4.7621,4.7722,4.7722,4.7722,4.7722,4.7722,4.7722,4.7722,4.7722,4.7722,4.7722,4.7762,4.8064,4.8687,4.9443,5.0335,5.1053,5.1785,5.0612,4.8738,4.8869,4.858,4.8008,4.7297,4.6702,4.6316,4.593,4.5365,4.4587,4.4213,4.4213,4.4034,4.4213,4.4603,4.4782,4.4587,4.4391,4.4587,4.4959,4.5154,4.5348,4.5542,4.614,0.6168,0.735,0.8721,1.0151,1.1831,1.3588,1.524,1.6726,1.7285,1.7599,1.8007,1.7524,1.7613,1.821,1.912,2.1021,2.2666,2.3531,2.453,2.6562,2.7099,2.7681,2.8472,2.9596,3.0612,3.1545,3.223,3.3217,3.3998,3.4213,3.4428,3.4513,3.4705,3.4918,3.5259,3.5786,3.6087,3.6966,3.873,4.0837,4.2778,4.3487,4.3581,4.3485,4.3605,4.4058,4.4649,4.5259,4.5724,4.6038,4.7897,4.8697,4.9018,5.0305,4.9348,4.7981,4.6581,4.5609,4.3964,4.2833,4.239,4.239,4.239,4.239,4.2652,4.3114,4.3537,4.3738,4.5006,4.5991,4.6555,4.7118,4.75,4.7641,4.7722,4.7722,4.7722,4.7722,4.7722,4.7722,4.7722,4.7722,4.7722,4.7802,4.7943,4.8635,4.9481,5.0079,5.0783,5.0895,5.0125,4.972,4.9637,4.8964,4.8395,4.7835,4.7279,4.6894,4.6316,4.5753,4.5365,4.4976,4.4603,4.4799,4.4587,4.4976,4.5365,4.5365,4.4782,4.5171,4.6123,4.6123,4.5753,4.6334,4.7105,0.6396,0.89,0.9616,1.0972,1.2609,1.4205,1.5618,1.6867,1.7157,1.7715,1.8399,1.8196,1.8196,1.8702,1.9872,2.1799,2.4462,2.4099,2.5598,2.7418,2.7913,2.8374,2.9369,3.0612,3.1616,3.2451,3.3217,3.4084,3.4428,3.4406,3.4513,3.4705,3.4918,3.5259,3.5703,3.61,3.6929,3.7919,3.9258,4.0803,4.2513,4.3697,4.4176,4.3963,4.42,4.4649,4.5118,4.5583,4.5955,4.656,4.7293,4.8053,4.8572,4.9216,4.9471,4.9082,4.7842,4.6342,4.4689,4.3254,4.2538,4.239,4.239,4.239,4.2491,4.2652,4.2994,4.3597,4.4301,4.4845,4.5971,4.6555,4.6997,4.742,4.7641,4.7722,4.7722,4.7722,4.7722,4.7722,4.7722,4.7722,4.7722,4.7782,4.7949,4.8581,4.9125,4.9744,5.0412,5.0598,5.0435,5.0261,4.9725,4.9122,4.8738,4.7924,4.8063,4.768,4.7105,4.6334,4.5947,4.5753,4.5947,4.5947,4.5947,4.5947,4.6334,4.6334,4.5947,4.614,4.7297,4.768,4.768,4.789,4.8272,0.735,0.9333,1.0411,1.1399,1.2512,1.4107,1.5662,1.6803,1.7238,1.7905,1.8601,1.85,1.85,1.9221,2.0038,2.2138,2.433,2.4654,2.6151,2.8297,2.9063,2.9728,3.0519,3.2059,3.2739,3.3414,3.4192,3.4727,3.4727,3.4727,3.4834,3.5047,3.5259,3.5576,3.5996,3.6332,3.7072,3.8235,3.9415,4.0916,4.2529,4.3345,4.3773,4.3963,4.4295,4.4884,4.5351,4.5699,4.607,4.6616,4.7119,4.8047,4.8821,4.9464,4.9791,5.0046,4.9109,4.7446,4.5653,4.3964,4.2813,4.2538,4.239,4.239,4.239,4.241,4.2591,4.3054,4.3356,4.414,4.5086,4.5931,4.6535,4.7058,4.746,4.7661,4.7722,4.7722,4.7722,4.7722,4.7722,4.7722,4.7722,4.7701,4.8014,4.8325,4.8676,4.9461,5.0146,5.0167,4.9851,4.9544,4.9216,4.8654,4.8473,4.8664,4.9034,4.8463,4.789,4.7122,4.672,4.6334,4.6527,4.7105,4.7297,4.7507,4.7507,4.7297,4.7297,4.7297,4.789,4.8463,4.8863,4.9243,4.9243,0.8405,0.9672,1.1051,1.1733,1.2204,1.4022,1.5585,1.6697,1.7514,1.8514,1.9522,1.912,1.9321,1.9923,2.0536,2.2232,2.4355,2.5544,2.6956,2.9389,3.0181,3.108,3.1747,3.3066,3.4062,3.4492,3.5024,3.5342,3.5364,3.5387,3.5259,3.5364,3.5681,3.5891,3.6205,3.6482,3.7305,3.8762,3.9666,4.1105,4.2628,4.344,4.3605,4.4058,4.4531,4.5001,4.5467,4.5814,4.616,4.6719,4.7036,4.8112,4.9261,4.9735,5.0413,5.0941,5.0087,4.8397,4.6744,4.4957,4.3547,4.296,4.296,4.2981,4.2686,4.2706,4.2726,4.2821,4.3074,4.3577,4.3738,4.5167,4.6072,4.6635,4.7138,4.7701,4.7722,4.7722,4.7722,4.7722,4.7722,4.7722,4.7701,4.7848,4.818,4.849,4.8985,4.9666,5.0162,5.004,4.9627,4.9121,4.8698,4.8552,4.8666,4.9288,4.9433,4.8757,4.8089,4.7308,4.7261,4.7087,4.7489,4.8081,4.8482,4.8635,4.8254,4.8063,4.8081,4.8482,4.8482,4.8672,4.9243,4.9641,4.9641,0.8823,1.0505,1.1198,1.2033,1.3046,1.4626,1.5847,1.6748,1.8162,1.9407,2.0437,2.0735,2.0818,2.1526,2.2,2.2654,2.407,2.5657,2.8448,3.0902,3.1434,3.1969,3.2739,3.3718,3.4599,3.5763,3.5973,3.5973,3.5973,3.5973,3.5786,3.547,3.6182,3.639,3.6286,3.6667,3.769,3.9409,3.9923,4.1152,4.3367,4.3914,4.42,4.4531,4.5025,4.5492,4.5814,4.6185,4.6414,4.6439,4.6616,4.789,4.9322,5.0081,5.0591,5.2468,5.0775,4.9288,4.7959,4.6386,4.4855,4.44,4.4566,4.4276,4.3693,4.3547,4.3254,4.2915,4.2571,4.2953,4.3678,4.4684,4.5529,4.6313,4.7158,4.7475,4.7722,4.7722,4.7722,4.7722,4.7722,4.7722,4.7701,4.7848,4.8345,4.882,4.9335,4.9868,5.0053,5.0095,4.983,4.9419,4.9161,4.9046,4.904,4.9593,4.8982,4.8307,4.7777,4.7544,4.7572,4.7544,4.7893,4.8907,4.9245,4.9339,4.9301,4.8997,4.9053,4.9452,4.9641,4.9452,4.9452,4.9831,4.9831,0.9315,1.0757,1.1761,1.2602,1.3522,1.5148,1.6383,1.7464,1.8846,2.0107,2.1032,2.1329,2.1608,2.2017,2.2505,2.2973,2.3892,2.6267,2.9174,3.1624,3.254,3.2848,3.3609,3.447,3.5236,3.595,3.639,3.6598,3.6598,3.6494,3.639,3.6205,3.6413,3.6724,3.6598,3.6621,3.797,3.9753,4.0286,4.1478,4.3723,4.4082,4.4295,4.4649,4.5234,4.5724,4.607,4.6325,4.6554,4.6668,4.6693,4.7426,4.8741,4.912,5.0207,5.1774,5.0884,4.9734,4.9039,4.7632,4.6408,4.5431,4.5431,4.5143,4.4999,4.4566,4.3985,4.3401,4.3001,4.2659,4.2994,4.3839,4.4704,4.5609,4.6474,4.7219,4.7601,4.7722,4.7722,4.7722,4.7722,4.7722,4.7868,4.8014,4.8511,4.9006,4.952,4.9847,5.0174,5.001,4.9847,4.9809,4.9689,4.9539,4.9481,4.9206,4.8665,4.8322,4.8009,4.8028,4.797,4.8103,4.8417,4.8454,4.8715,4.9146,4.9602,4.9925,4.9831,4.9831,4.9831,5.002,5.002,4.9831,5.002,1.0308,1.1354,1.2508,1.3396,1.4249,1.5899,1.7289,1.8456,1.9812,2.1016,2.1723,2.2017,2.231,2.2603,2.3184,2.3678,2.4817,2.7088,2.9478,3.2169,3.3158,3.3739,3.447,3.5531,3.6182,3.6494,3.6908,3.7113,3.7113,3.7113,3.701,3.6931,3.701,3.701,3.6908,3.7001,3.8065,3.9887,4.0263,4.1549,4.3676,4.4082,4.4319,4.4766,4.5234,4.5839,4.6325,4.6554,4.6668,4.6782,4.6947,4.7263,4.8109,4.8505,4.9741,5.1117,5.0911,5.0247,5.0007,4.9179,4.7933,4.6974,4.6997,4.6572,4.6408,4.5817,4.5266,4.4421,4.3818,4.3421,4.3144,4.3516,4.4327,4.5137,4.595,4.6959,4.7646,4.7701,4.7722,4.7722,4.7722,4.7701,4.7848,4.8345,4.8676,4.917,4.9499,5.001,5.001,5.001,5.001,5.0032,4.9812,4.9606,4.9604,4.9345,4.9026,4.8689,4.8596,4.8589,4.8733,4.8743,4.8647,4.8628,4.8446,4.8684,4.8976,4.9336,4.9735,4.9925,5.002,5.002,5.002,5.002,5.002,1.2176,1.3098,1.3458,1.4336,1.5672,1.7223,1.841,1.9523,2.115,2.2196,2.27,2.3378,2.357,2.405,2.4431,2.5782,2.7276,2.8549,3.0438,3.1977,3.3333,3.4385,3.532,3.6598,3.7216,3.7421,3.7546,3.7648,3.7625,3.7625,3.7444,3.7318,3.7804,3.7702,3.7318,3.7468,3.8476,3.9887,4.0374,4.1776,4.3699,4.42,4.4555,4.5118,4.5492,4.598,4.6325,4.6668,4.6782,4.6896,4.6896,4.7404,4.8242,4.8471,4.9563,5.0989,5.0992,5.0878,5.1234,5.0516,4.9774,4.9202,4.9065,4.8927,4.7933,4.7492,4.6952,4.5553,4.5431,4.4855,4.4235,4.4333,4.4953,4.5358,4.5944,4.7143,4.8245,4.818,4.7722,4.7722,4.7722,4.7868,4.8159,4.8656,4.915,4.952,4.9826,5.0174,5.0174,5.0174,5.0174,5.0195,5.0053,4.991,4.9666,4.9399,4.933,4.914,4.9331,4.9219,4.9356,4.9159,4.9042,4.9003,4.8668,4.8801,4.8762,4.8894,4.9203,4.945,4.9808,4.9811,5.002,5.019,5.019,1.3376,1.415,1.4758,1.5701,1.6971,1.815,1.9366,2.0557,2.1954,2.27,2.3088,2.378,2.4164,2.4336,2.517,2.6392,2.7844,2.9229,3.0845,3.2393,3.3546,3.4577,3.5741,3.701,3.775,3.775,3.803,3.8131,3.8107,3.8208,3.8006,3.7881,3.8107,3.8083,3.7804,3.8281,3.917,4.0498,4.1282,4.2269,4.4009,4.4555,4.5025,4.5118,4.5839,4.6095,4.6439,4.6668,4.6896,4.6896,4.6896,4.7074,4.7531,4.7582,4.8293,4.9766,5.0308,5.0616,5.1077,5.1077,5.081,5.0429,4.9886,4.9613,4.9339,4.8904,4.8466,4.7234,4.6833,4.6124,4.5352,4.505,4.5476,4.6189,4.6629,4.7232,4.7881,4.7897,4.7621,4.7701,4.7848,4.8159,4.8325,4.9006,4.952,4.9683,5.0174,5.0337,5.0337,5.0337,5.0337,5.0358,5.0358,5.0195,5.0095,5.0116,5.0207,4.998,4.9929,4.9855,4.9841,4.9452,4.8986,4.8467,4.8774,4.8823,4.8611,4.8486,4.8839,4.9269,4.9498,4.9747,5.0187,5.0547,5.0547,1.4582,1.5255,1.5991,1.7051,1.8211,1.9091,2.0278,2.1855,2.2764,2.3378,2.3762,2.4431,2.4792,2.4925,2.5948,2.7186,2.864,3.0021,3.153,3.2944,3.4017,3.498,3.6055,3.7318,3.7929,3.803,3.8309,3.8485,3.8485,3.8609,3.8609,3.8485,3.8585,3.8709,3.8709,3.8884,4.0042,4.1686,4.2221,4.3002,4.4494,4.5234,4.5351,4.5326,4.6095,4.6439,4.6554,4.6782,4.6896,4.6896,4.6896,4.6896,4.6947,4.6972,4.7505,4.8674,4.9639,5.046,5.1041,5.1547,5.1612,5.1261,5.0858,5.0453,5.0636,5.007,4.9477,4.8904,4.8189,4.7352,4.6692,4.6594,4.6694,4.7371,4.791,4.8366,4.8796,4.8594,4.849,4.849,4.849,4.8676,4.8841,4.9355,4.9683,4.9847,5.0174,5.0337,5.0337,5.0337,5.0521,5.0521,5.0662,5.0662,5.0662,5.0824,5.0726,5.0506,5.0496,5.0397,5.0228,5.0082,4.9316,4.8305,4.9182,4.916,4.8866,4.8566,4.849,4.8963,4.929,4.9937,5.0382,5.0923,5.0904,1.6214,1.6784,1.7148,1.8078,1.9522,2.0111,2.149,2.3224,2.3954,2.4431,2.4906,2.5546,2.5806,2.6264,2.7431,2.8825,3.018,3.1446,3.2649,3.3802,3.4936,3.5845,3.6678,3.7702,3.8309,3.8409,3.8485,3.8485,3.8585,3.8908,3.9008,3.8809,3.9378,3.9672,3.9403,3.9501,4.098,4.2955,4.2411,4.3529,4.6226,4.5624,4.5442,4.63,4.6439,4.6668,4.6782,4.687,4.6984,4.6896,4.6896,4.6896,4.6896,4.6896,4.7328,4.8318,4.9538,5.0431,5.1597,5.2046,5.2487,5.2217,5.1819,5.1686,5.1443,5.1041,5.0501,4.991,4.9637,4.9065,4.8328,4.8489,4.8558,4.7949,4.9192,5.0403,5.1815,5.101,5.0309,5.018,4.96,4.9129,4.9537,4.9642,5.001,5.0174,5.0337,5.0337,5.0337,5.0521,5.0521,5.0845,5.0986,5.0986,5.0824,5.0986,5.1007,5.0833,5.0804,5.0867,5.0613,5.0952,5.077,4.9914,4.9812,4.9647,4.958,4.9616,4.9655,4.9749,4.9948,5.0058,5.0605,5.1045,5.1278,1.7587,1.8089,1.8262,1.9127,2.0617,2.1017,2.2373,2.413,2.445,2.4887,2.5452,2.59,2.6178,2.6657,2.8068,2.9559,3.0705,3.1965,3.32,3.4489,3.5553,3.6286,3.6908,3.7726,3.8131,3.8385,3.8485,3.8685,3.9008,3.9206,3.9403,3.9574,4.0184,4.0404,4.0307,4.1032,4.2239,4.3964,4.4147,4.5044,4.6707,4.7133,4.6907,4.6933,4.7159,4.7071,4.687,4.7435,4.7435,4.6984,4.6896,4.6896,4.6896,4.6896,4.7048,4.7632,4.8547,4.9665,5.0634,5.137,5.1813,5.2618,5.2217,5.1952,5.1976,5.1686,5.1577,5.1285,5.0882,5.023,4.9637,4.95,4.975,5.0134,5.1244,5.1741,5.1396,5.0924,5.0618,5.0641,5.0211,5.0134,5.0074,5.017,5.0195,5.0337,5.0337,5.0337,5.0337,5.0499,5.0683,5.0845,5.1309,5.1309,5.1148,5.0986,5.0986,5.1179,5.1231,5.1081,5.1136,5.1567,5.1717,5.0811,5.064,5.0697,5.0247,5.0415,5.0689,5.1121,5.1417,5.1839,5.235,5.2527,5.2377,1.8751,1.9053,1.9384,2.0253,2.1395,2.1982,2.3294,2.4943,2.5,2.5358,2.5993,2.6271,2.673,2.7489,2.8864,3.0295,3.1553,3.2888,3.4195,3.5253,3.6182,3.6908,3.7216,3.7726,3.8107,3.8485,3.8609,3.9008,3.9599,3.982,3.999,4.0352,4.0858,4.117,4.117,4.1884,4.3449,4.5158,4.5504,4.6467,4.8316,4.8443,4.8249,4.7891,4.7976,4.7976,4.772,4.8054,4.7943,4.741,4.721,4.7097,4.706,4.7175,4.7226,4.7074,4.7912,4.8928,4.962,5.0515,5.1595,5.2222,5.2437,5.2324,5.2374,5.2241,5.2217,5.2241,5.171,5.1175,5.0882,5.0453,5.0699,5.1794,5.2349,5.2286,5.2126,5.1782,5.1501,5.1706,5.1077,5.1017,5.1124,5.047,5.0499,5.0499,5.0521,5.0683,5.0824,5.0986,5.1169,5.1331,5.1631,5.1953,5.1792,5.1631,5.1631,5.1417,5.1482,5.1557,5.1514,5.1687,5.1644,5.147,5.1631,5.1535,5.1169,5.1124,5.1351,5.1656,5.2349,5.3225,5.4398,5.4539,5.4179,1.9534,1.9645,2.0565,2.1432,2.2191,2.3254,2.4491,2.5503,2.5694,2.6086,2.6753,2.7049,2.7687,2.8917,3.0223,3.1611,3.2888,3.4448,3.5568,3.6055,3.7137,3.7648,3.775,3.8208,3.8509,3.8685,3.9008,3.9697,4.0449,4.0858,4.0954,4.1023,4.1617,4.1925,4.1991,4.2191,4.3922,4.6197,4.6179,4.7136,4.9767,4.9477,4.9072,4.9016,4.9396,4.9477,4.9396,4.9016,4.8715,4.8496,4.808,4.7582,4.7615,4.8157,4.813,4.7468,4.7886,4.8563,4.8919,5.0503,5.1294,5.1799,5.2376,5.2774,5.2612,5.253,5.2505,5.253,5.2109,5.1794,5.1794,5.2035,5.2167,5.206,5.2192,5.2721,5.3381,5.3914,5.4245,5.4312,5.2695,5.1793,5.2104,5.153,5.0857,5.0921,5.0986,5.1148,5.147,5.1631,5.1792,5.2113,5.2273,5.2273,5.2295,5.2295,5.1953,5.1792,5.1953,5.1953,5.1975,5.2113,5.2113,5.2113,5.2273,5.2273,5.1931,5.2018,5.2122,5.2507,5.3093,5.3846,5.4722,5.5398,5.5316,2.0626,2.0838,2.1859,2.2654,2.3275,2.464,2.5721,2.6416,2.6661,2.6937,2.7282,2.7394,2.8079,2.9287,3.0491,3.2179,3.4095,3.5395,3.6077,3.6286,3.7239,3.7828,3.8208,3.8409,3.8784,3.9476,3.9599,4.0087,4.1144,4.136,4.1617,4.1871,4.227,4.2455,4.2574,4.2822,4.4045,4.5904,4.6734,4.799,4.9987,5.0673,5.07,5.0411,5.1532,5.1987,5.1345,5.0882,5.0172,4.9207,4.8798,4.8753,4.8983,4.9337,4.9248,4.8541,4.8092,4.8003,4.8848,4.9301,5.0274,5.1572,5.2079,5.2636,5.306,5.3031,5.3031,5.3031,5.2612,5.2349,5.2456,5.2824,5.3111,5.298,5.298,5.3156,5.3351,5.3402,5.3536,5.3716,5.2798,5.2728,5.3207,5.2008,5.1771,5.2163,5.1748,5.147,5.1631,5.1953,5.2113,5.2295,5.2433,5.2614,5.2455,5.2455,5.2433,5.2433,5.2455,5.2455,5.2614,5.2614,5.2614,5.2592,5.2592,5.2614,5.2774,5.2774,5.3124,5.3552,5.3881,5.4435,5.5418,5.6117,5.6531,2.1878,2.1982,2.3287,2.3963,2.4358,2.6086,2.6942,2.71,2.7324,2.7506,2.7667,2.7758,2.8639,3.0085,3.0956,3.2859,3.5291,3.6077,3.6678,3.709,3.7828,3.8433,3.8784,3.8983,3.9451,3.9965,4.0087,4.0667,4.1804,4.2018,4.2297,4.2639,4.2849,4.2913,4.3032,4.3277,4.4273,4.5676,4.721,4.8702,5.0235,5.1651,5.2304,5.1998,5.3206,5.3572,5.2821,5.2247,5.1476,5.0407,5.0066,5.0284,5.1032,5.0671,5.0118,4.9351,4.8501,4.8104,4.8464,4.8643,4.942,5.0773,5.1135,5.1697,5.2662,5.2813,5.2836,5.3295,5.3005,5.2875,5.298,5.3241,5.3396,5.3396,5.3371,5.3396,5.3266,5.3136,5.3266,5.3287,5.3511,5.3624,5.3782,5.2802,5.2239,5.2996,5.2621,5.2351,5.2573,5.2592,5.2433,5.2592,5.2751,5.2774,5.2455,5.2774,5.2933,5.2933,5.2933,5.2774,5.2774,5.2774,5.2774,5.2774,5.2774,5.2774,5.2774,5.2977,5.3379,5.3723,5.422,5.4899,5.6481,5.6081,5.6829,2.31,2.322,2.467,2.5107,2.5163,2.7482,2.8209,2.7827,2.8029,2.7939,2.7827,2.8231,2.9446,3.1129,3.1684,3.3495,3.6137,3.6884,3.7499,3.8409,3.9008,3.9304,3.9329,3.977,4.0062,4.0256,4.0596,4.136,4.2297,4.2639,4.2913,4.3123,4.3123,4.3095,4.3214,4.3394,4.4245,4.5574,4.7409,4.9125,5.0512,5.2317,5.356,5.3923,5.434,5.4244,5.3699,5.3148,5.2593,5.2392,5.1812,5.2067,5.3026,5.1979,5.0932,4.9905,4.957,4.9051,4.8221,4.8501,4.8939,4.9195,4.9854,5.0605,5.1746,5.1926,5.2358,5.3323,5.3168,5.3194,5.3298,5.327,5.3396,5.3396,5.3396,5.3396,5.3396,5.3396,5.3396,5.3523,5.4207,5.4531,5.4244,5.2969,5.2932,5.3535,5.3135,5.2894,5.3803,5.3363,5.298,5.2843,5.2933,5.2933,5.2774,5.2933,5.2933,5.2933,5.2933,5.2774,5.2933,5.2933,5.2774,5.2774,5.2933,5.2933,5.2933,5.3111,5.3424,5.3691,5.4026,5.4517,5.5521,5.5678,5.6146,2.4291,2.4452,2.4465,2.5203,2.6543,2.8969,2.9807,2.9433,2.9301,2.9191,2.9146,2.8881,3.0002,3.1844,3.2626,3.4303,3.6721,3.7702,3.8409,3.9032,3.9599,3.999,4.0307,4.0184,4.0449,4.1049,4.117,4.1523,4.2363,4.2822,4.3032,4.3095,4.3095,4.3095,4.3186,4.3574,4.4099,4.4752,4.7323,4.9104,5.0175,5.2687,5.434,5.4819,5.4914,5.4914,5.4789,5.4214,5.3669,5.3189,5.2779,5.2807,5.3475,5.3453,5.3306,5.2967,5.1445,4.9872,4.8491,4.8341,4.8688,4.921,4.9429,4.9913,5.0869,5.1739,5.2228,5.2382,5.256,5.256,5.2636,5.3146,5.3475,5.3396,5.3396,5.3396,5.3396,5.3396,5.3396,5.3396,5.3856,5.3848,5.3645,5.3368,5.32,5.3999,5.3125,5.2636,5.3517,5.3077,5.2575,5.3228,5.3047,5.2888,5.2933,5.2843,5.2933,5.2933,5.2866,5.2843,5.2933,5.291,5.291,5.291,5.2933,5.2933,5.2933,5.2933,5.3134,5.3267,5.3357,5.3647,5.4584,5.4718,5.5187,2.5313,2.527,2.4818,2.5661,2.755,2.9979,3.076,3.0392,3.0178,3.0068,2.9917,3.0391,3.1462,3.2774,3.3735,3.5463,3.7857,3.8309,3.9008,3.9918,4.021,4.05,4.0814,4.0858,4.1144,4.1737,4.1711,4.2018,4.2482,4.2849,4.3032,4.3123,4.3367,4.3367,4.3214,4.3815,4.4082,4.4166,4.7309,4.9211,5.0144,5.2891,5.4753,5.5291,5.5385,5.5415,5.5479,5.5227,5.4789,5.4252,5.402,5.3983,5.4196,5.4374,5.4585,5.4616,5.2902,5.1152,4.9449,4.8825,4.8674,4.9105,4.9071,4.9337,5.0099,5.0795,5.1086,5.1138,5.1645,5.1877,5.1734,5.2407,5.2943,5.2891,5.3247,5.3396,5.3396,5.3396,5.3396,5.3396,5.3396,5.3396,5.3498,5.3427,5.3826,5.4334,5.3486,5.3209,5.3896,5.31,5.2802,5.3128,5.2814,5.2637,5.2821,5.2755,5.2442,5.2308,5.233,5.233,5.2286,5.233,5.2509,5.291,5.291,5.2933,5.291,5.2933,5.2933,5.2977,5.2977,5.3067,5.3669,5.3781,5.3959,2.6244,2.5848,2.563,2.6543,2.8302,3.0582,3.1273,3.097,3.0846,3.0674,3.0681,3.2302,3.3206,3.3774,3.4897,3.6872,3.9082,3.8908,3.9501,4.0788,4.091,4.091,4.1006,4.1643,4.1991,4.1991,4.2204,4.2482,4.2758,4.2758,4.2849,4.3186,4.3664,4.3664,4.3394,4.4082,4.4346,4.4077,4.7378,4.9434,5.0155,5.2755,5.4527,5.5242,5.5242,5.5395,5.5457,5.5638,5.5303,5.4932,5.4749,5.4806,5.4766,5.472,5.4776,5.4944,5.3967,5.2585,5.0846,4.9719,4.9152,4.9043,4.8685,4.8799,4.9602,4.953,4.953,4.9968,5.0804,5.1194,5.0701,5.1529,5.2097,5.2102,5.2739,5.3425,5.3475,5.3396,5.3396,5.3396,5.3396,5.3396,5.3396,5.3472,5.3878,5.4657,5.379,5.3501,5.4274,5.3611,5.2845,5.2948,5.2646,5.253,5.2811,5.246,5.2178,5.1589,5.1589,5.1458,5.148,5.1371,5.1616,5.2263,5.2665,5.2732,5.2821,5.2933,5.2933,5.2933,5.2933,5.2955,5.2933,5.3022,5.3067,2.7303,2.6996,2.6505,2.7404,2.9191,3.1107,3.2008,3.2067,3.184,3.2032,3.2429,3.2978,3.375,3.4573,3.6079,3.7655,3.923,4.0016,4.0693,4.1455,4.1643,4.1737,4.1804,4.2111,4.227,4.227,4.2363,4.2455,4.2731,4.2758,4.2913,4.3214,4.3692,4.3871,4.3781,4.4258,4.4609,4.4897,4.729,4.8978,4.9438,5.1191,5.2351,5.2845,5.2819,5.2792,5.2792,5.2792,5.2792,5.2617,5.2499,5.2804,5.3694,5.3883,5.4331,5.5153,5.45,5.3691,5.3015,5.1384,5.0041,4.9557,4.9341,4.9203,4.9196,4.9385,4.9495,4.9739,5.0421,5.0716,5.0554,5.0972,5.162,5.2123,5.223,5.2561,5.3323,5.3396,5.3396,5.3396,5.3396,5.3396,5.3396,5.3396,5.3628,5.3751,5.3201,5.3119,5.3815,5.3239,5.287,5.3108,5.3089,5.3014,5.3106,5.3031,5.2615,5.158,5.1409,5.1156,5.0601,5.0322,5.0701,5.1504,5.1772,5.204,5.2732,5.2888,5.2888,5.2933,5.2933,5.2933,5.2933,5.2933,5.2933,2.7664,2.7655,2.7265,2.8114,2.9886,3.0684,3.1647,3.2729,3.3025,3.3325,3.3746,3.4792,3.5355,3.5843,3.7616,3.9072,4.0016,4.05,4.1101,4.1643,4.1925,4.2018,4.1991,4.2666,4.2913,4.2941,4.3005,4.3214,4.3277,4.3032,4.3032,4.3214,4.3664,4.4049,4.4198,4.4841,4.51,4.5186,4.7173,4.8479,4.8906,5.0358,5.1363,5.1788,5.1909,5.1939,5.2025,5.2255,5.192,5.1114,5.1576,5.1768,5.163,5.2385,5.2873,5.3104,5.2844,5.2358,5.1679,5.1136,5.0693,5.0278,5.0174,4.9824,4.9121,4.9582,4.9854,4.9773,5.015,5.0223,4.9832,5.0407,5.083,5.0975,5.1176,5.1669,5.251,5.2739,5.2967,5.3425,5.3396,5.3396,5.3396,5.3396,5.3396,5.3371,5.3241,5.3181,5.3652,5.3486,5.3486,5.3803,5.3555,5.3526,5.3737,5.353,5.2942,5.2209,5.1516,5.0817,5.0403,4.9546,4.9846,5.0523,5.0768,5.117,5.204,5.2241,5.2486,5.271,5.2933,5.2933,5.2933,5.2933,5.2933,2.7665,2.811,2.7834,2.8785,3.0467,3.0126,3.1171,3.3244,3.4126,3.4497,3.455,3.6419,3.7198,3.7039,3.9107,4.0321,4.0884,4.098,4.1265,4.1737,4.2018,4.2177,4.227,4.3214,4.3664,4.3664,4.3932,4.3932,4.3843,4.3547,4.3277,4.3277,4.3754,4.4086,4.4413,4.5183,4.5548,4.5269,4.6852,4.7922,4.8693,4.9881,5.0706,5.1242,5.144,5.1585,5.1699,5.1948,5.1335,4.9746,5.0753,5.071,4.9148,5.0257,5.0758,5.001,4.9981,4.9657,4.863,4.959,5.0374,5.0433,5.0391,4.9901,4.878,4.9578,5.0087,4.9981,5.0039,4.9772,4.9287,4.989,5.0013,4.9674,5.0125,5.0741,5.1692,5.2024,5.2382,5.3223,5.3399,5.3501,5.3656,5.363,5.363,5.3656,5.3656,5.3656,5.3887,5.4171,5.4581,5.4709,5.4171,5.4012,5.422,5.3911,5.337,5.28,5.1813,5.1119,5.0839,5.0017,4.9718,5.0282,5.0463,5.0744,5.1342,5.1544,5.208,5.2734,5.2891,5.2868,5.3047,5.3048,5.3138,2.7847,2.8758,2.8426,2.9519,3.1437,3.1226,3.2223,3.3889,0.0,0.0,0.0,3.643,3.7323,3.792,3.9227,4.0443,4.1428,4.1711,4.1898,4.227,4.2758,4.3032,4.3304,4.3965,4.4318,4.4346,4.4318,4.4258,4.396,4.417,4.4082,4.3871,4.417,4.41,4.3587,4.4137,4.4624,4.5163,4.6067,4.7396,4.919,4.9652,4.9929,5.0049,4.9776,4.95,4.9267,4.9267,4.8622,4.7226,4.7348,4.7304,4.6983,4.6969,4.7217,4.7644,4.7213,4.6706,4.6421,4.6898,4.7174,4.7128,4.8282,4.8131,4.6073,4.7802,4.9268,5.0004,5.0204,5.0333,5.0466,5.007,4.9815,5.0092,4.9983,5.0271,5.1173,5.2129,5.2625,5.296,5.3554,5.4017,5.4274,5.4146,5.4043,5.43,5.4325,5.4454,5.4454,5.4657,5.5164,5.5317,5.5317,5.509,5.5018,5.4814,5.4248,5.3307,5.2969,5.263,5.1784,5.1492,5.1661,5.1755,5.1781,5.1829,5.1725,5.1831,5.22,5.2604,5.2917,5.3099,5.3339,5.3511,5.3574,2.8778,0.0,2.9099,3.0168,0.0,3.1993,3.3344,3.5685,3.6139,3.6336,3.6372,3.7325,3.829,3.9321,4.0168,4.1172,4.2363,4.2297,4.2389,4.2731,4.3214,4.3574,4.3815,4.4609,4.487,4.487,4.487,4.4696,4.4258,4.4696,4.4434,4.3547,4.4434,4.4244,4.2912,4.3463,4.3872,4.411,4.6254,4.7943,4.9075,4.9342,4.9563,4.9636,4.9636,0.0,0.0,0.0,0.0,0.0,0.0,0.0,0.0,0.0,0.0,4.4368,4.317,4.2285,4.1745,4.2416,4.2885,4.3335,4.4383,4.4319,4.2564,4.5075,4.7242,4.8663,4.8825,4.8882,4.9011,4.8863,4.8815,4.9289,4.9234,4.9624,5.0785,5.1366,5.173,5.1966,5.2878,5.3449,5.3727,5.404,5.4402,5.4581,5.4581,5.4709,5.481,5.5416,5.5792,5.6068,5.6068,5.6042,5.5917,5.5766,5.5515,5.4859,5.4324,5.3761,5.3219,5.2649,5.2249,5.2262,5.2299,5.2259,5.2042,5.2185,5.223,5.2335,5.2464,5.2649,5.3019,5.3284,5.323,2.9701,3.0,2.9828,3.0913,3.2781,3.2914,3.4679,3.7492,3.7821,3.7963,3.7936,3.8323,3.907,4.0195,4.0622,4.1604,4.2858,4.2406,4.2605,4.3304,4.3547,4.3904,4.4406,4.5129,4.55,4.5471,4.55,4.53,4.4755,4.5243,4.487,4.3726,4.487,4.4414,4.2628,0.0,0.0,0.0,4.6511,4.8464,4.9075,4.9427,4.9655,4.9863,5.0252,0.0,5.0213,5.0347,4.9742,4.8339,4.9047,0.0,0.0,0.0,0.0,0.0,0.0,0.0,0.0,0.0,0.0,0.0,3.8828,3.8916,3.9108,4.1654,4.4191,4.638,4.6675,4.6691,4.6786,4.6842,4.7148,4.7629,4.7645,4.8363,5.0119,5.0294,5.0539,5.1,5.2199,5.293,5.2885,5.3796,5.4498,5.4472,5.4706,5.4907,5.4785,5.5579,5.6311,5.6391,5.6553,5.6687,5.6687,5.6687,5.6564,5.6564,5.5588,5.5059,5.4933,5.3991,5.3298,5.3064,5.3064,5.3025,5.2692,5.259,5.268,5.2493,5.2418,5.2635,5.3017,5.3279,5.3161,3.0006,3.0425,3.0429,3.181,3.421,3.4535,3.6157,3.8651,3.8425,3.8701,3.9199,3.8589,3.8624,3.9035,3.9126,4.0257,4.206,4.1828,4.2493,4.3843,4.3993,4.4406,4.5129,4.5838,4.6145,4.6174,4.637,4.6203,4.55,4.5923,4.5894,4.5527,4.5725,4.4783,4.283,4.3924,4.4147,4.3364,4.6074,4.844,5.0276,5.0806,5.1049,5.1117,5.1117,5.0944,5.0489,5.0521,4.9818,4.8375,4.8371,4.7124,4.4418,4.2491,4.0151,0.0,3.4764,0.0,0.0,0.0,0.0,0.0,0.0,0.0,0.0,3.72,3.9095,4.3167,4.397,4.4225,4.4315,4.377,4.3892,4.5185,4.5198,4.5997,4.8434,4.9579,5.0475,5.1078,5.2342,5.2886,5.2232,5.3473,5.4187,5.4022,5.4803,5.5067,5.4121,5.4744,5.5485,5.5895,5.674,5.7028,5.6839,5.692,5.6825,5.6607,5.6376,5.6783,5.6526,5.6675,5.6457,5.566,5.541,5.5138,5.3991,5.3964,5.3954,5.3368,5.3516,5.3765,5.4075,5.4238,5.441,3.1407,3.1497,3.152,3.223,3.3471,3.5263,3.693,3.8484,3.9241,3.9608,3.9608,3.8498,3.8002,3.8099,3.8122,3.9012,4.0548,4.1143,4.2154,4.3478,4.4042,4.4946,4.609,4.6423,4.6559,4.6506,4.6618,4.634,4.5838,4.6588,4.6234,4.4628,4.5988,4.5143,4.2248,4.3306,4.3963,4.4029,4.6023,4.8211,5.0457,5.1285,5.1686,5.1884,5.1949,5.2014,5.185,5.1586,5.1258,5.0573,4.9399,4.7361,4.4503,4.1026,3.7558,0.0,0.0,0.0,0.0,0.0,0.0,0.0,0.0,0.0,0.0,0.0,3.6354,3.8228,4.0187,4.1592,4.2155,4.1456,4.1288,4.2163,4.2009,4.2487,4.3989,4.5959,4.6942,4.6574,4.9096,5.0811,5.0554,5.1977,5.3209,5.359,5.4045,5.4202,5.3867,5.4233,5.4872,5.5015,5.5453,5.5693,5.5459,5.5459,5.5342,5.5224,5.5342,5.5459,5.5486,5.5977,5.644,5.6081,5.6474,5.651,5.5364,5.5238,5.4989,5.427,5.4093,5.4273,5.435,5.4402,5.45,3.2547,3.1971,3.1452,3.1663,3.2437,3.4832,3.6441,3.7414,3.9008,3.9438,3.9032,3.7538,3.684,3.6685,3.6319,3.6872,3.8382,3.9559,4.0994,4.2567,4.3571,4.467,4.5784,4.6342,4.6452,4.5974,4.6321,4.605,4.5401,4.6074,4.544,4.3625,4.4865,4.4006,4.0941,4.265,4.4026,4.5087,4.6733,4.8629,5.0667,5.1653,5.2271,5.2401,5.2683,5.2869,5.2807,5.2498,5.2141,5.184,4.9819,4.719,4.3713,3.9092,0.0,0.0,0.0,0.0,0.0,0.0,0.0,0.0,0.0,2.5793,2.8524,0.0,3.3299,0.0,3.6369,3.8586,3.9782,3.8899,0.0,0.0,3.8335,3.8425,3.9566,4.1601,4.2778,4.2277,4.5593,4.7898,4.7819,4.997,5.1632,5.1994,5.1775,5.1802,5.2327,5.3096,5.3785,5.3923,5.4422,5.467,5.4613,5.453,5.4698,5.4418,5.4247,5.4106,5.3992,5.4757,5.5358,5.5412,5.615,5.6375,5.5598,5.553,5.5137,5.4495,5.4256,5.4246,5.424,5.4175,5.3978,3.2639,3.1051,2.9126,2.9644,3.1815,3.2878,3.3999,3.5174,3.6716,3.7221,3.6838,3.5372,3.4591,3.4364,3.2721,0.0,3.5091,3.6283,3.8249,4.075,4.2251,4.3051,4.3364,4.5226,4.5315,4.3828,4.5256,4.5195,4.3754,4.338,4.3215,4.3366,4.1683,3.9972,3.8692,4.2261,4.5048,4.6651,4.8611,5.0149,5.1114,5.2332,5.2891,5.2836,5.3174,5.3087,5.2561,5.2498,5.1678,5.0072,4.8316,4.5457,4.1091,0.0,0.0,0.0,0.0,0.0,0.0,0.0,0.0,0.0,0.0,0.0,0.0,0.0,0.0,0.0,3.2763,0.0,3.7214,3.578,0.0,0.0,0.0,3.3533,3.6077,3.7391,3.8694,4.0225,0.0,0.0,4.3786,4.726,4.9419,4.8369,4.7867,4.7671,4.784,5.0367,5.2178,5.2149,5.3957,5.5419,5.4997,5.538,5.5431,5.4969,5.4699,5.3832,5.3719,5.3938,5.4047,5.4047,5.4211,5.432,5.4151,5.4096,5.4151,5.3955,5.39,5.396,5.3894,5.3226,5.305,3.0684,2.7327,2.8293,2.8059,2.7315,3.016,3.151,3.18,3.4213,3.5102,3.4736,3.2467,3.1319,3.0882,2.8648,0.0,0.0,0.0,3.5601,3.8483,4.0579,4.2328,4.3717,4.4741,4.4354,4.2883,4.3237,4.2672,4.1226,4.1096,3.9049,3.5272,0.0,0.0,3.4448,3.8451,4.1961,4.4738,4.7376,4.9658,5.1452,5.2205,5.2769,5.3147,5.3328,5.3328,5.3087,5.1882,5.0439,4.8971,4.534,4.1232,0.0,0.0,0.0,0.0,0.0,0.0,0.0,0.0,0.0,0.0,0.0,2.0967,2.3079,0.0,0.0,0.0,2.8999,3.1525,3.455,3.341,0.0,0.0,0.0,0.0,0.0,0.0,0.0,3.5118,3.933,4.2439,4.3007,4.4349,4.5617,4.6236,4.6748,4.7314,4.7989,0.0,5.0255,5.0419,5.1151,5.1708,5.1708,5.158,5.1452,5.1252,5.0573,5.0011,4.9754,5.0356,5.0961,5.1644,5.2381,5.3091,5.3856,5.1534,4.9919,5.0551,5.0715,5.1068,5.1671,5.2133,5.2366,2.719,0.0,0.0,0.0,0.0,2.7119,2.8487,2.8182,3.063,3.1646,3.1285,2.8959,0.0,0.0,0.0,0.0,0.0,0.0,3.235,3.5481,3.7991,4.0181,4.2001,4.2772,4.2279,4.0755,4.0403,3.9508,3.8111,3.6294,3.2662,2.7574,0.0,0.0,0.0,0.0,3.9162,4.3213,4.6609,4.9556,5.1883,5.2395,5.2952,5.3566,5.3217,5.2888,5.2771,5.0366,4.8264,4.641,4.1612,0.0,0.0,0.0,0.0,0.0,0.0,0.0,0.0,0.0,0.0,0.0,0.0,0.0,0.0,0.0,0.0,0.0,0.0,0.0,3.0946,3.1273,3.0376,0.0,0.0,0.0,0.0,0.0,0.0,0.0,0.0,0.0,4.0248,4.1315,4.2701,0.0,0.0,4.6923,4.7663,4.8463,4.8967,4.9209,4.9438,0.0,4.8967,4.8789,4.84,4.7663,4.733,4.6895,4.6196,4.665,4.751,4.8714,4.9486,4.995,4.9681,4.6874,4.5212,4.6057,4.6384,4.6793,4.7809,4.8733,4.9495,0.0,0.0,0.0,0.0,0.0,0.0,0.0,0.0,2.5755,2.6397,0.0,2.478,0.0,0.0,0.0,0.0,0.0,2.5796,0.0,0.0,3.3928,3.5765,3.6909,3.8619,3.8435,3.6816,3.6551,3.5783,3.4155,2.7995,0.0,0.0,0.0,0.0,0.0,0.0,3.7511,4.3022,4.7039,5.0212,5.2365,5.3174,5.3857,5.4276,5.2716,5.162,5.1114,4.7858,4.464,4.1686,3.6998,0.0,0.0,0.0,0.0,0.0,0.0,0.0,0.0,0.0,0.0,0.0,0.0,0.0,0.0,0.0,0.0,0.0,0.0,0.0,0.0,2.9281,0.0,0.0,0.0,0.0,0.0,0.0,0.0,0.0,0.0,0.0,3.4401,3.799,4.1308,4.2993,0.0,0.0,0.0,0.0,4.8624,4.8624,4.9716,4.9981,4.8599,4.8851,4.8292,4.5988,0.0,0.0,4.4399,4.3948,4.3999,4.5236,4.5211,4.3958,4.0342,3.9559,3.9721,4.0829,4.1018,4.1415,4.2455,4.2898,4.3652,0.0,0.0,0.0,0.0,0.0,0.0,0.0,0.0,0.0,2.4117,0.0,2.1312,0.0,0.0,0.0,0.0,0.0,0.0,0.0,0.0,3.0544,3.2498,3.4426,3.5115,3.4169,0.0,3.1521,2.9856,0.0,0.0,0.0,0.0,0.0,0.0,0.0,0.0,3.4747,4.0844,4.5271,4.9197,5.2578,5.338,5.3995,5.4565,5.3938,5.2415,5.002,4.5628,4.1374,0.0,0.0,0.0,0.0,0.0,0.0,0.0,0.0,0.0,0.0,0.0,0.0,0.0,0.0,0.0,0.0,0.0,0.0,0.0,0.0,0.0,0.0,0.0,2.7792,0.0,0.0,0.0,0.0,0.0,0.0,0.0,0.0,0.0,3.1923,3.4862,3.8258,4.1668,4.3454,4.488,4.6329,0.0,0.0,0.0,0.0,0.0,0.0,0.0,4.6333,4.5357,4.4084,4.2602,4.1212,3.9703,3.9026,4.0064,0.0,0.0,3.5181,3.456,3.4593,3.5073,3.5154,3.5505,3.6615,3.7478,3.8476,0.0,0.0,0.0,0.0,0.0,0.0,0.0,0.0,0.0,2.0204,1.9753,0.0,0.0,0.0,0.0,0.0,0.0,0.0,0.0,0.0,0.0,0.0,3.0674,3.0694,0.0,0.0,0.0,0.0,0.0,0.0,0.0,0.0,0.0,0.0,0.0,0.0,3.3153,3.973,4.4548,4.8924,5.2735,5.3557,5.4164,5.4619,5.4314,5.2391,4.8865,0.0,0.0,0.0,0.0,0.0,0.0,0.0,0.0,0.0,0.0,0.0,0.0,0.0,0.0,0.0,0.0,0.0,0.0,0.0,0.0,0.0,0.0,0.0,0.0,0.0,2.5661,0.0,0.0,0.0,0.0,0.0,0.0,0.0,0.0,0.0,0.0,0.0,3.5543,3.9288,4.2025,4.4306,4.6054,4.697,4.754,0.0,0.0,0.0,0.0,0.0,0.0,0.0,0.0,0.0,0.0,0.0,0.0,0.0,0.0,3.2355,2.9814,2.9091,2.9064,2.9802,0.0,0.0,0.0,0.0,0.0,0.0,0.0,0.0,0.0,0.0,0.0,0.0,0.0,0.0,0.0,0.0,0.0,0.0,1.437,0.0,0.0,0.0,0.0,0.0,0.0,0.0,0.0,0.0,0.0,0.0,0.0,0.0,0.0,0.0,0.0,0.0,0.0,0.0,0.0,0.0,0.0,3.281,3.9722,4.4903,4.9263,5.2797,5.3615,5.422,5.455,5.3614,5.1312,4.7649,0.0,0.0,0.0,0.0,0.0,0.0,0.0,0.0,0.0,0.0,0.0,0.0,0.0,0.0,0.0,0.0,0.0,0.0,0.0,0.0,0.0,0.0,0.0,0.0,0.0,0.0,2.5947,2.5128,2.4255,0.0,0.0,0.0,0.0,0.0,0.0,0.0,0.0,0.0,0.0,4.0298,4.3784,4.5115,4.659,4.756,4.762,4.756,4.7295,4.6497,4.5107,4.3175,0.0,0.0,0.0,0.0,0.0,0.0,0.0,0.0,0.0,0.0,0.0,0.0,0.0,0.0,0.0,0.0,0.0,0.0,0.0,0.0,0.0,0.0,0.0,0.0,0.0,0.0,0.0,0.0,0.0,0.0,0.0,0.0,0.0,0.0,0.0,0.0,0.0,0.0,0.0,0.0,0.0,0.0,0.0,0.0,0.0,0.0,0.0,0.0,0.0,0.0,0.0,0.0,0.0,0.0,3.2241,3.853,4.4356,4.9141,5.2769,5.3581,5.4241,5.4677,5.3479,5.0776,0.0,0.0,0.0,0.0,0.0,0.0,0.0,0.0,0.0,0.0,0.0,0.0,0.0,0.0,0.0,0.0,0.0,0.0,0.0,0.0,0.0,0.0,0.0,0.0,0.0,0.0,0.0,0.0,2.5545,2.6204,2.571,0.0,0.0,0.0,0.0,0.0,0.0,0.0,0.0,0.0,0.0,4.2546,4.5316,4.604,4.6644,4.7894,4.7226,4.6954,4.7778,4.5907,4.3721,4.1638,0.0,0.0,0.0,0.0,0.0,0.0,0.0,0.0,0.0,0.0,0.0,0.0,0.0,0.0,0.0,0.0,0.0,0.0,0.0,0.0,0.0,0.0,0.0,0.0,0.0,0.0,0.0,0.0,0.0,0.0,0.0,0.0,0.0,0.0,0.0,0.0,0.0,0.0,0.0,0.0,0.0,0.0,0.0,0.0,0.0,0.0,0.0,0.0,0.0,0.0,0.0,0.0,0.0,3.1643,3.8128,4.3665,4.858,5.2668,5.3615,5.3966,5.3933,5.2051,4.8835,0.0,0.0,0.0,0.0,0.0,0.0,0.0,0.0,0.0,0.0,0.0,0.0,0.0,0.0,0.0,0.0,0.0,0.0,0.0,0.0,0.0,0.0,0.0,0.0,0.0,0.0,0.0,0.0,2.4529,2.5876,2.6066,0.0,0.0,0.0,0.0,0.0,0.0,0.0,0.0,0.0,0.0,4.0029,4.3095,4.4334,0.0,0.0,4.5874,4.5887,4.7577,4.5632,4.3277,4.1725,3.8414,0.0,0.0,0.0,0.0,0.0,0.0,0.0,0.0,0.0,0.0,0.0,0.0,0.0,0.0,0.0,0.0,0.0,0.0,0.0,0.0,0.0,0.0,0.0,0.0,0.0,0.0,0.0,0.0,0.0,0.0,0.0,0.0,0.0,0.0,0.0,0.0,0.0,0.0,0.0,0.0,0.0,0.0,0.0,0.0,0.0,0.0,0.0,0.0,0.0,0.0,0.0,0.0,0.0,3.8036,4.2863,4.7741,5.2501,5.3489,5.3444,5.2459,4.9835,4.6173,0.0,0.0,0.0,0.0,0.0,0.0,0.0,0.0,0.0,0.0,0.0,0.0,0.0,0.0,0.0,0.0,0.0,0.0,0.0,0.0,0.0,0.0,0.0,0.0,0.0,0.0,0.0,0.0,0.0,0.0,0.0,0.0,0.0,0.0,0.0,0.0,0.0,0.0,0.0,0.0,0.0,3.6869,3.9337,4.1986,4.3764,0.0,4.3711,4.4147,4.6134,4.4315,4.2062,4.0612,0.0,0.0,0.0,0.0,0.0,0.0,0.0,0.0,0.0,0.0,0.0,0.0,0.0,0.0,0.0,0.0,0.0,0.0,0.0,0.0,0.0,0.0,0.0,0.0,0.0,0.0,0.0,0.0,0.0,0.0,0.0,0.0,0.0,0.0,0.0,0.0,0.0,0.0,0.0,0.0,0.0,0.0,0.0,0.0,0.0,0.0,0.0,0.0,0.0,0.0,0.0,0.0,0.0,0.0,3.6644,4.2677,4.7508,5.118,5.321,5.3732,5.2494,4.9718,0.0,0.0,0.0,0.0,0.0,0.0,0.0,0.0,0.0,0.0,0.0,0.0,0.0,0.0,0.0,0.0,0.0,0.0,0.0,0.0,0.0,0.0,0.0,0.0,0.0,0.0,0.0,1.6901,0.0,0.0,0.0,0.0,0.0,0.0,0.0,0.0,0.0,0.0,0.0,0.0,0.0,0.0,3.8086,4.0014,4.0773,4.1933,0.0,0.0,4.1622,4.4354,4.2626,4.0208,0.0,0.0,0.0,0.0,0.0,0.0,0.0,0.0,0.0,0.0,0.0,0.0,0.0,0.0,0.0,0.0,0.0,0.0,0.0,0.0,0.0,0.0,0.0,0.0,0.0,0.0,0.0,0.0,0.0,0.0,0.0,0.0,0.0,0.0,0.0,0.0,0.0,0.0,0.0,0.0,0.0,0.0,0.0,0.0,0.0,0.0,0.0,0.0,0.0,0.0,0.0,0.0,0.0,0.0,3.007,3.6333,4.1385,4.6286,5.1023,5.2763,5.3099,5.2052,4.9168,4.4787,0.0,0.0,0.0,0.0,0.0,0.0,0.0,0.0,0.0,0.0,0.0,0.0,0.0,0.0,0.0,0.0,0.0,0.0,0.0,0.0,0.0,0.0,0.0,0.0,0.0,0.0,0.0,0.0,0.0,0.0,0.0,0.0,0.0,0.0,0.0,0.0,0.0,0.0,0.0,0.0,0.0,0.0,3.7506,3.8088,0.0,0.0,0.0,3.8709,4.1067,0.0,0.0,0.0,0.0,0.0,0.0,0.0,0.0,0.0,0.0,0.0,0.0,0.0,0.0,0.0,0.0,0.0,0.0,0.0,0.0,0.0,0.0,0.0,0.0,0.0,0.0,0.0,0.0,0.0,0.0,0.0,0.0,0.0,0.0,0.0,0.0,0.0,0.0,0.0,0.0,0.0,0.0,0.0,0.0,0.0,0.0,0.0,0.0,0.0,0.0,0.0,0.0,0.0,0.0,0.0,0.0,0.0,3.6101,3.975,4.4722,5.0889,5.1921,5.197,5.1226,4.8231,4.3842,0.0,0.0,0.0,0.0,0.0,0.0,0.0,0.0,0.0,0.0,0.0,0.0,0.0,0.0,0.0,0.0,0.0,0.0,0.0,0.0,0.0,0.0,0.0,0.0,0.0,0.0,0.0,0.0,0.0,0.0,0.0,0.0,0.0,0.0,0.0,0.0,0.0,0.0,0.0,0.0,0.0,3.2215,3.3839,3.4805,3.5388,0.0,0.0,3.5542,3.7203,3.6565,0.0,0.0,0.0,0.0,0.0,0.0,0.0,0.0,0.0,0.0,0.0,0.0,0.0,0.0,0.0,0.0,0.0,0.0,0.0,0.0,0.0,0.0,0.0,0.0,0.0,0.0,0.0,0.0,0.0,0.0,0.0,0.0,0.0,0.0,0.0,0.0,0.0,0.0,0.0,0.0,0.0,0.0,0.0,0.0,0.0,0.0,0.0,0.0,0.0,0.0,0.0,0.0,0.0,0.0,0.0,0.0,3.3772,3.93,4.4279,4.8449,5.0336,5.0725,4.9665,4.6811,4.3024,0.0,0.0,0.0,0.0,0.0,0.0,0.0,0.0,0.0,0.0,0.0,0.0,0.0,0.0,0.0,0.0,0.0,0.0,0.0,0.0,0.0,0.0,0.0,0.0,0.0,0.0,0.0,0.0,0.0,0.0,0.0,0.0,0.0,0.0,0.0,0.0,0.0,0.0,0.0,0.0,0.0,3.2486,3.307,3.3144,0.0,0.0,0.0,0.0,3.4394,3.4478,0.0,0.0,0.0,0.0,0.0,0.0,0.0,0.0,0.0,0.0,0.0,0.0,0.0,0.0,0.0,0.0,0.0,0.0,0.0,0.0,0.0,0.0,0.0,0.0,0.0,0.0,0.0,0.0,0.0,0.0,0.0,0.0,0.0,0.0,0.0,0.0,0.0,0.0,0.0,0.0,0.0,0.0,0.0,0.0,0.0,0.0,0.0,0.0,0.0,0.0,0.0,0.0,0.0,0.0,0.0,0.0,3.2168,3.7592,4.2615,4.7021,4.9184,5.0136,4.9649,4.6818,4.306,0.0,0.0,0.0,0.0,0.0,0.0,0.0,0.0,0.0,0.0,0.0,0.0,0.0,0.0,0.0,0.0,0.0,0.0,0.0,0.0,0.0,0.0,0.0,0.0,0.0,0.0,0.0,0.0,0.0,0.0,0.0,0.0,0.0,0.0,0.0,0.0,0.0,0.0,0.0,0.0,2.8566,3.0408,3.0663,0.0,0.0,0.0,0.0,0.0,0.0,3.1079,3.0401,0.0,0.0,0.0,0.0,0.0,0.0,0.0,0.0,0.0,0.0,0.0,0.0,0.0,0.0,0.0,0.0,0.0,0.0,0.0,0.0,0.0,0.0,0.0,0.0,0.0,0.0,0.0,0.0,0.0,0.0,0.0,0.0,0.0,0.0,0.0,0.0,0.0,0.0,0.0,0.0,0.0,0.0,0.0,0.0,0.0,0.0,0.0,0.0,0.0,0.0,0.0,0.0,0.0,0.0,0.0,3.0949,3.5888,4.0948,4.6,4.8135,4.9501,4.9925,4.6954,4.2914,3.7852,0.0,0.0,0.0,0.0,0.0,0.0,0.0,0.0,0.0,0.0,0.0,0.0,0.0,0.0,0.0,0.0,0.0,0.0,0.0,0.0,0.0,0.0,0.0,0.0,0.0,0.0,0.0,0.0,0.0,0.0,0.0,0.0,0.0,0.0,0.0,0.0,0.0,0.0,0.0,2.6066,2.7906,0.0,0.0,0.0,0.0,0.0,0.0,0.0,0.0,2.7589,0.0,0.0,0.0,0.0,0.0,0.0,0.0,0.0,0.0,0.0,0.0,0.0,0.0,0.0,0.0,0.0,0.0,0.0,0.0,0.0,0.0,0.0,0.0,0.0,0.0,0.0,0.0,0.0,0.0,0.0,0.0,0.0,0.0,0.0,0.0,0.0,0.0,0.0,0.0,0.0,0.0,0.0,0.0,0.0,0.0,0.0,0.0,0.0,0.0,0.0,0.0,0.0,0.0,0.0,0.0,0.0,3.5827,4.0795,4.4521,4.6772,4.8102,4.8489,4.541,4.0816,3.4771,0.0,0.0,0.0,0.0,0.0,0.0,0.0,0.0,0.0,0.0,0.0,0.0,0.0,0.0,0.0,0.0,0.0,0.0,0.0,0.0,0.0,0.0,0.0,0.0,0.0,0.0,0.0,0.0,0.0,0.0,0.0,0.0,0.0,0.0,0.0,0.0,0.0,0.0,2.0835,2.4482,0.0,0.0,0.0,0.0,0.0,0.0,0.0,0.0,2.7331,0.0,0.0,0.0,0.0,0.0,0.0,0.0,0.0,0.0,0.0,0.0,0.0,0.0,0.0,0.0,0.0,0.0,0.0,0.0,0.0,0.0,0.0,0.0,0.0,0.0,0.0,0.0,0.0,0.0,0.0,0.0,0.0,0.0,0.0,0.0,0.0,0.0,0.0,0.0,0.0,0.0,0.0,0.0,0.0,0.0,0.0,0.0,0.0,0.0,0.0,0.0,0.0,0.0,0.0,0.0,0.0,0.0,0.0,3.886,4.2959,4.5257,4.6534,4.6747,4.3745,3.9532,0.0,0.0,0.0,0.0,0.0,0.0,0.0,0.0,0.0,0.0,0.0,0.0,0.0,0.0,0.0,0.0,0.0,0.0,0.0,0.0,0.0,0.0,0.0,0.0,0.0,0.0,0.0,0.0,0.0,0.0,0.0,0.0,0.0,0.0,0.0,0.0,0.0,0.0,0.0,0.0,0.0,0.0,0.0,0.0,0.0,0.0,0.0,0.0,0.0,0.0,0.0,0.0,0.0,0.0,0.0,0.0,0.0,0.0,0.0,0.0,0.0,0.0,0.0,0.0,0.0,0.0,0.0,0.0,0.0,0.0,0.0,0.0,0.0,0.0,0.0,0.0,0.0,0.0,0.0,0.0,0.0,0.0,0.0,0.0,0.0,0.0,0.0,0.0,0.0,0.0,0.0,0.0,0.0,0.0,0.0,0.0,0.0,0.0,0.0,0.0,0.0,0.0,0.0,0.0,0.0,0.0,0.0,0.0,3.6631,4.1327,4.3964,4.5414,4.5675,4.1974,3.7772,0.0,0.0,0.0,0.0,0.0,0.0,0.0,0.0,0.0,0.0,0.0,0.0,0.0,0.0,0.0,0.0,0.0,0.0,0.0,0.0,0.0,0.0,0.0,0.0,0.0,0.0,0.0,0.0,0.0,0.0,0.0,0.0,0.0,0.0,0.0,0.0,0.0,0.0,0.0,0.0,0.0,0.0,0.0,0.0,0.0,0.0,0.0,0.0,2.4544,0.0,0.0,0.0,0.0,0.0,0.0,0.0,0.0,0.0,0.0,0.0,0.0,0.0,0.0,0.0,0.0,0.0,0.0,0.0,0.0,0.0,0.0,0.0,0.0,0.0,0.0,0.0,0.0,0.0,0.0,0.0,0.0,0.0,0.0,0.0,0.0,0.0,0.0,0.0,0.0,0.0,0.0,0.0,0.0,0.0,0.0,0.0,0.0,0.0,0.0,0.0,0.0,0.0,0.0,0.0,0.0,0.0,0.0,0.0,3.5071,3.9628,4.3353,4.5414,4.5493,3.9828,3.4438,0.0,0.0,0.0,0.0,0.0,0.0,0.0,0.0,0.0,0.0,0.0,0.0,0.0,0.0,0.0,0.0,0.0,0.0,0.0,0.0,0.0,0.0,0.0,0.0,0.0,0.0,0.0,0.0,0.0,0.0,0.0,0.0,0.0,0.0,0.0,0.0,0.0,0.0,0.0,0.0,0.0,0.0,0.0,0.0,0.0,0.0,0.0,0.0,0.0,0.0,0.0,0.0,0.0,0.0,0.0,0.0,0.0,0.0,0.0,0.0,0.0,0.0,0.0,0.0,0.0,0.0,0.0,0.0,0.0,0.0,0.0,0.0,0.0,0.0,0.0,0.0,0.0,0.0,0.0,0.0,0.0,0.0,0.0,0.0,0.0,0.0,0.0,0.0,0.0,0.0,0.0,0.0,0.0,0.0,0.0,0.0,0.0,0.0,0.0,0.0,0.0,0.0,0.0,0.0,0.0,0.0,0.0,0.0,3.2561,3.8099,4.0049,4.1153,4.1426,3.7038,3.2548,0.0,0.0,0.0,0.0,0.0,0.0,0.0,0.0,0.0,0.0,0.0,0.0,0.0,0.0,0.0,0.0,0.0,0.0,0.0,0.0,0.0,0.0,0.0,0.0,0.0,0.0,0.0,0.0,0.0,0.0,0.0,0.0,0.0,0.0,0.0,0.0,0.0,0.0,0.0,0.0,0.0,0.0,0.0,0.0,0.0,0.0,0.0,0.0,0.0,0.0,0.0,0.0,0.0,0.0,0.0,0.0,0.0,0.0,0.0,0.0,0.0,0.0,0.0,0.0,0.0,0.0,0.0,0.0,0.0,0.0,0.0,0.0,0.0,0.0,0.0,0.0,0.0,0.0,0.0,0.0,0.0,0.0,0.0,0.0,0.0,0.0,0.0,0.0,0.0,0.0,0.0,0.0,0.0,0.0,0.0,0.0,0.0,0.0,0.0,0.0,0.0,0.0,0.0,0.0,0.0,0.0,0.0,0.0,0.0,3.5775,3.5699,3.6016,3.7033,3.4081,3.0669,0.0,0.0,0.0,0.0,0.0,0.0,0.0,0.0,0.0,0.0,0.0,0.0,0.0,0.0,0.0,0.0,0.0,0.0,0.0,0.0,0.0,0.0,0.0,0.0,0.0,0.0,0.0,0.0,0.0,0.0,0.0,0.0,0.0,0.0,0.0,0.0,0.0,0.0,0.0,0.0,0.0,0.0,0.0,0.0,0.0,0.0,0.0,0.0,0.0,0.0,0.0,0.0,0.0,0.0,0.0,0.0,0.0,0.0,0.0,0.0,0.0,0.0,0.0,0.0,0.0,0.0,0.0,0.0,0.0,0.0,0.0,0.0,0.0,0.0,0.0,0.0,0.0,0.0,0.0,0.0,0.0,0.0,0.0,0.0,0.0,0.0,0.0,0.0,0.0,0.0,0.0,0.0,0.0,0.0,0.0,0.0,0.0,0.0,0.0,0.0,0.0,0.0,0.0,0.0,0.0,0.0,0.0,0.0,0.0,3.2859,3.0445,3.0707,3.3922,3.1014,2.8615,0.0,0.0,0.0,0.0,0.0,0.0,0.0,0.0,0.0,0.0,0.0,0.0,0.0,0.0,0.0,0.0,0.0,0.0,0.0,0.0,0.0,0.0,0.0,0.0,0.0,0.0,0.0,0.0,0.0,0.0,0.0,0.0,0.0,0.0,0.0,0.0,0.0,0.0,0.0,0.0,0.0,0.0,0.0,0.0,0.0,0.0,0.0,0.0,0.0,0.0,0.0,0.0,0.0,0.0,0.0,0.0,0.0,0.0,0.0,0.0,0.0,0.0,0.0,0.0,0.0,0.0,0.0,0.0,0.0,0.0,0.0,0.0,0.0,0.0,0.0,0.0,0.0,0.0,0.0,0.0,0.0,0.0,0.0,0.0,0.0,0.0,0.0,0.0,0.0,0.0,0.0,0.0,0.0,0.0,0.0,0.0,0.0,0.0,0.0,0.0,0.0,0.0,0.0,0.0,0.0,0.0,0.0,0.0,0.0,2.7006,2.7193,2.7858,2.9127,2.7267,2.5491,2.3927,0.0,0.0,0.0,0.0,0.0,0.0,0.0,0.0,0.0,0.0,0.0,0.0,0.0,0.0,0.0,0.0,0.0,0.0,0.0,0.0,0.0,0.0,0.0,0.0,0.0,0.0,0.0,0.0,0.0,0.0,0.0,0.0,0.0,0.0,0.0,0.0,0.0,0.0,0.0,0.0,0.0,0.0,0.0,0.0,0.0,0.0,0.0,0.0,0.0,0.0,0.0,0.0,0.0,0.0,0.0,0.0,0.0,0.0,0.0,0.0,0.0,0.0,0.0,0.0,0.0,0.0,0.0,0.0,0.0,0.0,0.0,0.0,0.0,0.0,0.0,0.0,0.0,0.0,0.0,0.0,0.0,0.0,0.0,0.0,0.0,0.0,0.0,0.0,0.0,0.0,0.0,0.0,0.0,0.0,0.0,0.0,0.0,0.0,0.0,0.0,0.0,0.0,0.0,0.0,0.0,0.0,0.0,0.0,2.32,2.447,2.5375,2.5847,2.4526,2.3318,0.0,0.0,0.0,0.0,0.0,0.0,0.0,0.0,0.0,0.0,0.0,0.0,0.0,0.0,0.0,0.0,0.0,0.0,0.0,0.0,0.0,0.0,0.0,0.0,0.0,0.0,0.0,0.0,0.0,0.0,0.0,0.0,0.0,0.0,0.0,0.0,0.0,0.0,0.0,0.0,0.0,0.0,0.0,0.0,0.0,0.0,0.0,0.0,0.0,0.0,0.0,0.0,0.0,0.0,0.0,0.0,0.0,0.0,0.0,0.0,0.0,0.0,0.0,0.0,0.0,0.0,0.0,0.0,0.0,0.0,0.0,0.0,0.0,0.0,0.0,0.0,0.0,0.0,0.0,0.0,0.0,0.0,0.0,0.0,0.0,0.0,0.0,0.0,0.0,0.0,0.0,0.0,0.0,0.0,0.0,0.0,0.0,0.0,0.0,0.0,0.0,0.0,0.0,0.0,0.0,0.0,0.0,0.0,1.7075,2.1687,2.2119,2.2983,2.4594,2.3137,2.2348,0.0,0.0,0.0,0.0,0.0,0.0,0.0,0.0,0.0,0.0,0.0,0.0,0.0,0.0,0.0,0.0,0.0,0.0,0.0,0.0,0.0,0.0,0.0,0.0,0.0,0.0,0.0,0.0,0.0,0.0,0.0,0.0,0.0,0.0,0.0,0.0,0.0,0.0,0.0,0.0,0.0,0.0,0.0,0.0,0.0,0.0,0.0,0.0,0.0,0.0,0.0,0.0,0.0,0.0,0.0,0.0,0.0,0.0,0.0,0.0,0.0,0.0,0.0,0.0,0.0,0.0,0.0,0.0,0.0,0.0,0.0,0.0,0.0,0.0,0.0,0.0,0.0,0.0,0.0,0.0,0.0,0.0,0.0,0.0,0.0,0.0,0.0,0.0,0.0,0.0,0.0,0.0,0.0,0.0,0.0,0.0,0.0,0.0,0.0,0.0,0.0,0.0,0.0,0.0,0.0,0.0,0.0,0.0,0.0,1.7073,0.0,2.0827,0.0,2.1006,2.0781,0.0,0.0,0.0,0.0,0.0,0.0,0.0,0.0,0.0,0.0,0.0,0.0,0.0,0.0,0.0,0.0,0.0,0.0,0.0,0.0,0.0,0.0,0.0,0.0,0.0,0.0,0.0,0.0,0.0,0.0,0.0,0.0,0.0,0.0,0.0,0.0,0.0,0.0,0.0,0.0,0.0,0.0,0.0,0.0,0.0,0.0,0.0,0.0,0.0,0.0,0.0,0.0,0.0,0.0,0.0,0.0,0.0,0.0,0.0,0.0,0.0,0.0,0.0,0.0,0.0,0.0,0.0,0.0,0.0,0.0,0.0,0.0,0.0,0.0,0.0,0.0,0.0,0.0,0.0,0.0,0.0,0.0,0.0,0.0,0.0,0.0,0.0,0.0,0.0,0.0,0.0,0.0,0.0,0.0,0.0,0.0,0.0,0.0,0.0,0.0,0.0,0.0,0.0,0.0,0.0,0.0,0.0,0.0,0.0,1.588,1.8399,1.9878,1.9927,1.9958,2.0045,0.0,0.0,0.0,0.0,0.0,0.0,0.0,0.0,0.0,0.0,0.0,0.0,0.0,0.0,0.0,0.0,0.0,0.0,0.0,0.0,0.0,0.0,0.0,0.0,0.0,0.0,0.0,0.0,0.0,0.0,0.0,0.0,0.0,0.0,0.0,0.0,0.0,0.0,0.0,0.0,0.0,0.0,0.0,0.0,0.0,0.0,0.0,0.0,0.0,0.0,0.0,0.0,0.0,0.0,0.0,0.0,0.0,0.0,0.0,0.0,0.0,0.0,0.0,0.0,0.0,0.0,0.0,0.0,0.0,0.0,0.0,0.0,0.0,0.0,0.0,0.0,0.0,0.0,0.0,0.0,0.0,0.0,0.0,0.0,0.0,0.0,0.0,0.0,0.0,0.0,0.0,0.0,0.0,0.0,0.0,0.0,0.0,0.0,0.0,0.0,0.0,0.0,0.0,0.0,0.0,0.0,0.0,0.0,0.0,0.0,1.9009,1.9874,2.003,2.0045,2.0043,0.0,0.0,0.0,0.0,0.0,0.0,0.0,0.0,0.0,0.0,0.0,0.0,0.0,0.0,0.0,0.0,0.0,0.0,0.0,0.0,0.0,0.0,0.0,0.0,0.0,0.0,0.0,0.0,0.0,0.0,0.0,0.0,0.0,0.0,0.0,0.0,0.0,0.0,0.0,0.0,0.0,0.0,0.0,0.0,0.0,0.0,0.0,0.0,0.0,0.0,0.0,0.0,0.0,0.0,0.0,0.0,0.0,0.0,0.0,0.0,0.0,0.0,0.0,0.0,0.0,0.0,0.0,0.0,0.0,0.0,0.0,0.0,0.0,0.0,0.0,0.0,0.0,0.0,0.0,0.0,0.0,0.0,0.0,0.0,0.0,0.0,0.0,0.0,0.0,0.0,0.0,0.0,0.0,0.0,0.0,0.0,0.0,0.0,0.0,0.0,0.0,0.0,0.0,0.0,0.0,0.0,0.0,0.0,0.0,0.0,1.9106,0.0,2.0002,2.0045,2.0068,2.0011,0.0,0.0,0.0,0.0,0.0,0.0,0.0,0.0,0.0,0.0,0.0,0.0,0.0,0.0,0.0,0.0,0.0,0.0,0.0,0.0,0.0,0.0,0.0,0.0,0.0,0.0,0.0,0.0,0.0,0.0,0.0,0.0,0.0,0.0,0.0,0.0,0.0,0.0,0.0,0.0,0.0,0.0,0.0,0.0,0.0,0.0,0.0,0.0,0.0,0.0,0.0,0.0,0.0,0.0,0.0,0.0,0.0,0.0,0.0,0.0,0.0,0.0,0.0,0.0,0.0,0.0,0.0,0.0,0.0,0.0,0.0,0.0,0.0,0.0,0.0,0.0,0.0,0.0,0.0,0.0,0.0,0.0,0.0,0.0,0.0,0.0,0.0,0.0,0.0,0.0,0.0,0.0,0.0,0.0,0.0,0.0,0.0,0.0,0.0,0.0,0.0,0.0,0.0,0.0,0.0,0.0,0.0,0.0,0.0,0.0,0.0,2.0046,2.0039,1.9983,0.0,0.0,0.0,0.0,0.0,0.0,0.0,0.0,0.0,0.0,0.0,0.0,0.0,0.0,0.0,0.0,0.0,0.0,0.0,0.0,0.0,0.0,0.0,0.0,0.0,0.0,0.0,0.0,0.0,0.0,0.0,0.0,0.0,0.0,0.0,0.0,0.0,0.0,0.0,0.0,0.0,0.0,0.0,0.0,0.0,0.0,0.0,0.0,0.0,0.0,0.0,0.0,0.0,0.0,0.0,0.0,0.0,0.0,0.0,0.0,0.0,0.0,0.0,0.0,0.0,0.0,0.0,0.0,0.0,0.0,0.0,0.0,0.0,0.0,0.0,0.0,0.0,0.0,0.0,0.0,0.0,0.0,0.0,0.0,0.0,0.0,0.0,0.0,0.0,0.0,0.0,0.0,0.0,0.0,0.0,0.0,0.0,0.0,0.0,0.0,0.0,0.0,0.0,0.0,0.0,0.0,0.0,0.0,0.0,0.0,0.0,2.0002,1.9991,1.9989,0.0,1.984,0.0,0.0,0.0,0.0,0.0,0.0,0.0,0.0,0.0,0.0,0.0,0.0,0.0,0.0,0.0,0.0,0.0,0.0,0.0,0.0,0.0,0.0,0.0,0.0,0.0,0.0,0.0,0.0,0.0,0.0,0.0,0.0,0.0,0.0,0.0,0.0,0.0,0.0,0.0,0.0,0.0,0.0,0.0,0.0,0.0,0.0,0.0,0.0,0.0,0.0,0.0,0.0,0.0,0.0,0.0,0.0,0.0,0.0,0.0,0.0,0.0,0.0,0.0,0.0,0.0,0.0,0.0,0.0,0.0,0.0,0.0,0.0,0.0,0.0,0.0,0.0,0.0,0.0,0.0,0.0,0.0,0.0,0.0,0.0,0.0,0.0,0.0,0.0,0.0,0.0,0.0,0.0,0.0,0.0,0.0,0.0,0.0,0.0,0.0,0.0,0.0,0.0,0.0,0.0,0.0,0.0,0.0,0.0,0.0,0.0,0.0,0.0,1.9871,1.9878,1.9826,0.0,0.0,0.0,0.0,0.0,0.0,0.0,0.0,0.0,0.0,0.0,0.0,0.0,0.0,0.0,0.0,0.0,0.0,0.0,0.0,0.0,0.0,0.0,0.0,0.0,0.0,0.0,0.0,0.0,0.0,0.0,0.0,0.0,0.0,0.0,0.0,0.0,0.0,0.0,0.0,0.0,0.0,0.0,0.0,0.0,0.0,0.0,0.0,0.0,0.0,0.0,0.0,0.0,0.0,0.0,0.0,0.0,0.0,0.0,0.0,0.0,0.0,0.0,0.0,0.0,0.0,0.0,0.0,0.0,0.0,0.0,0.0,0.0,0.0,0.0,0.0,0.0,0.0,0.0,0.0,0.0,0.0,0.0,0.0,0.0,0.0,0.0,0.0,0.0,0.0,0.0,0.0,0.0,0.0,0.0,0.0,0.0,0.0,0.0,0.0,0.0,0.0,0.0,0.0,0.0,0.0,0.0,0.0,0.0,0.0,1.989,1.9794,1.9809,1.981,1.9751,0.0,0.0,0.0,0.0,0.0,0.0,0.0,0.0,0.0,0.0,0.0,0.0,0.0,0.0,0.0,0.0,0.0,0.0,0.0,0.0,0.0,0.0,0.0,0.0,0.0,0.0,0.0,0.0,0.0,0.0,0.0,0.0,0.0,0.0,0.0,0.0,0.0,0.0,0.0,0.0,0.0,0.0,0.0,0.0,0.0,0.0,0.0,0.0,0.0,0.0,0.0,0.0,0.0,0.0,0.0,0.0,0.0,0.0,0.0,0.0,0.0,0.0,0.0,0.0,0.0,0.0,0.0,0.0,0.0,0.0,0.0,0.0,0.0,0.0,0.0,0.0,0.0,0.0,0.0,0.0,0.0,0.0,0.0,0.0,0.0,0.0,0.0,0.0,0.0,0.0,0.0,0.0,0.0,0.0,0.0,0.0,0.0,0.0,0.0,0.0,0.0,0.0,0.0,0.0,0.0,0.0,0.0,0.0,0.0,0.0,0.0,0.0,0.0,0.0,1.9651,0.0,0.0,0.0,0.0,0.0,0.0,0.0,0.0,0.0,0.0,0.0,0.0,0.0,0.0,0.0,0.0,0.0,0.0,0.0,0.0,0.0,0.0,0.0,0.0,0.0,0.0,0.0,0.0,0.0,0.0,0.0,0.0,0.0,0.0,0.0,0.0,0.0,0.0,0.0,0.0,0.0,0.0,0.0,0.0,0.0,0.0,0.0,0.0,0.0,0.0,0.0,0.0,0.0,0.0,0.0,0.0,0.0,0.0,0.0,0.0,0.0,0.0,0.0,0.0,0.0,0.0,0.0,0.0,0.0,0.0,0.0,0.0,0.0,0.0,0.0,0.0,0.0,0.0,0.0,0.0,0.0,0.0,0.0,0.0,0.0,0.0,0.0,0.0,0.0,0.0,0.0,0.0,0.0,0.0,0.0,0.0,0.0,0.0,0.0,0.0,0.0,0.0,0.0,0.0,0.0,0.0,0.0,0.0,0.0,0.0,0.0,0.0,0.0,0.0,0.0,0.0,0.0,0.0,0.0,0.0,0.0,0.0,0.0,0.0,0.0,0.0,0.0,0.0,0.0,0.0,0.0,0.0,0.0,0.0,0.0,0.0,0.0,0.0,0.0,0.0,0.0,0.0,0.0,0.0,0.0,0.0,0.0,0.0,0.0,0.0,0.0,0.0,0.0,0.0,0.0,0.0,0.0,0.0,0.0,0.0,0.0,0.0,0.0,0.0,0.0,0.0,0.0,0.0,0.0,0.0,0.0,0.0,0.0,0.0,0.0,0.0,0.0,0.0,0.0,0.0,0.0,0.0,0.0,0.0,0.0,0.0,0.0,0.0,0.0,0.0,0.0,0.0,0.0,0.0,0.0,0.0,0.0,0.0,0.0,0.0,0.0,0.0,0.0,0.0,0.0,0.0,0.0,0.0,0.0,0.0,0.0,0.0,0.0,0.0,0.0,0.0,0.0,0.0,0.0,0.0,0.0,0.0,0.0,0.0,0.0,0.0,0.0,0.0,0.0,0.0,0.0,0.0,0.0,0.0,0.0,0.0,0.0,0.0,0.0,0.0,0.0,0.0,0.0,0.0,0.0,0.0,0.0,0.0,0.0,0.0,0.0,0.0,0.0,0.0,0.0,0.0,0.0,0.0,0.0,0.0,0.0,0.0,0.0,0.0,0.0,0.0,0.0,0.0,0.0,0.0,0.0,0.0,0.0,0.0,0.0,0.0,0.0,0.0,0.0,0.0,0.0,0.0,0.0,0.0,0.0,0.0,0.0,0.0,0.0,0.0,0.0,0.0,0.0,0.0,0.0,0.0,0.0,0.0,0.0,0.0,0.0,0.0,0.0,0.0,0.0,0.0,0.0,0.0,0.0,0.0,0.0,0.0,0.0,0.0,0.0,0.0,0.0,0.0,0.0,0.0,0.0,0.0,0.0,0.0,0.0,0.0,0.0,0.0,0.0,0.0,0.0,0.0,0.0,0.0,0.0,0.0,0.0,0.0,0.0,0.0,0.0,0.0,0.0,0.0,0.0,0.0,0.0,0.0,0.0,0.0,0.0,0.0,0.0,0.0,0.0,0.0,0.0,0.0,0.0,0.0,0.0,0.0,0.0,0.0,0.0,0.0,0.0,0.0,0.0,0.0,0.0,0.0,0.0,0.0,0.0,0.0,0.0,0.0,0.0,0.0,0.0,0.0,0.0,0.0,0.0,0.0,0.0,0.0,0.0,0.0,0.0,0.0,0.0,0.0,0.0,0.0,0.0,0.0,0.0,0.0,0.0,0.0,0.0,0.0,0.0,0.0,0.0,0.0,0.0,0.0,0.0,0.0,0.0,0.0,0.0,0.0,0.0,0.0,0.0,0.0,0.0,0.0,0.0,0.0,0.0,0.0,0.0,0.0,0.0,0.0,0.0,0.0,0.0,0.0,0.0,0.0,0.0,0.0,0.0,0.0,0.0,0.0,0.0,0.0,0.0,0.0,0.0,0.0,0.0,0.0,0.0,0.0,0.0,0.0,0.0,0.0,0.0,0.0,0.0,0.0,0.0,0.0,0.0,0.0,0.0,0.0,0.0,0.0,0.0,0.0,0.0,0.0,0.0,0.0,0.0,0.0,0.0,0.0,0.0,0.0,0.0,0.0,0.0,0.0,0.0,0.0,0.0,0.0,0.0,0.0,0.0,0.0,0.0,0.0,0.0,0.0,0.0,0.0,0.0,0.0,0.0,0.0,0.0,0.0,0.0,0.0,0.0,0.0,0.0,0.0,0.0,0.0,0.0,0.0,0.0,0.0,0.0,0.0,0.0,0.0,0.0,0.0,0.0,0.0,0.0,0.0,0.0,0.0,0.0,0.0,0.0,0.0,0.0,0.0,0.0,0.0,0.0,0.0,0.0,0.0,0.0,0.0,0.0,0.0,0.0,0.0,0.0,0.0,0.0,0.0,0.0,0.0,0.0,0.0,0.0,0.0,0.0,0.0,0.0,0.0,0.0,0.0,0.0,0.0,0.0,0.0,0.0,0.0,0.0,0.0,0.0,0.0,0.0,0.0,0.0,0.0,0.0,0.0,0.0,0.0,0.0,0.0,0.0,0.0,0.0,0.0,0.0,0.0,0.0,0.0,0.0,0.0,0.0,0.0,0.0,0.0,0.0,0.0,0.0,0.0,0.0,0.0,0.0,0.0,0.0,0.0,0.0,0.0,0.0,0.0,0.0,0.0,0.0,0.0,0.0,0.0,0.0,0.0,0.0,0.0,0.0,0.0,0.0,0.0,0.0,0.0,0.0,0.0,0.0,0.0,0.0,0.0,0.0,0.0,0.0,0.0,0.0,0.0,0.0,0.0,0.0,0.0,0.0,0.0,0.0,0.0,0.0,0.0,0.0,0.0,0.0,0.0,0.0,0.0,0.0,0.0,0.0,0.0,0.0,0.0,0.0,0.0,0.0,0.0,0.0,0.0,0.0,0.0,0.0,0.0,0.0,0.0,0.0,0.0,0.0,0.0,0.0,0.0,0.0,0.0,0.0,0.0,0.0,0.0,0.0,0.0,0.0,0.0,0.0,0.0,0.0,0.0,0.0,0.0,0.0,0.0,0.0,0.0,0.0,0.0,0.0,0.0,0.0,0.0,0.0,0.0,0.0,0.0,0.0,0.0,0.0,0.0,0.0,0.0,0.0,0.0,0.0,0.0,0.0,0.0,0.0,0.0,0.0,0.0,0.0,0.0,0.0,0.0,0.0,0.0,0.0,0.0,0.0,0.0,0.0,0.0,0.0,0.0,0.0,0.0,0.0,0.0,0.0,0.0,0.0,0.0,0.0,0.0,0.0,0.0,0.0,0.0,0.0,0.0,0.0,0.0,0.0,0.0,0.0,0.0,0.0,0.0,0.0,0.0,0.0,0.0,0.0,0.0,0.0,0.0,0.0,0.0,0.0,0.0,0.0,0.0,0.0,0.0,0.0,0.0,0.0,0.0,0.0,0.0,0.0,0.0,0.0,0.0,0.0,0.0,0.0,0.0,0.0,0.0,0.0,0.0,0.0,0.0,0.0,0.0,0.0,0.0,0.0,0.0,0.0,0.0,0.0,0.0,0.0,0.0,0.0,0.0,0.0,0.0,0.0,0.0,0.0,0.0,0.0,0.0,0.0,0.0,0.0,0.0,0.0,0.0,0.0,0.0,0.0,0.0,0.0,0.0,0.0,0.0,0.0,0.0,0.0,0.0,0.0,0.0,0.0,0.0,0.0,0.0,0.0,0.0,0.0,0.0,0.0,0.0,0.0,0.0,0.0,0.0,0.0,0.0,0.0,0.0,0.0,0.0,0.0,0.0,0.0,0.0,0.0,0.0,0.0,0.0,0.0,0.0,0.0,0.0,0.0,0.0,0.0,0.0,0.0,0.0,0.0,0.0,0.0,0.0,0.0,0.0,0.0,0.0,0.0,0.0,0.0,0.0,0.0,0.0,0.0,0.0,0.0,0.0,0.0,0.0,0.0,0.0,0.0,0.0,0.0,0.0,0.0,0.0,0.0,0.0,0.0,0.0,0.0,0.0,0.0,0.0,0.0,0.0,0.0,0.0,0.0,0.0,0.0,0.0,0.0,0.0,0.0,0.0,0.0,0.0,0.0,0.0,0.0,0.0,0.0,0.0,0.0,0.0,0.0,0.0,0.0,0.0,0.0,0.0,0.0,0.0,0.0,0.0,0.0,0.0,0.0,0.0,0.0,0.0,0.0,0.0,0.0,0.0,0.0,0.0,0.0,0.0,0.0,0.0,0.0,0.0,0.0,0.0,0.0,0.0,0.0,0.0,0.0,0.0,0.0,0.0,0.0,0.0,0.0,0.0,0.0,0.0,0.0,0.0,0.0,0.0,0.0,0.0,0.0,0.0]}]]]